[[{"header":{"parameterUnit":"m.s-1","parameterCategory":1,"la1":30.6,"la2":29.2853,"lo1":-89.7004,"lo2":-87.6739,"dy":0.0162,"dx":0.0183,"nx":112,"ny":82,"refTime":"2023-07-19T06:00:00:Z","depth":0,"parameterNumber":2,"parameterNumberName":"U-component_of_WINDS"},"data":[0.0,0.0,0.0,0.0,0.0,0.0,0.0,0.0,0.0,0.0,0.0,0.0,0.0,0.0,0.0,0.0,0.0,0.0,0.0,0.0,0.0,0.0,0.0,0.0,0.0,0.0,0.0,0.0,0.0,0.0,0.0,0.0,0.0,0.0,0.0,0.0,0.0,0.0,0.0,0.0,0.0,0.0,0.0,0.0,0.0,0.0,0.0,0.0,0.0,0.0,0.0,0.0,0.0,0.0,0.0,0.0,0.0,0.0,0.0,0.0,0.0,0.0,0.0,0.0,0.0,0.0,0.0,0.0,0.0,0.0,0.0,0.0,0.0,0.0,0.0,0.0,0.0,0.0,0.0,0.0,0.0,0.0,0.0,0.0,0.0,0.0,0.0,0.0,0.0,0.0,0.0,-2.8681,-3.1636,-3.3382,-3.3349,-3.194,-3.0354,-2.8659,0.0,0.0,0.0,0.0,0.0,0.0,0.0,0.0,0.0,0.0,0.0,0.0,0.0,0.0,0.0,0.0,0.0,0.0,0.0,0.0,0.0,0.0,0.0,0.0,0.0,0.0,0.0,0.0,0.0,0.0,0.0,0.0,0.0,0.0,0.0,0.0,0.0,0.0,0.0,0.0,0.0,0.0,0.0,0.0,0.0,0.0,0.0,0.0,0.0,0.0,0.0,0.0,0.0,0.0,0.0,0.0,0.0,0.0,0.0,0.0,0.0,0.0,0.0,0.0,0.0,0.0,0.0,0.0,0.0,0.0,0.0,0.0,0.0,0.0,0.0,0.0,0.0,0.0,0.0,0.0,0.0,0.0,0.0,0.0,0.0,0.0,0.0,0.0,0.0,0.0,0.0,0.0,0.0,0.0,0.0,0.0,0.0,0.0,0.0,0.0,0.0,0.0,0.0,0.0,-2.5633,-3.0103,-3.2206,-3.3277,-3.3165,-3.178,-3.0179,-2.8456,0.0,0.0,0.0,0.0,0.0,0.0,0.0,0.0,0.0,0.0,0.0,0.0,0.0,0.0,0.0,0.0,0.0,0.0,0.0,0.0,0.0,0.0,0.0,0.0,0.0,0.0,0.0,0.0,0.0,0.0,0.0,0.0,0.0,0.0,0.0,0.0,0.0,0.0,0.0,0.0,0.0,0.0,0.0,0.0,0.0,0.0,0.0,0.0,0.0,0.0,0.0,0.0,0.0,0.0,0.0,0.0,0.0,0.0,0.0,0.0,0.0,0.0,0.0,0.0,0.0,0.0,0.0,0.0,0.0,0.0,0.0,0.0,0.0,0.0,0.0,0.0,0.0,0.0,0.0,0.0,0.0,0.0,0.0,0.0,0.0,0.0,0.0,0.0,0.0,0.0,0.0,0.0,0.0,0.0,0.0,0.0,0.0,0.0,0.0,0.0,0.0,0.0,0.0,-2.4889,-2.753,-3.053,-3.2218,-3.3122,-3.3057,-3.1652,-3.009,-2.8421,-2.529,0.0,0.0,0.0,0.0,0.0,0.0,0.0,0.0,0.0,0.0,0.0,0.0,0.0,0.0,0.0,0.0,0.0,0.0,0.0,0.0,0.0,0.0,0.0,0.0,0.0,0.0,0.0,0.0,0.0,0.0,0.0,0.0,0.0,0.0,0.0,0.0,0.0,0.0,0.0,0.0,0.0,0.0,0.0,0.0,0.0,0.0,0.0,0.0,0.0,0.0,0.0,0.0,0.0,0.0,0.0,0.0,0.0,0.0,0.0,0.0,0.0,0.0,0.0,0.0,0.0,0.0,0.0,0.0,0.0,0.0,0.0,0.0,0.0,0.0,0.0,0.0,0.0,0.0,0.0,0.0,0.0,0.0,0.0,0.0,0.0,0.0,0.0,0.0,0.0,0.0,0.0,0.0,0.0,0.0,0.0,0.0,0.0,0.0,0.0,0.0,0.0,0.0,-2.6947,-2.9359,-3.0923,-3.2235,-3.2979,-3.2979,-3.1583,-2.9991,-2.8367,-2.5198,0.0,0.0,0.0,0.0,0.0,0.0,0.0,0.0,0.0,0.0,0.0,0.0,0.0,0.0,0.0,0.0,0.0,0.0,0.0,0.0,0.0,0.0,0.0,0.0,0.0,0.0,0.0,0.0,0.0,0.0,0.0,0.0,0.0,0.0,0.0,0.0,0.0,0.0,0.0,0.0,0.0,0.0,0.0,0.0,0.0,0.0,0.0,0.0,0.0,0.0,0.0,0.0,0.0,0.0,0.0,0.0,0.0,0.0,0.0,0.0,0.0,0.0,0.0,0.0,0.0,0.0,0.0,0.0,0.0,0.0,0.0,0.0,0.0,0.0,0.0,0.0,0.0,0.0,0.0,0.0,0.0,0.0,0.0,0.0,0.0,0.0,0.0,0.0,0.0,0.0,0.0,0.0,0.0,0.0,0.0,0.0,0.0,0.0,0.0,0.0,0.0,0.0,-2.8133,-3.0215,-3.175,-3.2576,-3.2963,-3.2916,-3.155,-2.9966,-2.8215,-2.5148,0.0,0.0,0.0,0.0,0.0,0.0,0.0,0.0,0.0,0.0,0.0,0.0,0.0,0.0,0.0,0.0,0.0,0.0,0.0,0.0,0.0,0.0,0.0,0.0,0.0,0.0,0.0,0.0,0.0,0.0,0.0,0.0,0.0,0.0,0.0,0.0,0.0,0.0,0.0,0.0,0.0,0.0,0.0,0.0,0.0,0.0,0.0,0.0,0.0,0.0,0.0,0.0,0.0,0.0,0.0,0.0,0.0,0.0,0.0,0.0,0.0,0.0,0.0,0.0,0.0,0.0,0.0,0.0,0.0,0.0,0.0,0.0,0.0,0.0,0.0,0.0,0.0,0.0,0.0,0.0,0.0,0.0,0.0,0.0,0.0,0.0,0.0,0.0,0.0,0.0,0.0,0.0,0.0,0.0,0.0,0.0,0.0,0.0,0.0,0.0,0.0,0.0,-2.8196,-3.025,0.0,-3.2563,-3.2932,-3.29,-3.1423,-2.981,-2.8131,0.0,0.0,0.0,0.0,0.0,0.0,0.0,0.0,0.0,0.0,0.0,0.0,0.0,0.0,0.0,0.0,0.0,0.0,0.0,0.0,0.0,0.0,0.0,0.0,0.0,0.0,0.0,0.0,0.0,0.0,0.0,0.0,0.0,0.0,0.0,0.0,0.0,0.0,0.0,0.0,0.0,0.0,0.0,0.0,0.0,0.0,0.0,0.0,0.0,0.0,0.0,0.0,0.0,0.0,0.0,0.0,0.0,0.0,0.0,0.0,0.0,0.0,0.0,0.0,0.0,0.0,0.0,0.0,0.0,0.0,0.0,0.0,0.0,0.0,0.0,0.0,0.0,0.0,0.0,0.0,0.0,0.0,0.0,0.0,0.0,0.0,0.0,0.0,0.0,0.0,0.0,0.0,0.0,0.0,0.0,0.0,0.0,0.0,0.0,0.0,0.0,0.0,-2.6453,-2.8645,-3.0561,0.0,-3.2675,-3.29,-3.29,-3.139,-2.9748,-2.8103,0.0,0.0,0.0,0.0,0.0,0.0,0.0,0.0,0.0,0.0,0.0,0.0,0.0,0.0,0.0,0.0,0.0,0.0,0.0,0.0,0.0,0.0,0.0,0.0,0.0,0.0,0.0,0.0,0.0,0.0,0.0,0.0,0.0,0.0,0.0,0.0,0.0,0.0,0.0,0.0,0.0,0.0,0.0,0.0,0.0,0.0,0.0,0.0,0.0,0.0,0.0,0.0,0.0,0.0,0.0,0.0,0.0,0.0,0.0,0.0,0.0,0.0,0.0,0.0,0.0,0.0,0.0,0.0,0.0,0.0,0.0,0.0,0.0,0.0,0.0,0.0,0.0,0.0,0.0,0.0,0.0,0.0,0.0,0.0,0.0,0.0,0.0,0.0,0.0,0.0,0.0,0.0,0.0,0.0,0.0,0.0,0.0,0.0,0.0,0.0,0.0,0.0,-2.7888,-2.9701,-3.1294,-3.2852,-3.2932,-3.29,-3.29,-3.1421,-2.981,0.0,0.0,0.0,0.0,0.0,0.0,0.0,0.0,0.0,0.0,0.0,0.0,0.0,0.0,0.0,0.0,0.0,0.0,0.0,0.0,0.0,0.0,0.0,0.0,0.0,0.0,0.0,0.0,0.0,0.0,0.0,0.0,0.0,0.0,0.0,0.0,0.0,0.0,0.0,0.0,0.0,0.0,0.0,0.0,0.0,0.0,0.0,0.0,0.0,0.0,0.0,0.0,0.0,0.0,0.0,0.0,0.0,0.0,0.0,0.0,0.0,0.0,0.0,0.0,0.0,0.0,0.0,0.0,0.0,0.0,0.0,0.0,0.0,0.0,0.0,0.0,0.0,0.0,0.0,0.0,0.0,0.0,0.0,0.0,0.0,0.0,0.0,0.0,0.0,0.0,0.0,0.0,0.0,0.0,0.0,0.0,0.0,0.0,0.0,0.0,0.0,0.0,0.0,-2.7821,-2.9687,-3.1294,-3.2852,-3.2932,-3.29,-3.29,-3.1847,-3.0526,-2.895,0.0,0.0,0.0,0.0,0.0,0.0,0.0,0.0,0.0,0.0,0.0,0.0,0.0,0.0,0.0,0.0,0.0,0.0,0.0,0.0,0.0,0.0,0.0,0.0,0.0,0.0,0.0,0.0,0.0,0.0,0.0,0.0,0.0,0.0,0.0,0.0,0.0,0.0,0.0,0.0,0.0,0.0,0.0,0.0,0.0,0.0,0.0,0.0,0.0,0.0,0.0,0.0,0.0,0.0,0.0,0.0,0.0,0.0,0.0,0.0,0.0,0.0,0.0,0.0,0.0,0.0,0.0,0.0,0.0,0.0,0.0,0.0,0.0,0.0,0.0,0.0,0.0,0.0,0.0,0.0,0.0,0.0,0.0,0.0,0.0,0.0,0.0,0.0,0.0,0.0,0.0,0.0,0.0,0.0,0.0,0.0,0.0,0.0,0.0,0.0,0.0,0.0,-2.8194,-2.9765,-3.1183,-3.2787,-3.29,-3.287,-3.287,-3.2046,-3.0991,-2.9688,0.0,0.0,0.0,0.0,0.0,0.0,0.0,0.0,0.0,0.0,0.0,0.0,0.0,0.0,0.0,0.0,0.0,0.0,0.0,0.0,0.0,0.0,0.0,0.0,0.0,0.0,0.0,0.0,0.0,0.0,0.0,0.0,0.0,0.0,0.0,0.0,0.0,0.0,0.0,0.0,0.0,0.0,0.0,0.0,0.0,0.0,0.0,0.0,0.0,0.0,0.0,0.0,0.0,0.0,0.0,0.0,0.0,0.0,0.0,0.0,0.0,0.0,0.0,0.0,0.0,0.0,0.0,0.0,0.0,0.0,0.0,0.0,0.0,0.0,0.0,0.0,0.0,0.0,0.0,0.0,0.0,0.0,0.0,0.0,0.0,0.0,0.0,0.0,0.0,0.0,0.0,0.0,0.0,0.0,0.0,0.0,0.0,0.0,0.0,0.0,0.0,0.0,-2.8776,-2.9899,-3.1042,-3.2706,-3.2838,-3.2773,-3.2773,-3.2099,-3.1274,-3.0372,0.0,0.0,0.0,0.0,0.0,0.0,0.0,0.0,0.0,0.0,0.0,0.0,0.0,0.0,0.0,0.0,0.0,0.0,0.0,0.0,0.0,0.0,0.0,0.0,0.0,0.0,0.0,0.0,0.0,0.0,0.0,0.0,0.0,0.0,0.0,0.0,0.0,0.0,0.0,0.0,0.0,0.0,0.0,0.0,0.0,0.0,0.0,0.0,0.0,0.0,0.0,0.0,0.0,0.0,0.0,0.0,0.0,0.0,0.0,0.0,-2.952,0.0,0.0,0.0,0.0,0.0,0.0,0.0,0.0,0.0,0.0,0.0,0.0,0.0,0.0,0.0,0.0,0.0,0.0,0.0,0.0,0.0,0.0,0.0,0.0,0.0,0.0,0.0,0.0,0.0,0.0,0.0,0.0,0.0,0.0,0.0,0.0,0.0,0.0,0.0,0.0,0.0,-2.8776,-2.9854,-3.0967,-3.2645,-3.2706,-3.2639,-3.2639,-3.2449,-3.1957,-3.1131,0.0,0.0,0.0,0.0,0.0,0.0,0.0,0.0,0.0,0.0,0.0,0.0,0.0,0.0,0.0,0.0,0.0,0.0,0.0,0.0,0.0,0.0,0.0,0.0,0.0,0.0,0.0,0.0,0.0,0.0,0.0,0.0,0.0,0.0,0.0,0.0,0.0,0.0,0.0,0.0,0.0,0.0,0.0,0.0,0.0,0.0,0.0,0.0,0.0,0.0,0.0,0.0,0.0,0.0,0.0,0.0,0.0,0.0,0.0,0.0,0.0,-3.0705,0.0,0.0,0.0,0.0,0.0,0.0,0.0,0.0,0.0,0.0,0.0,0.0,0.0,0.0,0.0,0.0,0.0,0.0,0.0,0.0,0.0,0.0,0.0,0.0,0.0,0.0,0.0,0.0,0.0,0.0,0.0,0.0,0.0,0.0,0.0,0.0,0.0,0.0,0.0,0.0,-2.9261,-3.0296,-3.1264,-3.2534,-3.2557,-3.2473,-3.2404,-3.237,-3.216,-3.1705,-3.0987,0.0,0.0,0.0,0.0,0.0,0.0,0.0,0.0,0.0,0.0,0.0,0.0,0.0,0.0,0.0,0.0,0.0,0.0,0.0,0.0,0.0,0.0,0.0,0.0,0.0,0.0,0.0,0.0,0.0,0.0,0.0,0.0,0.0,0.0,0.0,0.0,0.0,0.0,0.0,0.0,0.0,0.0,0.0,0.0,0.0,0.0,0.0,0.0,0.0,0.0,0.0,0.0,0.0,0.0,-3.6225,-3.6753,-3.6864,-3.6717,-3.6331,-3.5129,-3.3584,-3.1916,0.0,0.0,0.0,0.0,0.0,0.0,0.0,0.0,0.0,0.0,0.0,0.0,0.0,0.0,0.0,0.0,0.0,0.0,0.0,0.0,0.0,0.0,0.0,0.0,0.0,-3.0508,-3.0654,0.0,0.0,0.0,0.0,0.0,0.0,0.0,0.0,0.0,0.0,0.0,0.0,-2.9967,-3.084,-3.1542,-3.2368,-3.2388,-3.2301,-3.2179,-3.2179,-3.2161,-3.209,-3.1637,-3.0971,0.0,0.0,0.0,0.0,0.0,0.0,0.0,0.0,0.0,0.0,0.0,0.0,0.0,0.0,0.0,0.0,0.0,0.0,0.0,0.0,0.0,0.0,0.0,0.0,0.0,0.0,0.0,0.0,0.0,0.0,0.0,0.0,-2.7737,-2.788,0.0,0.0,0.0,0.0,0.0,0.0,0.0,0.0,0.0,0.0,0.0,0.0,0.0,0.0,-3.5986,-3.6832,-3.7973,-3.9363,-3.9286,-3.9282,-3.9315,-3.9333,-3.885,-3.7996,-3.7838,0.0,-3.4379,-3.373,0.0,0.0,0.0,0.0,0.0,0.0,0.0,0.0,0.0,0.0,0.0,0.0,0.0,0.0,0.0,0.0,0.0,0.0,0.0,0.0,0.0,0.0,-3.0289,-3.2641,-3.3278,-3.3422,0.0,-3.2773,-3.1433,-2.9806,0.0,0.0,0.0,0.0,0.0,0.0,0.0,0.0,-3.0641,-3.0957,-3.1289,-3.2162,-3.2179,-3.2126,-3.2108,-3.2108,-3.2108,-3.209,-3.2039,-3.1655,-3.0956,-2.9468,0.0,0.0,0.0,0.0,0.0,0.0,0.0,0.0,0.0,0.0,0.0,0.0,0.0,0.0,0.0,0.0,0.0,0.0,0.0,0.0,0.0,0.0,0.0,0.0,0.0,0.0,0.0,0.0,0.0,-2.7694,-2.9013,-2.9929,-3.0365,-3.0439,0.0,0.0,0.0,0.0,0.0,0.0,0.0,0.0,0.0,-3.4749,-3.7025,-3.8344,-3.8571,-3.9302,-3.9989,-4.0627,-4.0595,-4.0531,-4.0467,-4.0516,-3.9977,-3.9044,-3.9126,-3.83,-3.6821,-3.6073,-3.4792,-3.3237,0.0,0.0,0.0,0.0,0.0,-3.0224,-3.1021,-3.1297,0.0,0.0,0.0,0.0,0.0,0.0,0.0,0.0,0.0,0.0,0.0,0.0,0.0,-3.3899,-3.4514,-3.4824,-3.5063,-3.4976,-3.4279,0.0,-3.1533,-3.0608,-2.8817,0.0,0.0,0.0,0.0,0.0,-3.1359,-3.2316,-3.2838,-3.2716,-3.2679,-3.2452,-3.1981,-3.1929,-3.1929,-3.1929,-3.2054,-3.1969,-3.1673,-3.0724,-2.9792,0.0,0.0,0.0,0.0,0.0,0.0,0.0,0.0,0.0,0.0,0.0,0.0,0.0,0.0,0.0,0.0,0.0,0.0,0.0,0.0,0.0,0.0,0.0,0.0,0.0,0.0,0.0,0.0,-2.9364,-3.0694,-3.2151,-3.2692,-3.284,0.0,0.0,0.0,0.0,0.0,0.0,-3.5835,-3.7129,-3.7791,-3.774,-3.9565,-4.0604,-4.072,-4.122,-4.1562,-4.1717,-4.1717,-4.1592,-4.1341,-4.139,-4.0883,-3.9947,-4.005,-3.9561,-3.8603,-3.7664,-3.6547,-3.5436,-3.5297,-3.4432,-3.333,-3.3906,-3.3698,-3.3223,-3.381,-3.4009,-3.4009,-3.4009,0.0,-3.3176,-3.1963,0.0,0.0,0.0,0.0,-3.1193,-3.2192,0.0,-3.4209,-3.502,-3.5537,-3.5817,-3.5814,-3.6246,-3.6107,0.0,-3.3416,-3.2509,-3.1079,0.0,0.0,0.0,0.0,-3.1598,-3.236,-3.3559,-3.4081,-3.3434,-3.3365,-3.3085,-3.2439,-3.2196,-3.2076,-3.2076,-3.2033,-3.2054,-3.209,-3.1581,-3.0891,-3.0104,0.0,0.0,0.0,0.0,0.0,0.0,0.0,0.0,0.0,0.0,0.0,0.0,0.0,0.0,0.0,0.0,0.0,0.0,0.0,0.0,0.0,0.0,0.0,0.0,0.0,0.0,0.0,0.0,0.0,-3.389,-3.5376,0.0,0.0,0.0,0.0,-3.7148,-3.7062,-3.763,-3.917,-3.9933,-4.0328,-4.0309,-4.093,-4.1606,-4.2366,-4.2277,-4.2616,-4.3386,-4.3386,-4.2983,-4.2231,-4.2249,-4.1759,-4.0924,-4.0941,-4.0366,-3.934,-3.7822,-3.7174,-3.7089,-3.6261,-3.5929,-3.5901,-3.5806,-3.576,-3.5708,-3.569,-3.5677,-3.5677,-3.5677,-3.5024,-3.4167,-3.3851,-3.3097,0.0,0.0,-3.3319,-3.3687,-3.5179,-3.5617,-3.588,-3.6691,-3.6821,-3.6716,-3.6652,-3.6568,-3.6301,0.0,-3.5362,-3.484,-3.3307,0.0,-3.2864,-3.2863,-3.2822,-3.3076,-3.3889,-3.4061,-3.4096,-3.4044,-3.4044,-3.4027,-3.3992,-3.3283,-3.2852,-3.2852,-3.2198,-3.191,-3.209,-3.1532,-3.091,-3.0294,-2.8732,0.0,0.0,0.0,0.0,0.0,0.0,0.0,0.0,0.0,0.0,0.0,0.0,0.0,0.0,0.0,0.0,0.0,0.0,0.0,0.0,0.0,0.0,0.0,0.0,0.0,0.0,0.0,0.0,-3.6316,-3.7539,0.0,0.0,-3.8466,-3.8813,-3.9756,-3.9671,-3.999,-4.0916,-4.1666,-4.2013,-4.1987,-4.2631,-4.3109,-4.3405,-4.331,-4.3358,-4.3565,-4.3565,-4.3384,-4.3057,-4.3057,-4.2618,-4.1832,-4.1782,-4.124,-4.0283,-3.9701,-3.8864,-3.7931,-3.77,-3.7603,-3.7572,-3.7528,-3.7465,-3.7419,-3.7374,-3.7341,-3.7324,-3.7191,-3.6481,-3.5629,-3.5491,-3.4783,-3.4058,-3.4305,-3.4673,-3.5109,-3.5652,-3.6103,-3.6519,-3.6799,-3.6788,-3.6705,-3.6602,-3.6523,-3.6416,-3.608,-3.5671,-3.5211,-3.4768,-3.4187,-3.38,-3.3817,-3.4118,-3.4473,-3.4766,-3.5214,-3.5318,-3.4872,-3.48,-3.4631,-3.4148,-3.3352,-3.2904,-3.2904,-3.2252,-3.1947,-3.209,-3.1514,-3.1121,-3.0935,-2.9478,-2.7847,0.0,0.0,0.0,0.0,0.0,0.0,0.0,0.0,0.0,0.0,0.0,0.0,0.0,0.0,0.0,0.0,0.0,0.0,0.0,0.0,0.0,0.0,0.0,0.0,0.0,0.0,-3.6516,-3.8473,-3.9674,-4.0565,-4.1092,-4.1065,-4.1267,-4.1901,-4.18,-4.1987,-4.2642,-4.3117,-4.3357,-4.3316,-4.3714,-4.3929,-4.3929,-4.3835,-4.3771,-4.3667,-4.3615,-4.3565,-4.3531,-4.3515,-4.3221,-4.2708,-4.2657,-4.2078,-4.1191,-4.1175,-4.0305,-3.9037,-3.8895,-3.867,-3.8399,-3.8385,-3.8338,-3.829,-3.8207,-3.8209,-3.8175,-3.7969,-3.7452,-3.6863,-3.6683,-3.6182,-3.5629,-3.5574,-3.5868,-3.6197,-3.6197,-3.6525,-3.6869,-3.6869,-3.6788,-3.6705,-3.6626,-3.6564,-3.6464,-3.6364,-3.597,-3.5665,-3.5763,-3.529,-3.4901,-3.4901,-3.529,-3.5559,-3.5559,-3.6008,-3.6111,-3.5611,-3.5559,-3.537,-3.4869,-3.3886,-3.33,-3.33,-3.2391,-3.1947,-3.209,-3.1497,-3.1088,-3.0921,-2.917,-2.764,-2.6356,0.0,0.0,0.0,0.0,0.0,0.0,0.0,0.0,0.0,0.0,0.0,0.0,0.0,0.0,0.0,0.0,0.0,0.0,0.0,0.0,0.0,0.0,0.0,-3.4244,-3.7067,-3.9456,-4.0307,-4.1848,-4.2852,-4.2881,-4.2752,-4.2946,-4.3599,-4.3467,-4.3641,-4.4374,-4.4344,-4.43,-4.43,-4.4097,-4.4005,-4.4005,-4.3883,-4.3804,-4.3804,-4.3667,-4.3599,-4.3599,-4.3531,-4.3496,-4.3515,-4.3515,-4.2952,-4.2047,-4.2047,-4.145,-4.0474,-3.9764,-3.9066,-3.8419,-3.834,-3.8307,-3.829,-3.8207,-3.8209,-3.8175,-3.7951,-3.7917,-3.7811,-3.741,-3.7297,-3.7259,-3.7066,-3.7007,-3.7007,-3.7007,-3.7007,-3.7007,-3.7007,-3.6908,-3.6809,-3.6809,-3.6647,-3.6523,-3.6502,-3.6402,-3.6301,-3.6301,-3.6301,-3.6301,-3.6301,-3.6301,0.0,-3.6301,-3.6301,-3.6301,-3.6301,-3.6301,-3.6301,-3.6301,-3.4938,-3.4113,-3.4113,-3.2645,-3.1892,-3.209,-3.1446,-3.0811,-3.02,-2.7836,-2.6472,-2.6174,0.0,0.0,0.0,0.0,0.0,0.0,0.0,0.0,0.0,0.0,0.0,0.0,0.0,0.0,0.0,0.0,0.0,0.0,0.0,0.0,0.0,0.0,-3.7644,-3.7644,-3.8995,-4.0729,-4.2737,-4.3386,-4.3921,-4.4553,-4.4486,-4.446,-4.4607,-4.443,-4.4361,-4.4468,-4.4416,-4.4358,-4.43,-4.4255,-4.4177,-4.4153,-4.4107,-4.4029,-4.3883,-4.3832,-4.3751,-4.3599,-4.3582,-4.3566,-4.3515,-4.3515,-4.3317,-4.3011,-4.2922,-4.2341,-4.1379,-4.0034,-3.9379,-3.9122,-3.8507,-3.8274,-3.8207,-3.8209,-3.814,-3.8036,-3.7934,-3.7811,-3.7631,-3.7372,-3.7222,-3.7127,-3.7029,-3.7007,-3.7007,-3.7007,-3.7007,-3.7007,-3.7007,-3.6968,-3.6928,-3.6829,-3.6768,-3.6708,-3.6643,-3.6623,-3.6523,-3.6322,-3.6301,-3.6301,-3.6301,-3.6301,0.0,-3.6301,-3.6301,-3.6301,-3.6301,-3.6301,-3.6301,-3.6301,-3.4938,-3.4113,0.0,-3.2645,-3.1892,-3.209,-3.1307,-3.0576,-2.9909,-2.8121,-2.7371,0.0,0.0,0.0,0.0,0.0,0.0,0.0,0.0,0.0,0.0,0.0,0.0,0.0,0.0,0.0,0.0,0.0,0.0,0.0,0.0,0.0,0.0,-3.8061,-3.9898,-4.095,-4.1533,-4.2384,-4.3834,-4.4312,-4.4743,-4.525,-4.5181,-4.5061,-4.501,-4.4808,-4.4659,-4.4556,-4.4487,-4.4411,-4.4387,-4.4358,-4.4314,-4.4244,-4.4214,-4.4104,-4.3945,-4.3913,-4.3832,-4.3716,-4.3632,-4.3582,0.0,-4.3496,-4.3463,-4.3394,-4.3323,-4.2941,0.0,0.0,0.0,0.0,0.0,-3.8931,-3.9115,-3.8808,-3.8647,-3.8577,-3.8455,-3.8097,-3.7685,-3.7428,-3.726,-3.7164,-3.7068,-3.7009,-3.7007,-3.7007,-3.7007,-3.7007,-3.7007,-3.7007,-3.6987,-3.6908,-3.6849,-3.6788,-3.6745,0.0,0.0,-3.6502,-3.6482,-3.6482,-3.6482,-3.6482,-3.6482,0.0,-3.6423,-3.6364,-3.6364,-3.6322,-3.6301,-3.6301,-3.5232,0.0,0.0,0.0,-3.2046,-3.1567,-3.1098,0.0,0.0,0.0,-2.8519,0.0,0.0,0.0,0.0,-2.5828,-2.5698,0.0,0.0,0.0,0.0,0.0,0.0,0.0,0.0,0.0,0.0,0.0,0.0,0.0,0.0,0.0,0.0,-4.0024,-4.1485,-4.3682,-4.4083,-4.414,-4.414,-4.4838,-4.5307,-4.5307,-4.5181,-4.508,-4.5022,-4.4827,-4.4672,-4.4619,0.0,0.0,0.0,0.0,-4.4368,-4.4314,-4.4259,-4.415,-4.402,-4.3961,-4.3913,-4.3881,-4.3718,-4.3599,-4.3599,-4.3513,-4.3481,-4.3412,-4.3412,-4.3287,-4.3013,-4.2068,-4.1216,-4.042,-3.9767,-3.9948,0.0,0.0,0.0,0.0,-3.9194,-3.8618,-3.7936,-3.7521,-3.7354,-3.7278,-3.7147,-3.7068,-3.7009,-3.7009,-3.7007,-3.7007,-3.7007,-3.7007,-3.7007,-3.7007,-3.6908,-3.6811,-3.6811,-3.6768,-3.6725,-3.6725,-3.6722,-3.6702,-3.6702,-3.6702,-3.6702,-3.6702,-3.6602,-3.6523,-3.6502,0.0,0.0,-3.6301,-3.5611,-3.4887,-3.4165,-3.3285,-3.2235,-3.0993,-3.0907,-3.056,-2.9851,-2.9833,-2.9816,-2.9782,-2.9952,-2.9969,-2.9782,-2.8715,-2.8149,0.0,0.0,0.0,0.0,0.0,0.0,0.0,0.0,0.0,0.0,0.0,0.0,0.0,0.0,0.0,-3.9748,-4.1828,-4.3452,-4.393,-4.4609,-4.5048,-4.5048,-4.5201,-4.5307,-4.5307,-4.5181,-4.5084,-4.5091,-4.4833,-4.468,-4.4685,-4.4584,0.0,-4.4501,-4.4487,-4.4458,-4.4368,-4.4373,-4.43,-4.4169,0.0,0.0,-4.3915,-4.3802,-4.3703,-4.3599,-4.3513,-4.3497,-4.348,-4.3411,-4.3287,-4.3013,-4.2068,-4.1216,-4.0474,-4.0329,-4.0383,-4.0474,-4.0329,-4.0257,-4.0095,-3.9337,-3.8923,-3.8527,-3.7681,-3.7392,0.0,-3.7279,-3.7184,-3.7089,-3.7089,-3.7048,-3.7007,-3.7007,-3.7007,-3.7007,-3.7007,-3.6987,-3.6968,-3.6968,-3.6948,-3.6948,-3.6948,-3.6806,-3.6702,-3.6702,-3.6702,-3.6702,-3.6702,-3.6681,-3.6623,-3.6523,-3.6482,-3.6423,-3.6301,-3.5611,-3.4887,-3.4165,-3.2935,-3.2071,-3.1704,-3.1185,-3.1046,-3.137,-3.0854,-3.0872,-3.1443,-3.1585,-3.1638,-3.1568,-3.0664,-3.0108,0.0,0.0,0.0,0.0,0.0,0.0,0.0,0.0,0.0,0.0,0.0,-3.4649,0.0,0.0,-3.9403,-4.1128,-4.2494,-4.3642,-4.4522,-4.5029,-4.5307,-4.5307,-4.5307,-4.5286,-4.5246,-4.5159,-4.5091,-4.5038,-4.4821,-4.4712,-4.4712,-4.4565,-4.4501,-4.4501,-4.4501,-4.4473,-4.4397,-4.4397,-4.4358,-4.4259,-4.4214,-4.4153,-4.4042,-4.3899,-4.3802,-4.3684,-4.36,-4.3513,-4.3479,-4.3429,-4.3341,-4.3178,-4.2632,-4.2104,-4.1651,-4.1252,-4.1361,-4.1651,-4.1234,-4.1053,-4.0852,-3.9986,-3.9336,-3.8724,-3.7772,-3.7466,-3.7392,-3.7354,-3.7279,-3.7166,-3.7127,-3.7069,-3.7048,-3.7007,-3.7007,-3.7007,-3.7007,-3.7007,-3.7007,-3.7007,-3.7007,-3.7007,-3.7007,-3.6908,-3.6846,-3.6846,-3.6846,-3.6846,-3.6846,-3.6786,-3.6705,-3.6623,-3.6544,-3.6444,-3.6322,-3.569,-3.5143,-3.478,-3.3498,-3.2701,-3.2558,-3.1864,-3.1637,-3.1947,-3.1619,-3.1672,-3.2144,-3.2214,-3.2267,-3.2301,-3.1812,-3.1445,0.0,0.0,0.0,0.0,0.0,0.0,0.0,0.0,-3.4432,-3.4596,-3.5721,-3.6909,-3.7611,-3.8581,-3.9998,-4.2248,-4.2787,-4.3488,-4.5086,-4.5307,-4.5307,-4.5307,-4.5307,-4.5256,-4.5203,-4.5148,-4.508,-4.4998,-4.4815,-4.468,-4.4685,-4.4584,-4.4501,-4.4501,-4.4501,-4.4468,-4.4411,-4.4411,-4.4401,-4.4314,-4.4255,-4.4229,-4.4184,-4.4011,-4.3883,-4.382,-4.3684,-4.3582,-4.3515,-4.3464,-4.3411,-4.3394,-4.3215,-4.3086,-4.2884,-4.2176,-4.2339,-4.281,-4.2158,-4.1884,-4.1665,-4.0634,-3.9768,-3.8939,-3.7899,-3.7522,-3.7448,-3.7448,-3.7373,-3.7279,-3.7185,-3.7127,-3.7089,-3.7029,-3.7009,-3.7007,-3.7007,-3.7007,-3.7007,-3.7007,-3.7007,-3.7007,-3.7007,-3.7007,-3.7007,-3.7007,-3.7007,-3.7007,-3.7007,-3.6908,-3.6809,-3.6725,-3.6623,-3.6464,-3.6322,-3.5748,-3.5414,-3.5454,-3.4325,-3.3613,-3.3523,-3.279,-3.237,-3.237,-3.2231,-3.2249,-3.2422,-3.244,-3.2456,-3.2507,-3.244,-3.2249,-3.0028,-3.073,-3.1682,-3.3371,-3.3801,-3.4246,0.0,0.0,-3.6316,-3.7033,-3.7841,-3.8454,-3.8548,-3.9908,-4.1366,-4.2438,-4.3253,-4.4118,-4.5163,-4.5307,-4.5307,-4.5307,-4.5307,-4.5256,-4.5203,-4.5148,-4.5057,-4.4919,-4.477,-4.4672,-4.4619,-4.4537,-4.4501,-4.4501,-4.4501,-4.4501,-4.4501,-4.4501,-4.4458,-4.4383,-4.4368,-4.4314,-4.4184,-4.4055,-4.3942,-4.3881,-4.3802,-4.3719,-4.3582,-4.3565,-4.3497,-4.3394,-4.3376,-4.3287,-4.3142,-4.2867,-4.2829,-4.2901,-4.2792,-4.2717,-4.2405,-4.0833,-4.0163,-3.9674,-3.8096,-3.7577,-3.7577,-3.7577,-3.7485,-3.7392,-3.7355,-3.7242,-3.7108,-3.7089,-3.7048,-3.7007,-3.7007,-3.7007,-3.7007,-3.7007,-3.7007,-3.7007,-3.7007,-3.7007,-3.7007,-3.7007,-3.7007,-3.7007,-3.7007,-3.6987,-3.6928,-3.6809,-3.6725,-3.6582,-3.6322,-3.5748,-3.5474,-3.5671,-3.4964,-3.4566,-3.4622,-3.3793,-3.3336,-3.3336,-3.2704,-3.2405,-3.249,-3.2557,-3.2557,-3.2507,-3.249,-3.237,-3.0983,-3.2503,-3.4026,0.0,-3.5575,-3.6442,-3.7135,-3.7587,-3.7927,-3.8233,-3.8915,-3.9442,-3.9399,-4.003,-4.0986,0.0,-4.2929,-4.3698,-4.5105,-4.5307,-4.5317,-4.5348,-4.5317,-4.5265,-4.5159,-4.5125,-4.5033,-4.4846,-4.4745,-4.4672,-4.4605,-4.4542,-4.4501,-4.4501,-4.4501,-4.4501,-4.4501,-4.4501,-4.4487,-4.4473,-4.4411,-4.4368,-4.4314,-4.418,-4.4042,-4.3915,-4.3837,-4.3771,-4.3719,-4.3634,-4.3566,-4.3497,-4.3429,-4.3376,-4.3305,-4.3123,-4.305,-4.303,-4.303,-4.2918,-4.2531,-4.0851,-4.0217,-3.9799,-3.8114,-3.7595,-3.7595,-3.7595,-3.7558,-3.7503,-3.7429,-3.7337,-3.7242,-3.7127,-3.7089,-3.7048,-3.7009,-3.7007,-3.7007,-3.7007,-3.7007,-3.7007,-3.7007,-3.7007,-3.7007,-3.7007,-3.7007,-3.7009,-3.705,-3.7029,-3.6928,-3.6766,-3.6643,-3.6544,-3.6423,-3.6266,-3.6255,-3.6455,-3.5832,-3.5504,-3.5561,-3.4711,-3.4076,-3.367,-3.3318,-3.3,-3.2674,-3.2622,-3.264,-3.2674,-3.254,-3.2439,-3.2116,-3.4013,0.0,-3.6573,-3.7795,-3.8816,-3.8816,-3.9231,-3.9519,-3.9252,-3.964,-3.995,-3.965,-3.9834,-4.0456,-4.1736,-4.2368,-4.3221,-4.4743,-4.5144,-4.5222,-4.5052,-4.5175,-4.5074,-4.4489,-4.4847,-4.5014,-4.4833,-4.4751,-4.4672,-4.4605,-4.4542,-4.4501,-4.4501,-4.4501,-4.4501,-4.4501,-4.4501,-4.4501,-4.4501,-4.444,-4.4411,-4.4397,-4.4274,-4.4089,-4.3929,-4.3883,-4.3835,-4.3818,-4.3718,-4.3649,-4.3582,-4.348,-4.3446,-4.3411,-4.3322,-4.3214,-4.3123,-4.3104,-4.3011,-4.2607,-4.0888,-4.0254,-3.9837,-3.815,-3.7613,-3.7595,-3.7595,-3.7595,-3.7577,-3.7485,-3.7429,-3.7355,-3.7223,-3.7166,-3.7127,-3.7048,-3.7029,-3.7029,-3.6989,-3.7007,-3.7007,-3.7007,-3.7007,-3.7007,-3.7029,-3.7029,-3.7048,-3.7089,-3.7068,-3.695,-3.6806,-3.6667,-3.6585,-3.6544,-3.6664,-3.6809,-3.7009,-3.6615,-3.6428,-3.654,-3.551,-3.4729,-3.4282,-3.3737,-3.3275,-3.2854,-3.2755,-3.2739,-3.2807,-3.2658,-3.254,-3.368,0.0,-3.7132,-3.955,-4.0768,-4.139,-4.139,-4.1341,-4.1111,-4.0329,-4.0128,-3.984,-3.9003,-3.9536,-4.0146,-4.0243,-4.1636,-4.3011,-4.3911,-4.4762,-4.4991,-4.414,-4.4781,-4.4626,0.0,-4.4184,-4.5038,-4.4907,-4.477,-4.4672,-4.4605,-4.4542,-4.4501,-4.4501,-4.4501,-4.4501,-4.4501,-4.4501,-4.4501,-4.4501,-4.4501,-4.4454,-4.4397,-4.4274,-4.4119,-4.4005,-4.3989,-4.3961,-4.3915,-4.3881,-4.3783,-4.3599,-4.36,-4.3548,-4.3497,-4.3479,-4.3375,-4.3196,-4.3105,-4.3086,-4.2795,-4.098,-4.0347,-3.9985,-3.8223,-3.7649,-3.7595,-3.7595,-3.7595,-3.7595,-3.7595,-3.7503,-3.7411,-3.7392,-3.7336,-3.7259,-3.7127,-3.7108,-3.7069,-3.7009,-3.7007,-3.7007,-3.7007,-3.7007,-3.7029,-3.7089,-3.7108,-3.7108,-3.7108,-3.7108,-3.7069,-3.7007,-3.6869,-3.6768,-3.6702,-3.6748,-3.6891,-3.7089,-3.7262,-3.7449,-3.765,-3.613,-3.5341,-3.5439,-3.3802,-3.2952,-3.2979,-3.2979,-3.2934,-3.2807,-3.2789,-3.2691,-3.4686,0.0,-3.9272,-4.0096,-4.1342,-4.2354,-4.2354,-4.1925,-4.1447,-4.1132,-4.0158,-3.9271,-3.8937,-3.9099,-3.9509,-4.0101,-4.1637,-4.306,-4.3873,-4.4743,-4.5203,-4.4966,-4.5156,0.0,0.0,0.0,0.0,-4.4149,-4.4525,-4.4725,-4.4605,-4.4578,-4.4556,-4.4501,-4.4501,-4.4501,-4.4501,-4.4501,-4.4501,-4.4501,-4.4501,-4.4444,-4.4329,-4.4285,-4.418,-4.4005,-4.4005,-4.3989,-4.3958,-4.3913,-4.3816,-4.3719,-4.3615,-4.3548,-4.3515,-4.3515,-4.3463,-4.3393,-4.3323,-4.2868,-4.2105,-4.0854,-4.0059,-3.9337,-3.808,-3.7685,-3.7667,-3.7613,-3.7595,-3.7595,-3.7595,-3.7576,-3.7503,-3.7429,-3.7392,-3.7336,-3.7241,-3.7147,-3.7089,-3.7069,-3.7029,-3.7007,-3.7007,-3.7007,-3.7068,-3.7261,-3.7374,-3.7392,-3.7241,-3.7354,-3.7354,-3.7089,-3.6989,-3.6928,-3.6888,-3.6928,-3.7009,-3.7203,-3.7411,-3.7595,-3.7703,-3.6753,-3.6015,-3.5509,-3.4401,-3.3546,-3.2995,-3.2995,-3.2948,-3.287,-3.2821,-3.2724,-3.5947,-3.8463,-4.0891,-4.1485,-4.2661,-4.3539,-4.2947,-4.2393,-4.1771,-4.0835,-3.9784,-3.8838,-3.8181,-3.8277,-3.8641,-3.9213,-4.0769,-4.2297,-4.3414,-4.4303,-4.4848,-4.4889,-4.5116,0.0,0.0,0.0,0.0,-4.4211,-4.4562,-4.4757,-4.4685,-4.4619,-4.4578,-4.4542,-4.4515,-4.4501,-4.4501,-4.4501,-4.4501,-4.4501,-4.4501,-4.4444,-4.4344,-4.4314,-4.4226,-4.407,-4.402,-4.4005,-4.4005,-4.3942,-4.3899,-4.3818,-4.3701,-4.3617,-4.3531,-4.3515,-4.3515,-4.3497,-4.3411,-4.2757,-4.1777,-4.0871,-3.9949,-3.903,-3.8079,-3.7757,-3.7685,-3.7649,-3.7613,-3.7595,-3.7595,-3.7595,-3.7577,-3.7485,-3.7466,-3.7448,-3.7372,-3.7279,-3.7204,-3.7184,-3.7106,-3.7048,-3.7048,-3.7085,-3.7182,-3.7336,-3.7558,-3.7667,-3.7521,-3.7594,-3.754,-3.7299,-3.7203,-3.7126,-3.7105,-3.7105,-3.7201,-3.7391,-3.754,-3.756,-3.7397,-3.6711,-3.5987,-3.5193,-3.4351,-3.3671,-3.3106,-3.3057,-3.3011,-3.2932,-3.287,-3.2789,-3.7494,-3.9753,-4.2049,-4.3615,-4.4628,-4.4819,-4.3233,-4.2766,-4.201,-3.9656,-3.9033,-3.8429,0.0,0.0,-3.7597,-3.7693,-3.9164,-4.0874,-4.2507,-4.3452,-4.4006,0.0,0.0,0.0,0.0,0.0,0.0,-4.501,0.0,-4.4796,-4.4796,-4.4685,-4.4605,-4.4592,-4.4542,-4.4501,-4.4501,-4.4501,-4.4501,-4.4501,-4.4501,-4.4454,-4.4397,-4.4329,-4.4255,-4.4184,-4.407,-4.4005,-4.4005,-4.4005,-4.3958,-4.3881,-4.3837,-4.3719,-4.3582,-4.3513,-4.3515,-4.3497,-4.3392,-4.272,-4.181,-4.0976,-4.0002,-3.9012,-3.8235,-3.7862,-3.7721,-3.7703,-3.7649,-3.7595,-3.7595,-3.7595,-3.7595,-3.7595,-3.7595,-3.7576,-3.7448,-3.7393,-3.7373,-3.7316,-3.7203,-3.7108,-3.7108,-3.7222,-3.7297,-3.7316,-3.7649,-3.7899,-3.7881,-3.7792,-3.7685,-3.7613,-3.7503,-3.7392,-3.7334,-3.7316,-3.741,-3.7595,-3.765,-3.7397,-3.6813,-3.6051,-3.5304,-3.4609,-3.3753,-3.3292,-3.331,-3.3165,-3.3055,-3.2995,-3.2932,-3.287,-3.9216,-4.1045,-4.2727,-4.3749,-4.4159,-4.4237,-4.3857,-4.2345,-4.0839,-4.0268,-3.8131,-3.6381,0.0,0.0,0.0,-3.7502,-3.9164,0.0,-4.1686,-4.308,0.0,-4.3925,0.0,-4.4987,-4.446,-4.4767,0.0,0.0,-4.4883,-4.4846,-4.4796,-4.4776,-4.4712,-4.4605,-4.4578,-4.4537,-4.4501,-4.4501,-4.4501,-4.4501,-4.4501,-4.4454,-4.4397,-4.4329,-4.4255,-4.4184,-4.407,-4.4005,-4.4005,-4.4005,-4.3958,-4.3881,-4.3837,-4.3719,-4.3582,-4.3513,-4.3515,-4.3406,-4.2801,-4.1931,-4.108,-4.0845,-3.9724,-3.8411,-3.809,-3.7966,-3.7897,-3.7739,-3.7685,-3.7649,-3.7613,-3.7595,-3.7595,-3.7595,-3.7595,-3.7577,-3.7558,-3.7466,-3.7392,-3.7373,-3.7316,-3.7259,-3.7259,-3.7317,-3.7429,-3.7577,-3.781,-3.7915,-3.7775,-3.7845,-3.7898,-3.7828,-3.7703,-3.7613,-3.7595,-3.7595,-3.7613,-3.7667,-3.7271,-3.696,-3.6812,-3.5559,-3.479,-3.4606,-3.378,-3.3352,-3.331,-3.3262,-3.3152,-3.2995,-3.2979,-3.2918,-3.9946,-4.1514,-4.2908,-4.3367,-4.3759,-4.377,-4.269,-4.1117,-3.9558,-3.8477,-3.642,0.0,0.0,0.0,0.0,0.0,0.0,0.0,-4.0711,-4.2323,-4.3514,0.0,-4.4611,0.0,-4.5022,-4.4967,-4.4931,0.0,-4.4895,-4.487,-4.4852,-4.4827,-4.4745,-4.4646,-4.4619,-4.4565,-4.4501,-4.4501,-4.4501,-4.4501,-4.4501,-4.4487,-4.4426,-4.4368,-4.43,-4.4244,0.0,-4.4036,-4.4005,-4.4005,-4.3974,-4.3945,-4.3853,-4.3753,-4.3667,-4.3549,-4.3277,-4.291,-4.2451,-4.1451,-4.0364,-4.0277,-3.934,-3.8192,-3.8105,-3.8053,-3.7984,-3.7862,-3.7774,-3.7685,-3.7649,-3.7613,-3.7595,-3.7595,-3.7595,-3.7595,-3.7595,-3.7558,-3.7522,-3.7522,-3.7466,-3.741,-3.7336,-3.7411,-3.7522,-3.7649,-3.788,-3.8,-3.7879,-3.8036,-3.8087,-3.7984,-3.788,-3.7684,-3.729,-3.7254,-3.7128,-3.6804,-3.6474,-3.6143,-3.5851,-3.5046,-3.4443,-3.4081,-3.3628,-3.3382,-3.3337,-3.3307,-3.3232,-3.3122,-3.3044,-3.2965,-4.0243,-4.1514,-4.266,-4.2766,-4.3292,-4.3159,-4.0861,-3.9561,-3.8216,-3.5893,0.0,-3.3559,-3.2919,-3.3364,-3.4124,-3.5056,0.0,-3.8204,-3.9718,-4.1383,-4.2762,-4.3618,-4.438,-4.4877,-4.4979,-4.4931,-4.4895,-4.4895,-4.4895,-4.4895,-4.4895,-4.4833,-4.4776,-4.4699,-4.4619,-4.4551,-4.4501,-4.4501,-4.4501,-4.4501,-4.4501,-4.4501,-4.4501,-4.4426,-4.4373,-4.4314,0.0,0.0,-4.402,-4.4005,-4.4005,-4.3989,-4.3867,-4.3804,-4.3788,-4.3583,-4.3001,-4.2286,-4.2176,-4.1101,-3.9774,-3.9637,-3.8976,-3.8209,-3.8209,-3.8122,-3.8018,-3.8001,-3.788,-3.7739,-3.7721,-3.7667,-3.7613,-3.7613,-3.7613,-3.7595,-3.7595,-3.7649,-3.7703,-3.7721,-3.7685,-3.7595,-3.7485,-3.7558,-3.7631,-3.7649,-3.7915,-3.8136,-3.8135,-3.8238,-3.8272,-3.8152,-3.7977,-3.7602,-3.6816,-3.6672,-3.6328,-3.569,-3.5546,-3.5216,-3.4609,-3.4516,-3.4117,-3.3411,-3.3393,-3.3393,-3.3393,-3.3337,-3.3307,-3.331,-3.3106,-3.3011,-4.1074,-4.1495,-4.1887,-4.2623,-4.2403,-4.1761,-4.0709,-3.8743,0.0,0.0,-3.3647,-3.2192,-3.2708,-3.2817,-3.3369,-3.4933,0.0,0.0,0.0,0.0,-4.1895,0.0,0.0,0.0,0.0,0.0,0.0,0.0,0.0,0.0,-4.4895,-4.4833,-4.4732,-4.4619,-4.4551,-4.4515,-4.4501,-4.4501,-4.4501,-4.4501,-4.4501,-4.4501,-4.4501,-4.4426,-4.4383,-4.4387,0.0,0.0,-4.4169,-4.4055,-4.4005,-4.3989,-4.3913,-4.3851,-4.3788,-4.3634,-4.3034,-4.2194,-4.1535,-4.0643,-3.9774,-3.9637,-3.901,-3.8274,-3.8225,-3.8174,-3.814,-3.8036,-3.7966,-3.795,-3.7881,-3.7775,-3.7685,-3.7685,-3.7649,-3.7595,-3.7595,-3.7649,-3.7721,-3.7846,-3.7864,-3.7846,-3.7828,-3.7828,-3.7863,-3.7915,-3.8121,-3.8289,-3.8334,-3.8366,-3.8366,-3.835,-3.7751,-3.7283,-3.7121,-3.6487,-3.6038,-3.5864,-3.5211,-3.4779,-3.4624,-3.3954,-3.3538,-3.3393,-3.3393,-3.3393,-3.3393,-3.3396,-3.3352,-3.331,-3.315,-3.3057,-4.0654,-4.1208,-4.1542,-4.1503,-4.1262,-4.0692,-3.9429,0.0,0.0,0.0,-3.2487,-3.1085,-3.143,0.0,0.0,0.0,0.0,0.0,0.0,0.0,0.0,0.0,0.0,0.0,0.0,0.0,0.0,0.0,0.0,0.0,-4.4895,-4.4796,-4.4725,-4.4659,-4.4551,-4.4501,-4.4501,-4.4501,-4.4501,-4.4501,-4.4501,-4.4501,-4.4501,-4.4473,-4.4426,-4.4397,-4.4285,0.0,-4.4184,-4.4055,-4.4005,-4.3989,-4.3929,-4.3883,-4.3835,-4.3667,-4.2809,-4.1656,-4.124,-4.029,-3.9216,-3.9081,-3.8727,-3.8338,-3.8274,-3.8241,-3.8224,-3.8122,-3.8053,-3.7984,-3.795,-3.7881,-3.7792,-3.7792,-3.7775,-3.7775,-3.7775,-3.781,-3.7898,-3.8038,-3.7985,-3.7933,-3.7933,-3.7933,-3.795,-3.8002,-3.8204,-3.8352,-3.8401,-3.8131,-3.8071,-3.8407,-3.7703,-3.7033,-3.6614,-3.5833,-3.518,-3.4717,-3.435,-3.4087,-3.4032,-3.3669,-3.3437,-3.3393,-3.3393,-3.3393,-3.3393,-3.3393,-3.3367,-3.331,-3.3165,-3.3055,-3.9869,-4.0691,-4.1177,-4.0506,-4.0279,-3.9772,-3.8051,-3.5879,0.0,0.0,-3.1472,-3.0386,-3.0311,0.0,-3.1627,0.0,0.0,0.0,0.0,0.0,0.0,0.0,0.0,0.0,0.0,0.0,0.0,0.0,0.0,0.0,-4.4889,-4.4789,-4.4712,-4.4685,-4.4578,-4.4496,-4.4501,-4.4501,-4.4501,-4.4501,-4.4501,-4.4501,-4.4501,-4.4501,-4.4473,-4.4411,-4.4358,0.0,0.0,-4.4085,-4.402,-4.3989,-4.3945,-4.3913,-4.3881,-4.3716,-4.2619,-4.1188,-4.1142,-4.0047,-3.8673,-3.8575,-3.8478,-3.8399,-3.8338,-3.8305,-3.829,-3.8242,-3.8139,-3.8036,-3.8036,-3.7985,-3.7916,-3.7899,-3.7899,-3.7899,-3.7916,-3.7967,-3.807,-3.8191,-3.8156,-3.8086,-3.8086,-3.8086,-3.8086,-3.8086,-3.8285,-3.8415,-3.8415,-3.7879,-3.7716,-3.8261,-3.7363,-3.6477,-3.5838,-3.5053,-3.4308,-3.367,-3.3633,-3.3591,-3.352,-3.352,-3.3509,-3.3437,-3.3422,-3.3408,-3.3408,-3.3411,-3.3367,-3.331,-3.3165,-3.3055,-3.9199,-3.9842,-4.0511,-4.0496,-3.9898,-3.8885,-3.7278,0.0,0.0,-3.216,-3.106,-3.0373,-3.031,-3.0842,-3.1583,0.0,0.0,-3.5486,0.0,0.0,0.0,0.0,0.0,0.0,0.0,0.0,0.0,0.0,0.0,0.0,0.0,-4.4815,-4.4719,-4.4605,-4.4592,-4.4551,-4.4501,-4.4501,-4.4501,-4.4501,-4.4501,-4.4501,-4.4501,-4.4501,-4.4501,-4.4487,0.0,0.0,0.0,-4.4214,-4.4119,-4.4005,-4.3989,-4.3942,-4.3915,-4.3881,-4.2733,-4.1204,-4.1188,-4.0092,-3.8707,-3.8692,-3.8609,-3.8478,-3.8415,-3.8354,-3.8307,-3.829,-3.8241,-3.8174,-3.8174,-3.8088,-3.7984,-3.7916,-3.7899,-3.7916,-3.7984,-3.8034,-3.8136,-3.8256,-3.832,-3.8366,-3.8366,-3.8366,-3.8366,-3.8366,-3.8446,-3.8494,-3.8494,-3.7909,-3.7559,-3.7658,-3.6189,-3.5178,-3.5086,-3.4348,-3.3826,-3.3698,-3.3684,-3.3657,-3.3591,-3.3591,-3.3591,-3.3591,-3.352,-3.3495,-3.3495,-3.3422,-3.3367,-3.331,-3.3165,-3.3055,-3.8104,-3.9013,-3.9682,-3.9706,-3.9092,-3.8041,-3.6395,0.0,-3.3222,-3.2002,-3.1063,-3.0425,-3.0322,-3.0482,-3.1066,-3.2338,0.0,0.0,0.0,0.0,0.0,0.0,0.0,0.0,0.0,0.0,0.0,0.0,0.0,0.0,0.0,-4.4796,-4.4789,-4.4706,-4.4646,-4.4578,-4.4551,-4.4528,-4.4501,-4.4501,-4.4501,-4.4501,-4.4501,-4.4501,-4.4501,-4.4501,0.0,0.0,0.0,-4.4244,-4.4169,-4.4119,-4.402,-4.3974,-4.3886,-4.3376,-4.2424,-4.1292,-4.0701,-3.9718,-3.875,-3.8704,-3.8658,-3.8609,-3.8494,-3.843,-3.8417,-3.8368,-3.8336,-3.8322,-3.8322,-3.8287,-3.8219,-3.8156,-3.8172,-3.8188,-3.8189,-3.8219,-3.8302,-3.8352,-3.8385,-3.8399,-3.8399,-3.8399,-3.8399,-3.8399,-3.853,-3.8624,-3.8624,-3.8033,-3.744,-3.6989,-3.5814,-3.5087,-3.5165,-3.4365,-3.3842,-3.3815,-3.3793,-3.3726,-3.3657,-3.3657,-3.3629,-3.3605,-3.3534,-3.3509,-3.3509,-3.3437,-3.3367,-3.331,-3.3165,-3.3086,-3.6752,-3.7836,-3.855,-3.8819,-3.8068,-3.6929,0.0,0.0,-3.209,-3.1236,-3.0559,-3.0081,-2.9969,-3.0075,-3.0627,-3.192,0.0,-3.322,0.0,0.0,0.0,0.0,0.0,0.0,0.0,0.0,0.0,0.0,0.0,0.0,0.0,-4.4783,-4.4796,-4.4796,-4.4712,-4.4646,-4.4632,-4.4551,-4.4542,-4.4542,-4.4515,-4.4501,-4.4501,-4.4501,-4.4501,-4.4482,0.0,0.0,0.0,-4.4042,-4.4005,-4.4184,-4.4104,-4.402,-4.3912,-4.3052,-4.2208,-4.1363,-4.0391,-3.9519,-3.8792,-3.875,-3.8723,-3.8673,-3.8593,-3.8525,-3.8494,-3.8446,-3.843,-3.843,-3.843,-3.8446,-3.8446,-3.8401,-3.8415,-3.843,-3.8368,-3.8433,-3.8512,-3.8496,-3.8528,-3.8559,-3.8559,-3.8559,-3.8559,-3.8559,-3.867,-3.8765,-3.8765,-3.8136,-3.741,-3.6624,-3.5752,-3.5148,-3.4927,-3.4315,-3.3934,-3.3934,-3.3881,-3.3847,-3.3793,-3.3793,-3.3766,-3.3684,-3.3615,-3.3577,-3.352,-3.3466,-3.3364,-3.331,-3.3198,-3.315,-3.5142,-3.6215,-3.7025,-3.7893,-3.6852,-3.5405,0.0,-3.241,-3.0298,-2.9487,-2.9265,-2.9193,-2.9115,-2.9704,-3.0443,-3.1191,-3.1988,0.0,0.0,0.0,0.0,0.0,0.0,0.0,0.0,0.0,0.0,0.0,0.0,0.0,0.0,0.0,-4.4796,-4.4796,-4.4815,-4.4776,-4.4712,-4.4632,-4.4592,-4.4592,-4.4524,-4.4501,-4.4501,-4.4501,-4.4501,0.0,0.0,0.0,0.0,-4.354,-4.3604,-4.4199,-4.4199,-4.4119,-4.3893,-4.3095,-4.2251,-4.1378,-4.0493,-3.959,-3.8807,-3.8807,-3.8747,-3.8707,-3.8707,-3.8609,-3.851,-3.851,-3.851,-3.851,-3.851,-3.8538,-3.86,-3.86,-3.86,-3.8585,-3.8507,-3.8649,-3.8777,-3.8704,-3.8792,-3.8892,-3.8892,-3.8892,-3.8892,-3.8892,-3.891,-3.891,-3.891,-3.8208,-3.7438,-3.6777,-3.598,-3.5094,-3.4103,-3.3998,-3.3998,-3.3998,-3.3998,-3.3998,-3.3998,-3.3998,-3.3972,-3.3895,-3.3815,-3.3726,-3.3605,-3.352,-3.3422,-3.331,-3.331,-3.3229,-3.2708,-3.403,-3.5151,-3.5421,-3.4685,-3.3513,-3.212,-3.0698,-2.9451,-2.8597,-2.883,-2.9175,-2.9118,-2.9704,-3.0445,-3.1172,-3.1988,0.0,0.0,0.0,0.0,0.0,0.0,0.0,0.0,0.0,0.0,0.0,0.0,0.0,0.0,0.0,-4.4796,-4.4796,-4.4796,-4.4783,-4.4776,-4.4712,-4.4672,-4.4653,-4.4081,-4.3823,-4.3785,-4.3149,0.0,0.0,0.0,0.0,0.0,-4.3324,-4.3643,-4.4329,-4.4244,-4.3796,-4.3152,-4.2289,-4.1464,-4.0618,-3.9692,-3.9186,-3.8925,-3.8837,-3.8792,-3.878,-3.878,-3.8747,-3.8728,-3.8818,-3.8829,-3.8844,-3.8902,-3.8946,-3.8946,-3.8873,-3.8859,-3.8862,-3.8788,-3.8818,-3.8866,-3.8837,-3.8881,-3.891,-3.891,-3.891,-3.891,-3.891,-3.8935,-3.8964,-3.8964,-3.8785,-3.8169,-3.6905,-3.654,-3.5814,-3.4381,-3.4233,-3.4185,-3.4136,-3.4099,-3.4049,-3.3998,-3.3998,-3.3985,-3.3972,-3.3873,-3.378,-3.3739,-3.3615,-3.352,-3.3437,-3.3437,-3.3364,0.0,-3.1613,-3.2498,-3.2827,-3.228,0.0,0.0,-2.9222,-2.819,-2.7625,-2.8144,-2.8683,-2.8614,-2.9487,-3.0345,-3.0788,-3.1806,0.0,0.0,0.0,0.0,0.0,0.0,0.0,0.0,0.0,0.0,0.0,0.0,0.0,0.0,0.0,-4.477,-4.4796,-4.4821,-4.4833,-4.4833,-4.4474,-4.4266,-4.4279,-4.341,-4.302,-4.3001,-4.2404,0.0,0.0,0.0,0.0,0.0,-4.2771,-4.3231,-4.3971,-4.4188,-4.3703,-4.2805,-4.1961,-4.1099,-4.0271,-3.9342,-3.9021,-3.8997,-3.8892,-3.8866,-3.8851,-3.8892,-3.8892,-3.8877,-3.8983,-3.9036,-3.9092,-3.9129,-3.9188,-3.9188,-3.9166,-3.9152,-3.9124,-3.9036,-3.905,-3.9082,-3.9021,-3.905,-3.9082,-3.9082,-3.9054,-3.9021,-3.9021,-3.9036,-3.8924,-3.8609,-3.8628,-3.8064,-3.6553,-3.6379,-3.5875,-3.4585,-3.4386,-3.4316,-3.4281,-3.4233,-3.4197,-3.4161,-3.4124,-3.4099,-3.4074,-3.3972,-3.3881,-3.3847,-3.3698,-3.3605,-3.3534,-3.3534,-3.3477,0.0,-2.9129,0.0,0.0,0.0,0.0,-2.9194,-2.7915,0.0,-2.6625,-2.7291,-2.7881,-2.7817,-2.9123,-3.0173,-3.0117,0.0,0.0,0.0,0.0,0.0,0.0,0.0,0.0,0.0,0.0,0.0,0.0,0.0,0.0,0.0,0.0,0.0,-4.4613,-4.4688,-4.4743,-4.4819,-4.3963,-4.351,-4.3491,-4.2567,-4.2134,-4.2134,-4.2058,0.0,0.0,0.0,0.0,0.0,-4.1911,-4.2377,-4.3184,-4.3929,-4.3619,-4.2648,-4.1888,-4.1049,-4.0211,-3.938,-3.9059,-3.9007,-3.9007,-3.8964,-3.895,-3.9073,-3.9078,-3.9007,-3.9021,-3.9133,-3.9224,-3.9224,-3.9328,-3.9418,-3.9418,-3.9405,-3.9373,-3.9242,-3.9315,-3.936,-3.9242,-3.9315,-3.9405,-3.9405,-3.9301,-3.921,-3.921,-3.9156,-3.8817,-3.8018,-3.7949,-3.7389,-3.5849,-3.5749,-3.5472,-3.4677,-3.4484,-3.4416,-3.4386,-3.4404,-3.4386,-3.4393,-3.4328,-3.4257,-3.4197,-3.4136,-3.4036,-3.3908,-3.3793,-3.3684,-3.3633,-3.3615,-3.3633,-2.6372,0.0,-2.8438,-2.8632,-2.8034,-2.7397,0.0,-2.6572,-2.5808,-2.579,-2.6901,-2.7881,-2.7817,-2.9111,-3.0171,0.0,0.0,0.0,0.0,0.0,0.0,0.0,0.0,0.0,0.0,0.0,0.0,0.0,0.0,0.0,0.0,0.0,-4.2812,-4.2893,-4.2946,-4.3322,-4.3985,-4.3109,-4.2692,-4.2673,-4.1836,-4.1446,-4.1408,-4.0681,0.0,0.0,0.0,0.0,-4.1079,-4.1079,-4.1573,-4.2297,-4.2444,-4.1972,-4.1183,-4.0891,-4.024,-3.9449,-3.9189,-3.9129,-3.9142,-3.9142,-3.9129,-3.9142,-3.9219,-3.921,-3.9183,-3.9337,-3.9439,-3.9521,-3.9558,-3.962,-3.9608,-3.9495,-3.9469,-3.9457,-3.9373,-3.9373,-3.9391,-3.936,-3.9373,-3.9405,-3.9405,-3.9373,-3.936,-3.936,-3.9242,-3.8885,-3.8085,-3.8473,-3.8021,-3.5924,-3.6254,-3.6077,-3.4733,-3.4517,-3.4461,-3.4397,-3.4351,-3.4293,-3.4245,-3.4233,-3.4221,-3.4197,-3.4136,-3.4061,-3.3972,-3.3947,-3.3921,-3.3895,-3.3842,-3.3815,-2.5551,-2.6227,-2.6905,-2.6905,-2.6556,-2.6191,-2.6191,-2.5838,-2.5495,-2.5452,-2.6733,-2.7824,-2.7769,0.0,0.0,0.0,0.0,0.0,0.0,0.0,0.0,0.0,0.0,0.0,0.0,0.0,0.0,0.0,0.0,0.0,0.0,0.0,-4.2239,-4.2342,-4.2029,-4.2249,-4.3095,-4.228,-4.1851,-4.1832,-4.0999,-4.0601,-4.0582,-4.0075,0.0,0.0,0.0,0.0,-4.0322,-4.0685,-4.1086,-4.1479,-4.1815,-4.1445,-4.0694,-4.0614,-4.0037,-3.9288,-3.9261,-3.9269,-3.9304,-3.9324,-3.9337,-3.935,-3.9414,-3.9439,-3.9452,-3.9526,-3.9587,-3.9654,-3.9691,-3.9698,-3.9681,-3.9608,-3.9571,-3.9533,-3.9508,-3.9476,-3.9476,-3.9476,-3.9476,-3.9476,-3.9476,-3.9469,-3.9313,-3.8901,-3.9098,-3.8859,-3.7608,-3.8109,-3.7992,-3.6373,-3.6621,-3.6421,-3.5214,-3.5098,-3.4914,-3.4469,-3.4374,-3.4328,-3.4293,-3.4257,-3.4233,-3.4197,-3.4161,-3.4111,-3.4049,-3.4049,-3.4036,-3.3998,-3.3959,-3.3947,-2.5495,-2.5485,-2.552,-2.566,-2.5679,-2.5718,-2.5846,-2.5875,-2.5854,0.0,0.0,0.0,0.0,-2.9202,0.0,0.0,0.0,0.0,0.0,0.0,0.0,0.0,0.0,0.0,0.0,0.0,0.0,0.0,0.0,0.0,0.0,0.0,0.0,-4.2003,-4.1359,-4.1321,-4.2003,-4.134,-4.0999,-4.098,-4.0241,-3.99,-3.99,-3.99,0.0,0.0,0.0,0.0,-3.9774,-4.0446,-4.0691,-4.0697,-4.1392,-4.1184,-4.0532,-4.0514,-4.0044,-3.9412,-3.9425,-3.9426,-3.9439,-3.9514,-3.9539,-3.9551,-3.9611,-3.967,-3.9705,-3.9647,-3.9689,-3.9724,-3.9712,-3.9715,-3.9698,-3.9705,-3.9657,-3.9602,-3.9589,-3.9589,-3.9589,-3.9589,-3.9589,-3.9552,-3.942,-3.9352,-3.9021,-3.8171,-3.8708,-3.8644,-3.7032,-3.7621,-3.7832,-3.6913,-3.6982,-3.6751,-3.5951,-3.5832,-3.5487,-3.4727,-3.4514,-3.4386,-3.4386,-3.434,-3.4293,-3.4233,-3.4233,-3.4209,-3.4148,-3.4136,-3.4099,-3.4049,-3.4036,-3.4036,-2.5503,-2.5461,-2.5596,-2.6323,-2.6521,-2.6683,-2.7377,-2.7533,-2.7513,0.0,0.0,0.0,0.0,-3.0037,0.0,0.0,0.0,0.0,0.0,0.0,0.0,0.0,0.0,0.0,0.0,0.0,0.0,0.0,0.0,0.0,0.0,0.0,0.0,-4.0279,-4.0165,-4.0165,-4.0279,-4.0165,-4.0108,-4.0108,-3.9957,-3.99,-3.99,-3.99,-3.9889,0.0,0.0,-3.9792,-3.9789,-3.9854,-3.9881,-3.9888,-4.0001,-3.9946,-3.9765,-3.9708,-3.9602,-3.9489,-3.9557,-3.9582,-3.9575,-3.9654,-3.9677,-3.9689,-3.9747,-3.9781,-3.9792,-3.9826,-3.9867,-3.9856,-3.9792,-3.9781,-3.9766,-3.9698,-3.9693,-3.9669,-3.9602,-3.9589,-3.9589,-3.9589,-3.9589,-3.9364,-3.8638,-3.8495,-3.8213,-3.7387,-3.7921,-3.8041,-3.7086,-3.8158,-3.846,-3.7051,-3.7511,-3.7586,-3.6789,-3.6145,-3.5726,-3.553,-3.4808,-3.4386,-3.4386,-3.4386,-3.4374,-3.4363,-3.4363,-3.4351,-3.4351,-3.4293,-3.4257,-3.4257,-3.4197,-3.4173,-2.5452,-2.5425,-2.5702,-2.6978,-2.6964,-2.6863,-2.767,-2.8181,-2.848,0.0,0.0,0.0,0.0,0.0,0.0,0.0,0.0,0.0,0.0,0.0,0.0,0.0,0.0,0.0,0.0,0.0,0.0,0.0,0.0,0.0,0.0,0.0,0.0,0.0,-3.99,-3.99,-3.99,-3.99,-3.99,-3.99,-3.99,-3.99,-3.99,-3.9933,-3.9954,-3.9954,0.0,-3.9922,-3.9837,-3.9819,-3.9762,-3.9703,-3.9703,-3.9679,-3.9637,-3.9618,-3.9618,-3.9611,-3.9682,-3.9712,-3.9724,-3.98,-3.9811,-3.9804,-3.9837,-3.9848,-3.9867,-3.9889,-3.99,-3.9889,-3.9848,-3.9826,-3.9792,-3.9754,-3.9727,-3.9691,-3.965,-3.9657,-3.9645,-3.962,-3.9214,-3.877,-3.8375,-3.7943,-3.738,-3.6573,-3.7113,-3.7464,-3.7054,-3.7985,-3.8551,-3.8271,-3.8595,-3.8527,-3.7667,-3.6934,-3.6073,-3.507,-3.461,-3.4386,-3.4386,-3.4386,-3.4386,-3.4386,-3.4386,-3.4386,-3.4386,-3.4363,-3.4351,-3.4351,-3.4316,-3.4293,-2.5395,-2.54,-2.5801,-2.7409,-2.7332,-2.7198,-2.8362,-2.9111,-2.9595,-2.9732,0.0,0.0,0.0,0.0,0.0,0.0,0.0,0.0,0.0,0.0,0.0,0.0,0.0,0.0,0.0,0.0,0.0,0.0,0.0,0.0,0.0,0.0,0.0,0.0,-3.99,-3.99,-3.99,-3.99,-3.99,-3.99,-3.99,-3.9911,-3.9922,-3.9975,-4.0007,-4.0057,-4.0077,-4.0046,-3.9965,-3.9933,-3.9867,-3.977,-3.977,-3.977,-3.9758,-3.9747,-3.9754,-3.9747,-3.9804,-3.9815,-3.9788,-3.9662,-3.9616,-3.9578,-3.937,-3.9464,-3.9616,-3.9616,-3.9748,-3.99,-3.99,-3.9848,-3.9815,-3.9804,-3.9758,-3.9675,-3.9465,-3.9404,-3.9324,-3.9069,-3.8481,-3.7962,-3.7774,-3.723,-3.6535,-3.5728,-3.6291,-3.6805,-3.6747,-3.7597,-3.8434,-3.9057,-3.9357,-3.9152,-3.8302,-3.7514,-3.6414,-3.4854,-3.4562,-3.445,-3.445,-3.445,-3.445,-3.445,-3.445,-3.445,-3.445,-3.4439,-3.4409,-3.4409,-3.4416,-3.4363,-2.5395,-2.5391,-2.5797,-2.7402,-2.7761,-2.8326,-3.0621,-3.1178,-3.1443,-3.217,0.0,0.0,0.0,0.0,0.0,0.0,0.0,0.0,0.0,0.0,0.0,0.0,0.0,0.0,0.0,0.0,0.0,0.0,0.0,0.0,0.0,0.0,0.0,0.0,0.0,-3.99,-3.99,-3.99,-3.99,-3.99,-3.99,-3.9933,-3.9986,-3.9996,-4.0077,-4.0186,-4.0108,-4.0137,-4.0176,-4.0038,-3.9986,-3.9975,-3.9975,-3.9975,-3.9975,-3.9911,-3.9889,-3.9889,-3.9889,-3.9889,-3.9767,-3.902,-3.8784,-3.8633,-3.7837,-3.814,-3.8784,-3.8784,-3.9323,-3.99,-3.99,-3.99,-3.9878,-3.9815,-3.9804,-3.9573,-3.8761,-3.8535,-3.8274,-3.7529,-3.7276,-3.696,-3.6197,-3.6028,-3.5691,-3.4808,-3.5428,-3.5991,-3.598,-3.7284,-3.8222,-3.8278,-3.9008,-3.9164,-3.8363,-3.7509,-3.6653,-3.5848,-3.5022,-3.4591,-3.4591,-3.4591,-3.4591,-3.4591,-3.4591,-3.4591,-3.4591,-3.4517,-3.4495,-3.4495,-3.4439,-3.4404,-2.5346,-2.5341,-2.5726,-2.7388,-2.7775,-2.8371,-3.0795,-3.1721,-3.2298,-3.3113,-3.3683,0.0,0.0,0.0,0.0,0.0,0.0,0.0,0.0,0.0,0.0,0.0,0.0,0.0,0.0,0.0,0.0,0.0,0.0,0.0,0.0,0.0,0.0,0.0,0.0,-3.99,-3.99,-3.99,-3.9922,-3.9965,-3.9965,-3.9975,-3.9996,-4.0087,-4.0138,-4.0196,-4.0225,-4.0225,-4.0196,-4.0157,-4.0098,-4.0057,-4.0057,-4.0057,-4.0057,-4.0036,-4.0026,-4.0026,-4.0026,-3.9663,-3.9168,-3.8864,-3.8369,-3.7837,-3.7495,-3.7628,-3.7893,-3.7893,-3.849,-3.9267,-3.9767,-3.99,-3.9889,-3.9878,-3.948,-3.9015,-3.8647,-3.8123,-3.7629,-3.7332,-3.679,-3.6316,-3.6015,-3.5504,-3.5031,-3.4712,-3.4916,-3.5465,-3.6498,-3.7162,-3.7932,-3.9019,-3.9432,-3.9276,-3.8435,-3.7549,-3.6738,-3.5953,-3.5071,-3.4612,-3.4612,-3.4612,-3.4612,-3.4612,-3.4612,-3.4612,-3.4612,-3.4561,-3.4561,-3.455,-3.4528,-3.4506,-2.5317,-2.55,-2.6042,-2.7416,-2.7918,-2.8705,-3.1118,-3.2093,-3.28,-3.3856,-3.451,-3.5173,-3.6036,0.0,0.0,0.0,0.0,0.0,0.0,0.0,0.0,0.0,0.0,0.0,0.0,0.0,0.0,0.0,0.0,0.0,0.0,0.0,0.0,0.0,0.0,0.0,-3.99,-3.9922,-3.9954,-3.9996,-4.0048,-4.0049,-4.0078,-4.0167,-4.0215,-4.0272,-4.0281,-4.0272,-4.0225,-4.0225,-4.0196,-4.0157,-4.0157,-4.0157,-4.0157,-4.0147,-4.0137,-4.0099,-3.9793,-3.9306,-3.8706,-3.8183,-3.7583,-3.7003,-3.6699,-3.6803,-3.7021,-3.7021,-3.7628,-3.8424,-3.8982,-3.9502,-3.99,-3.99,-3.9286,-3.8603,-3.8285,-3.7545,-3.6852,-3.6594,-3.6044,-3.5608,-3.5608,-3.5135,-3.4802,-3.5044,-3.5031,-3.5525,-3.6922,-3.7317,-3.8042,-3.9543,-3.9686,-3.9453,-3.8858,-3.7777,-3.6878,-3.631,-3.5221,-3.4612,-3.4612,-3.4612,-3.4612,-3.4612,-3.4612,-3.4612,-3.4612,-3.4612,-3.4612,-3.4612,-3.4612,-3.4591,-2.5337,-2.5942,-2.6787,-2.7534,0.0,0.0,-3.196,-3.2495,-3.2952,-3.4576,-3.4908,-3.5173,-3.6055,0.0,0.0,0.0,0.0,0.0,0.0,0.0,0.0,0.0,0.0,0.0,0.0,0.0,0.0,0.0,0.0,0.0,0.0,0.0,0.0,0.0,0.0,0.0,-3.99,-3.9965,-3.9996,-3.9996,-4.0139,-4.0205,-4.0205,-4.0205,-4.028,-4.0407,-4.0325,-4.0307,-4.0307,-4.031,-4.0301,-4.0282,-4.0282,-4.0282,-4.0282,-4.0196,-4.0177,-4.0034,-3.9099,-3.8775,-3.8498,-3.6844,-3.6293,-3.6112,-3.5173,-3.5495,-3.6187,-3.6187,-3.6775,-3.7401,-3.7401,-3.8641,-3.9881,-3.9881,-3.9267,-3.8443,-3.7571,-3.6697,-3.5843,-3.5048,-3.4848,-3.4798,-3.4817,-3.4817,-3.5051,-3.5797,-3.5918,-3.6197,-3.6998,-3.7812,-3.8662,-3.9599,-3.9703,-3.9696,-3.9705,-3.8169,-3.7186,-3.711,-3.5551,-3.4612,-3.4612,-3.4612,-3.4612,-3.4612,-3.4612,-3.4612,-3.4612,-3.4612,-3.4612,-3.4612,-3.4612,-3.4612,-2.5994,-2.6337,0.0,-2.8198,0.0,0.0,0.0,-3.2469,0.0,0.0,-3.5382,-3.6074,-3.6889,0.0,0.0,0.0,0.0,0.0,0.0,0.0,0.0,0.0,0.0,0.0,0.0,0.0,0.0,0.0,0.0,0.0,0.0,0.0,0.0,0.0,0.0,0.0,-3.9965,-4.0036,-4.0089,-4.0139,-4.0187,-4.0205,-4.0205,-4.0298,-4.0362,-4.0407,-4.0379,-4.0334,-4.0307,-4.031,-3.9938,-3.9393,-3.9393,-3.9011,-3.8476,-3.8439,-3.8439,-3.8401,-3.8116,-3.7622,-3.7042,-3.6528,-3.5912,-3.5324,-3.504,-3.5126,-3.5287,-3.5287,-3.5893,-3.6566,-3.6566,-3.7334,-3.8148,-3.8148,-3.7523,-3.687,-3.6604,-3.5865,-3.5192,-3.4946,-3.4879,-3.5078,-3.5684,-3.5748,-3.6001,-3.6831,-3.6869,-3.7092,-3.7861,-3.8731,-3.938,-3.9665,-3.9708,-3.9712,-3.9766,-3.875,-3.7838,-3.7205,-3.6144,-3.5238,-3.4631,-3.4612,-3.4612,-3.4612,-3.4612,-3.4612,-3.4612,-3.4612,-3.4612,-3.4612,-3.4612,-3.4612,-2.628,-2.674,0.0,-2.8579,-2.9348,-3.0353,-3.2496,0.0,0.0,0.0,0.0,0.0,0.0,0.0,0.0,0.0,0.0,0.0,0.0,0.0,0.0,0.0,0.0,0.0,0.0,0.0,0.0,0.0,0.0,0.0,0.0,0.0,0.0,0.0,0.0,0.0,-4.0046,-4.0118,-4.0167,-4.0205,-4.0289,-4.0325,-4.0323,-4.0405,-4.0449,-4.0447,-4.0449,-4.0396,-4.0306,-3.9973,-3.9505,-3.9007,-3.8665,-3.8197,-3.7738,-3.7702,-3.7693,-3.7655,-3.733,-3.6884,-3.6381,-3.6039,-3.5538,-3.5075,-3.5011,-3.4964,-3.4936,-3.4917,-3.5287,-3.5695,-3.5714,-3.6349,-3.7127,-3.781,-3.705,-3.6282,-3.6643,-3.5761,-3.4908,-3.4908,-3.5173,-3.5571,-3.6112,-3.6423,-3.6904,-3.7753,-3.7758,-3.7826,-3.8244,-3.883,-3.919,-3.9176,-3.9524,-3.9747,-3.9758,-3.9003,-3.8301,-3.7743,-3.6594,-3.5698,-3.5184,-3.4803,-3.4612,-3.4612,-3.4612,-3.4623,-3.4645,-3.4645,-3.4655,-3.4676,-3.4676,-3.4676,-2.6321,-2.7151,-2.7918,-2.8786,-3.0205,0.0,-3.3344,-3.432,-3.5154,-3.6017,0.0,0.0,0.0,0.0,0.0,0.0,0.0,0.0,0.0,0.0,0.0,0.0,0.0,0.0,0.0,0.0,0.0,0.0,0.0,0.0,0.0,0.0,0.0,0.0,0.0,0.0,-4.0108,-4.0187,-4.0215,0.0,-4.0405,-4.0495,-4.0516,-4.0515,-4.0515,-4.0516,-4.0507,-4.0419,-4.0224,-3.9438,-3.9016,-3.8786,-3.7997,-3.7627,-3.757,-3.7509,-3.7472,-3.7377,-3.6634,-3.6385,-3.6243,-3.5465,-3.52,-3.5183,-3.5066,-3.5011,-3.5001,-3.4936,-3.4927,-3.4955,-3.5068,-3.5713,-3.672,-3.8421,-3.7489,-3.6434,-3.7214,-3.6084,-3.4917,-3.4908,-3.559,-3.6225,-3.6301,-3.6984,-3.7759,-3.848,-3.8486,-3.8357,-3.8218,-3.8247,-3.8312,-3.8387,-3.9169,-3.9694,-3.9712,-3.9101,-3.8669,-3.8527,-3.7093,-3.6205,-3.6119,-3.5157,-3.4623,-3.4623,-3.4623,-3.4645,-3.4716,-3.4716,-3.4747,-3.4798,-3.4798,-3.4798,-2.687,-2.7574,0.0,0.0,-3.1002,-3.2434,-3.3468,-3.432,-3.5154,0.0,0.0,0.0,0.0,0.0,0.0,0.0,0.0,0.0,0.0,0.0,0.0,0.0,0.0,0.0,0.0,0.0,0.0,0.0,0.0,0.0,0.0,0.0,0.0,0.0,0.0,-4.0177,-4.0168,-4.0233,-4.0325,0.0,-4.0487,-4.0523,-4.0573,-4.0585,-4.0585,-4.0573,-4.0515,-4.009,-3.944,-3.9205,-3.8326,-3.7118,-3.6937,-3.6431,-3.5848,-3.5828,-3.5812,-3.5785,-3.5562,-3.5469,-3.545,-3.525,-3.5206,-3.52,-3.5174,-3.5129,-3.5075,-3.5066,-3.5066,-3.5218,-3.5855,-3.6159,-3.6739,-3.8461,-3.7557,-3.6331,-3.653,-3.5733,-3.4955,-3.4917,-3.559,-3.6396,-3.704,-3.7856,-3.846,-3.8585,-3.8538,-3.8226,-3.7517,-3.7389,-3.7633,-3.8331,-3.8633,-3.9048,-3.9724,-3.9686,-3.9318,-3.8612,-3.8234,-3.7721,-3.7055,-3.557,-3.4758,-3.4758,-3.4758,-3.4768,-3.4778,-3.4778,-3.478,-3.4792,-3.479,-3.48,-2.6043,0.0,0.0,-3.0179,0.0,-3.2722,-3.3558,-3.4394,0.0,0.0,0.0,0.0,0.0,0.0,0.0,0.0,0.0,0.0,0.0,0.0,0.0,0.0,0.0,0.0,0.0,0.0,0.0,0.0,0.0,0.0,0.0,0.0,0.0,0.0,-4.0281,-4.029,-4.0298,-4.037,-4.043,-4.0495,-4.0523,-4.0588,-4.0639,-4.0605,-4.0598,-4.0598,-4.0554,-4.0069,-3.9253,-3.8819,-3.7862,-3.6644,-3.6204,-3.5741,-3.533,-3.5312,-3.5308,-3.5304,-3.5261,-3.5226,-3.5209,-3.5209,-3.5193,-3.5206,-3.5208,-3.5183,-3.5138,-3.512,-3.5092,-3.5292,-3.6128,-3.6671,-3.7298,-3.8641,-3.7908,-3.6919,-3.692,-3.6245,-3.5486,-3.4993,-3.559,-3.6339,-3.6756,-3.7514,-3.8062,-3.7988,-3.7627,-3.7187,-3.6688,-3.658,-3.6749,-3.7205,-3.8025,-3.8731,-3.9187,-3.964,-3.9711,-3.9296,-3.8877,-3.8458,-3.8041,-3.6742,-3.5831,-3.5383,-3.5006,-3.4827,-3.4848,-3.4859,-3.486,-3.4908,-3.4927,-3.4936,-2.5094,0.0,-2.8386,-3.0715,-3.1963,0.0,-3.3627,-3.4464,0.0,0.0,0.0,0.0,0.0,0.0,0.0,0.0,0.0,0.0,0.0,0.0,0.0,0.0,0.0,0.0,0.0,0.0,0.0,0.0,0.0,0.0,0.0,0.0,-4.0415,-4.0407,-4.0407,-4.0415,-4.0413,-4.0474,-4.0503,-4.0519,-4.0588,-4.0646,-4.0726,-4.0661,-4.0628,-4.0602,-4.046,-3.9932,-3.9115,-3.8246,-3.7358,-3.6491,-3.5724,-3.542,-3.5412,-3.533,-3.5312,-3.53,-3.5293,-3.5261,-3.5209,-3.5209,-3.5209,-3.5201,-3.5206,-3.5189,-3.5181,-3.5127,-3.5233,-3.5547,-3.6401,-3.7277,-3.8145,-3.9021,-3.8632,-3.7985,-3.7661,-3.692,-3.6027,-3.5069,-3.559,-3.6244,-3.6377,-3.6965,-3.7342,-3.7129,-3.6543,-3.6031,-3.5836,-3.5807,-3.5853,-3.5985,-3.7303,-3.8291,-3.8575,-3.9272,-3.9792,-3.9996,-3.9319,-3.8959,-3.9009,-3.8133,-3.72,-3.6264,-3.5452,-3.5,-3.4907,-3.4917,-3.4945,-3.502,-3.5075,-3.512,-2.5619,0.0,-2.9141,0.0,-3.1963,-3.2817,0.0,0.0,0.0,0.0,0.0,0.0,0.0,0.0,0.0,0.0,0.0,0.0,0.0,0.0,0.0,0.0,0.0,0.0,0.0,0.0,0.0,0.0,0.0,0.0,0.0,-4.0493,-4.0449,-4.0407,-4.0407,-4.043,-4.0492,-4.05,-4.0527,-4.06,-4.0647,-4.0726,-4.079,-4.0784,-4.0746,-4.0629,-3.9881,-3.9064,-3.8215,-3.7334,-3.6453,-3.5663,-3.5534,-3.5489,-3.5486,-3.5412,-3.5357,-3.5293,-3.53,-3.5261,-3.5209,-3.5209,-3.5209,-3.5201,-3.5201,-3.5201,-3.5193,-3.5193,-3.5719,-3.6502,-3.7321,-3.8162,-3.904,-3.9919,-4.0024,-3.9509,-3.7947,-3.6919,-3.6026,-3.5078,-3.559,-3.6415,-3.7116,-3.7325,-3.7163,-3.6452,-3.6214,-3.5833,-3.5142,-3.4989,-3.5222,-3.5929,-3.6256,-3.7024,-3.848,-3.8803,-3.9245,-3.9958,-3.9951,-3.9886,-3.9844,-3.9047,-3.8181,-3.7229,-3.6433,-3.5656,-3.4898,-3.4964,-3.502,-3.5084,-3.5111,-3.5138,-2.5836,-2.7287,-2.8508,0.0,-3.0986,-3.2195,-3.3007,0.0,0.0,0.0,0.0,0.0,0.0,0.0,0.0,0.0,0.0,0.0,0.0,0.0,0.0,0.0,0.0,0.0,0.0,0.0,0.0,0.0,0.0,0.0,-4.0503,-4.0546,-4.0546,-4.0503,-4.0503,-4.0535,-4.0564,-4.0554,-4.0583,-4.0661,-4.0713,-4.0526,-4.0062,-4.0062,-4.032,-4.0713,-3.9825,-3.8968,-3.8099,-3.7224,-3.6343,-3.554,-3.5502,-3.5496,-3.5495,-3.5474,-3.5412,-3.5357,-3.5361,-3.5312,-3.5254,-3.5254,-3.5258,-3.5261,-3.5261,-3.5226,-3.5209,-3.5209,-3.5856,-3.6742,-3.7545,-3.8404,-3.9273,-4.0108,-4.029,-3.9947,-3.8613,-3.7633,-3.6615,-3.5173,-3.5211,-3.5571,-3.5931,-3.5988,-3.5874,-3.5514,-3.5438,-3.5296,-3.4955,-3.4879,-3.4992,-3.5341,-3.5844,-3.664,-3.7833,-3.8424,-3.9131,-4.0,-4.0046,-4.0067,-4.0108,-3.9277,-3.8392,-3.7537,-3.6653,-3.5799,-3.4955,-3.502,-3.5084,-3.5155,-3.5153,-3.5179,0.0,0.0,-2.7568,-2.8383,-2.9891,-3.1331,0.0,0.0,0.0,0.0,0.0,0.0,0.0,0.0,0.0,0.0,0.0,0.0,0.0,0.0,0.0,0.0,0.0,0.0,0.0,0.0,0.0,0.0,0.0,0.0,-3.985,-3.9918,-3.9952,-3.9959,-3.9959,-3.9962,-3.9984,-3.9983,-4.0023,-4.0076,-4.012,-3.981,-3.9172,-3.9172,-3.952,-4.0094,-3.923,-3.847,-3.7806,-3.6957,-3.6211,-3.5601,-3.5534,-3.5528,-3.5534,-3.5521,-3.5481,-3.5439,-3.5439,-3.5372,-3.5308,-3.5308,-3.5312,-3.53,-3.53,-3.5277,-3.5226,-3.5226,-3.6034,-3.7042,-3.7647,-3.8618,-3.9583,-4.018,-4.0316,-4.0031,-3.908,-3.8033,-3.6872,-3.5496,-3.504,-3.4908,-3.4908,-3.4908,-3.4908,-3.4908,-3.4908,-3.4984,-3.5192,-3.523,-3.5306,-3.5514,-3.6092,-3.6831,-3.7666,-3.8329,-3.9092,-4.0029,-4.0046,-4.0067,-4.0157,-3.9287,-3.8402,-3.7585,-3.6691,-3.5828,-3.502,-3.5084,-3.5147,-3.52,-3.5204,-3.5209,0.0,-2.6421,0.0,-2.7549,-2.9039,0.0,0.0,0.0,0.0,0.0,0.0,0.0,0.0,0.0,0.0,0.0,0.0,0.0,0.0,0.0,0.0,0.0,0.0,0.0,0.0,0.0,0.0,0.0,0.0,0.0,-3.8127,-3.8134,-3.8168,-3.8221,-3.8221,-3.826,-3.8324,-3.833,-3.8322,-3.8328,-3.8328,-3.8309,-3.827,-3.827,-3.829,-3.829,-3.7406,-3.7019,-3.6903,-3.611,-3.5706,-3.5601,-3.5601,-3.5583,-3.5591,-3.5591,-3.5547,-3.55,-3.55,-3.5412,-3.5308,-3.5308,-3.5308,-3.5308,-3.5308,-3.5297,-3.5285,-3.5285,-3.6471,-3.7742,-3.78,-3.905,-4.0349,-4.0388,-4.0353,-4.0022,-3.9023,-3.7519,-3.6321,-3.6159,-3.5457,-3.4908,-3.4908,-3.4908,-3.4908,-3.4908,-3.4908,-3.5192,-3.6036,-3.613,-3.6415,-3.7192,-3.7244,-3.7612,-3.8557,-3.8671,-3.9071,-3.9939,-4.0057,-4.0067,-4.0007,-3.9228,-3.8382,-3.7508,-3.6711,-3.5894,-3.5092,-3.5155,-3.52,-3.52,-3.5204,-3.5209,0.0,0.0,0.0,-2.6784,-2.774,0.0,0.0,0.0,0.0,0.0,0.0,0.0,0.0,0.0,0.0,0.0,0.0,0.0,0.0,0.0,0.0,0.0,0.0,0.0,0.0,0.0,0.0,0.0,0.0,0.0,-3.8,-3.8046,-3.8099,-3.817,-3.817,-3.8177,-3.8208,-3.82,-3.8193,-3.8193,-3.8193,-3.7903,-3.7367,-3.7367,-3.7077,-3.6574,-3.6265,-3.6419,-3.6845,-3.6033,-3.5679,-3.5668,-3.5612,-3.5595,-3.5602,-3.5604,-3.5579,-3.556,-3.556,-3.5522,-3.5483,-3.5483,-3.5463,-3.5423,-3.5434,-3.5398,-3.5361,-3.5312,-3.6535,-3.787,-3.787,-3.9169,-4.0452,-4.0405,-4.0353,-4.0184,-3.9776,-3.8347,-3.6967,-3.6378,-3.5524,-3.4908,-3.4908,-3.4908,-3.4908,-3.4908,-3.4908,-3.5211,-3.6093,-3.6206,-3.651,-3.7306,-3.7339,-3.7688,-3.8633,-3.8647,-3.9029,-3.9939,-4.0017,-3.9791,-3.9259,-3.8451,-3.7643,-3.6805,-3.6005,-3.5443,-3.5155,-3.5191,-3.5198,-3.5204,-3.5201,-3.5209,-2.5097,0.0,0.0,0.0,0.0,0.0,0.0,0.0,0.0,0.0,0.0,0.0,0.0,0.0,0.0,0.0,0.0,0.0,0.0,0.0,0.0,0.0,0.0,0.0,0.0,0.0,0.0,0.0,0.0,0.0,-3.7186,-3.7238,-3.7288,-3.7357,-3.7357,-3.7357,-3.7357,-3.7356,-3.7367,-3.7367,-3.7367,-3.7058,-3.6497,-3.6497,-3.6207,-3.5704,-3.5704,-3.5994,-3.6458,-3.5916,-3.5704,-3.5704,-3.5648,-3.5637,-3.5637,-3.5633,-3.5622,-3.559,-3.5604,-3.5591,-3.556,-3.556,-3.5547,-3.5502,-3.5495,-3.5474,-3.5477,-3.571,-3.6792,-3.7974,-3.8262,-3.9408,-4.0473,-4.0413,-4.037,-4.0317,-4.0244,-3.8852,-3.7452,-3.6825,-3.5733,-3.4927,-3.4889,-3.4908,-3.4908,-3.4908,-3.4908,-3.5306,-3.6472,-3.6604,-3.7011,-3.8111,-3.8191,-3.8407,-3.9058,-3.9042,-3.928,-3.9916,-3.9699,-3.9332,-3.8822,-3.7757,-3.6919,-3.6412,-3.5619,-3.5217,-3.5223,-3.5206,-3.5196,-3.5209,-3.5209,-3.5209,0.0,0.0,0.0,0.0,0.0,0.0,0.0,0.0,0.0,0.0,0.0,0.0,0.0,0.0,0.0,0.0,0.0,0.0,0.0,0.0,0.0,0.0,0.0,0.0,0.0,0.0,0.0,0.0,0.0,-3.554,-3.5601,-3.5606,-3.5637,-3.5704,-3.5704,-3.5704,-3.5704,-3.5704,-3.5704,-3.5704,-3.5704,-3.5704,-3.5704,-3.5704,-3.5704,-3.5704,-3.5704,-3.5704,-3.5704,-3.5704,-3.5704,-3.5704,-3.5704,-3.5704,-3.5704,-3.5704,-3.5668,-3.5601,-3.561,-3.556,-3.549,-3.549,-3.549,-3.549,-3.5509,-3.5495,-3.5666,-3.6464,-3.7283,-3.8109,-3.9019,-3.9869,-4.0473,-4.0413,-4.0407,-4.0381,-4.0291,-3.8898,-3.7661,-3.7538,-3.6141,-3.4992,-3.4917,-3.4889,-3.4889,-3.4889,-3.4889,-3.5514,-3.7192,-3.7401,-3.8045,-3.973,-3.9856,-3.9826,-3.99,-3.9837,-3.9826,-3.99,-3.9145,-3.8721,-3.8772,-3.7176,-3.633,-3.6382,-3.56,-3.525,-3.5293,-3.5253,-3.5209,-3.5209,-3.5209,-3.5209,-2.4969,0.0,0.0,0.0,0.0,0.0,0.0,0.0,0.0,0.0,0.0,0.0,0.0,0.0,0.0,0.0,0.0,0.0,0.0,0.0,0.0,0.0,0.0,0.0,0.0,0.0,0.0,0.0,-3.5591,-3.5584,-3.5601,-3.5643,-3.5679,-3.5704,-3.5704,-3.5704,-3.5704,-3.5704,-3.5704,-3.5704,-3.5704,-3.5704,-3.5704,-3.5704,-3.5704,-3.5704,-3.5704,-3.5704,-3.5704,-3.5704,-3.5704,-3.5704,-3.5704,-3.5704,-3.5704,-3.5704,-3.5684,-3.5673,-3.562,-3.5583,-3.5577,-3.5572,-3.5566,-3.556,-3.5515,-3.5502,-3.5675,-3.6462,-3.732,-3.83,-3.9769,-4.0315,-4.05,-4.0474,-4.0432,-4.0217,-3.958,-3.8513,-3.7677,-3.7661,-3.6243,-3.5066,-3.5057,-3.5001,-3.4964,-3.4964,-3.4964,-3.5571,-3.7261,-3.7499,-3.8184,-3.9875,-3.9975,-3.9965,-4.0036,-3.9975,-3.9975,-4.0036,-3.9248,-3.8508,-3.7966,-3.6974,-3.6188,-3.5616,-3.5399,-3.5304,-3.5376,-3.5308,-3.5266,-3.5278,-3.5278,-3.5278,0.0,0.0,0.0,0.0,0.0,0.0,0.0,-2.6317,0.0,0.0,0.0,0.0,0.0,0.0,0.0,0.0,0.0,0.0,0.0,0.0,0.0,0.0,0.0,0.0,0.0,0.0,0.0,0.0,-3.5622,-3.5608,-3.5643,-3.5648,-3.5668,-3.5668,-3.5656,-3.5651,-3.5651,-3.5651,-3.5656,-3.5668,-3.5668,-3.5673,-3.5704,-3.5704,-3.5704,-3.5704,-3.5704,-3.5704,-3.5704,-3.5673,-3.5668,-3.5668,-3.5668,-3.5662,-3.5651,-3.5662,-3.5662,-3.5651,-3.5608,-3.5577,-3.5565,-3.5566,-3.556,-3.5554,-3.5515,-3.5759,-3.6208,-3.7014,-3.8104,-3.9258,-4.0246,-4.0246,-3.9981,-3.9953,-3.9652,-3.9216,-3.8722,-3.7885,-3.7211,-3.7163,-3.6079,-3.5138,-3.5092,-3.5075,-3.5029,-3.5029,-3.5333,-3.6036,-3.7367,-3.789,-3.8661,-3.9994,-4.0118,-4.0109,-4.0128,-4.0109,-4.0109,-4.0128,-3.9033,-3.8164,-3.7693,-3.6635,-3.5822,-3.535,-3.5333,-3.5369,-3.5443,-3.5364,-3.5342,-3.5348,-3.5348,-3.5348,0.0,0.0,0.0,0.0,0.0,0.0,-2.5297,-2.5919,-2.6473,0.0,0.0,0.0,0.0,0.0,0.0,0.0,0.0,0.0,0.0,0.0,0.0,0.0,0.0,0.0,0.0,0.0,-3.4554,-3.5491,-3.5585,-3.5637,-3.5704,-3.5637,-3.5606,-3.5606,-3.5596,-3.5598,-3.5598,-3.5598,-3.559,-3.5601,-3.5601,-3.5637,-3.5684,-3.5704,-3.5704,-3.5684,-3.5684,-3.5684,-3.5679,-3.5612,-3.5601,-3.5601,-3.5601,-3.5602,-3.5604,-3.5608,-3.5602,-3.5598,-3.5591,-3.5554,-3.5509,-3.5502,-3.5502,-3.5522,-3.5618,-3.617,-3.6984,-3.788,-3.9219,-4.0362,-4.0362,-3.9765,-3.9135,-3.9077,-3.8466,-3.7894,-3.7813,-3.7153,-3.6546,-3.6328,-3.5702,-3.5189,-3.5127,-3.5119,-3.5119,-3.5119,-3.5719,-3.6538,-3.7499,-3.8308,-3.9127,-4.0005,-4.01,-4.0042,-3.9966,-3.9966,-4.0004,-4.009,-3.8584,-3.7726,-3.7824,-3.6269,-3.5409,-3.5418,-3.5425,-3.5457,-3.5513,-3.545,-3.5423,-3.5418,-3.5418,-3.5418,0.0,0.0,0.0,0.0,0.0,0.0,-2.5374,-2.5554,-2.5719,0.0,0.0,0.0,0.0,0.0,0.0,0.0,0.0,0.0,0.0,0.0,0.0,0.0,0.0,0.0,0.0,0.0,-3.3699,-3.4582,-3.5298,-3.5679,-3.5704,-3.5637,-3.5606,-3.5606,-3.5596,-3.5598,-3.5598,-3.5598,-3.5598,-3.5604,-3.5595,-3.5606,-3.5612,-3.5679,-3.5673,-3.5612,-3.5612,-3.5612,-3.5612,-3.5622,-3.5602,-3.5601,-3.5596,-3.5604,-3.5598,-3.5604,-3.5604,-3.5591,-3.5547,-3.5515,-3.5502,-3.5508,-3.5494,-3.5629,-3.6264,-3.6572,-3.7033,-3.8611,-3.9284,-3.9534,-3.9534,-3.8892,-3.8245,-3.8241,-3.8092,-3.7808,-3.7156,-3.6846,-3.6479,-3.5746,-3.5419,-3.527,-3.5262,-3.5258,-3.5253,-3.5253,-3.5387,-3.6053,-3.7644,-3.7992,-3.8426,-3.9295,-3.9399,-3.9138,-3.8477,-3.842,-3.8731,-3.9423,-3.7862,-3.725,-3.802,-3.6389,-3.5502,-3.5558,-3.5604,-3.5651,-3.5662,-3.5585,-3.5568,-3.5554,-3.5554,-3.5554,0.0,0.0,0.0,-2.5036,0.0,0.0,0.0,-2.5128,-2.4849,0.0,0.0,0.0,0.0,0.0,0.0,0.0,0.0,0.0,0.0,0.0,0.0,0.0,0.0,0.0,0.0,0.0,-3.2381,-3.3654,-3.4533,-3.5016,-3.5051,-3.5394,-3.5602,-3.5602,-3.5566,-3.5541,-3.5541,-3.5541,-3.5554,-3.5554,-3.5553,-3.5577,-3.5606,-3.5637,-3.5637,-3.5606,-3.5606,-3.5606,-3.5601,-3.5553,-3.5572,-3.5596,-3.5566,-3.5541,-3.5541,-3.5547,-3.556,-3.5541,-3.5509,-3.5496,-3.5489,-3.5507,-3.55,-3.5577,-3.5981,-3.6385,-3.6962,-3.8277,-3.8657,-3.8652,-3.8652,-3.8024,-3.7409,-3.743,-3.7122,-3.6691,-3.6298,-3.6176,-3.6016,-3.5572,-3.547,-3.5438,-3.5369,-3.536,-3.5345,-3.5345,-3.5729,-3.6319,-3.7182,-3.77,-3.8178,-3.8592,-3.8689,-3.8542,-3.8137,-3.8099,-3.8285,-3.873,-3.7559,-3.7057,-3.7537,-3.6292,-3.5612,-3.5648,-3.5728,-3.5747,-3.5747,-3.5728,-3.5674,-3.5649,-3.5649,-3.5649,0.0,0.0,0.0,0.0,0.0,-2.5382,0.0,0.0,0.0,-2.3866,0.0,0.0,0.0,0.0,0.0,0.0,0.0,0.0,0.0,0.0,0.0,0.0,0.0,0.0,0.0,0.0,-3.0989,-3.2507,-3.3362,-3.3981,-3.4374,-3.5002,-3.543,-3.5598,-3.5534,-3.5507,-3.55,-3.55,-3.5501,-3.5496,-3.5502,-3.554,-3.5595,-3.5601,-3.5606,-3.5606,-3.5606,-3.5606,-3.5601,-3.554,-3.556,-3.5584,-3.5534,-3.5495,-3.5507,-3.5502,-3.5495,-3.5507,-3.5502,-3.5495,-3.55,-3.55,-3.5603,-3.5745,-3.5745,-3.6322,-3.7118,-3.7817,-3.7916,-3.7789,-3.7789,-3.718,-3.6594,-3.6642,-3.6132,-3.5621,-3.5634,-3.5639,-3.5639,-3.5634,-3.5634,-3.5596,-3.5457,-3.5438,-3.5438,-3.5438,-3.6048,-3.6555,-3.6723,-3.743,-3.79,-3.7892,-3.7936,-3.7889,-3.7735,-3.7715,-3.7798,-3.7984,-3.7218,-3.6846,-3.7006,-3.6188,-3.5718,-3.5722,-3.578,-3.5808,-3.5808,-3.5806,-3.5778,-3.5722,-3.5722,-3.5722,0.0,0.0,0.0,0.0,-2.5437,0.0,0.0,0.0,-2.3842,-2.2313,0.0,0.0,0.0,0.0,0.0,0.0,0.0,0.0,0.0,0.0,0.0,0.0,0.0,0.0,0.0,0.0,0.0,-3.081,-3.1637,-3.2759,-3.4316,-3.4439,-3.4797,-3.5578,-3.5522,-3.5502,-3.55,-3.55,-3.55,-3.5507,-3.5489,-3.5547,-3.5604,-3.5589,-3.5606,-3.5606,-3.5606,-3.5606,-3.5601,-3.5584,-3.559,-3.5589,-3.5528,-3.5507,-3.55,-3.5507,-3.5507,-3.55,-3.5507,-3.5507,-3.55,-3.55,-3.6021,-3.6645,-3.6645,-3.7262,-3.7964,-3.806,-3.7585,-3.7018,-3.7018,-3.6385,-3.5742,-3.5814,-3.5752,-3.5708,-3.575,-3.5782,-3.5773,-3.5775,-3.579,-3.5728,-3.5602,-3.559,-3.559,-3.559,-3.5662,-3.6021,-3.6862,-3.7061,-3.711,-3.7117,-3.7123,-3.6818,-3.6043,-3.5984,-3.6338,-3.7175,-3.6405,-3.6289,-3.7068,-3.6254,-3.5788,-3.5786,-3.581,-3.5791,-3.5791,-3.5795,-3.5791,-3.5786,-3.5786,-3.5786,0.0,0.0,0.0,0.0,0.0,0.0,0.0,0.0,-2.3342,0.0,0.0,0.0,0.0,0.0,0.0,0.0,0.0,0.0,0.0,0.0,0.0,0.0,0.0,0.0,0.0,0.0,0.0,0.0,0.0,-3.0849,-3.2126,-3.3086,-3.3992,-3.4811,-3.5264,-3.5502,-3.5502,-3.5494,-3.55,-3.55,-3.5501,-3.5541,-3.5598,-3.559,-3.5608,-3.5606,-3.5606,-3.5606,-3.5601,-3.559,-3.5596,-3.5601,-3.5573,-3.5567,-3.5547,-3.5509,-3.5515,-3.5624,-3.6087,-3.6241,-3.6344,-3.689,-3.6961,-3.6858,-3.6863,-3.6754,-3.6644,-3.6644,-3.6433,-3.62,-3.62,-3.596,-3.5727,-3.5758,-3.5752,-3.5779,-3.585,-3.5853,-3.5853,-3.5865,-3.5862,-3.583,-3.5726,-3.5684,-3.5654,-3.5654,-3.5654,-3.5819,-3.6251,-3.6295,-3.63,-3.6303,-3.6308,-3.6153,-3.5788,-3.5769,-3.5937,-3.6316,-3.6033,-3.6021,-3.6382,-3.6044,-3.5865,-3.5853,-3.5853,-3.5853,-3.5853,-3.5853,-3.5853,-3.5853,-3.5826,-3.5795,-2.8136,0.0,0.0,0.0,0.0,0.0,0.0,0.0,0.0,0.0,0.0,0.0,0.0,0.0,0.0,0.0,0.0,0.0,0.0,0.0,0.0,0.0,0.0,0.0,0.0,0.0,0.0,0.0,-2.8066,0.0,-3.054,-3.1753,-3.2998,-3.4254,-3.4864,-3.5277,-3.5509,-3.5495,-3.5494,-3.55,-3.55,-3.554,-3.5598,-3.5598,-3.5622,-3.5637,-3.5637,-3.5637,-3.5631,-3.5633,-3.562,-3.5623,-3.5614,-3.5614,-3.5639,-3.5797,-3.5888,-3.6041,-3.6884,-3.7179,-3.7294,-3.7988,-3.7613,-3.6922,-3.6936,-3.6327,-3.5654,-3.5654,-3.5684,-3.5736,-3.5736,-3.5786,-3.5838,-3.5838,-3.5829,-3.5836,-3.5892,-3.5895,-3.5895,-3.5908,-3.5908,-3.5882,-3.5841,-3.5775,-3.5732,-3.5727,-3.5727,-3.5732,-3.5788,-3.5793,-3.5797,-3.5795,-3.5795,-3.5795,-3.5795,-3.5795,-3.5807,-3.5834,-3.5872,-3.5905,-3.5908,-3.5905,-3.5901,-3.5901,-3.5901,-3.5901,-3.5901,-3.5901,-3.5901,-3.5901,-3.585,-3.5834,0.0,0.0,0.0,-2.8154,0.0,0.0,0.0,0.0,-2.4115,0.0,0.0,0.0,0.0,0.0,0.0,-2.0505,0.0,0.0,0.0,0.0,0.0,0.0,0.0,0.0,0.0,0.0,0.0,0.0,-2.6339,0.0,-3.0462,-3.0656,-3.1782,-3.4215,-3.4326,-3.4703,-3.549,-3.5509,-3.5502,-3.55,-3.55,-3.554,-3.5598,-3.5598,-3.5633,-3.5704,-3.5704,-3.5704,-3.5704,-3.5704,-3.5701,-3.5683,-3.5637,-3.5639,-3.5786,-3.6509,-3.6755,-3.6897,-3.7822,-3.8162,-3.8152,-3.8186,-3.7651,-3.6993,-3.6997,-3.6438,-3.5791,-3.5791,-3.5807,-3.5803,-3.5791,-3.5845,-3.5905,-3.5901,-3.5905,-3.5911,-3.5906,-3.5908,-3.5903,-3.5908,-3.5905,-3.5901,-3.5905,-3.5841,-3.5795,-3.5795,-3.5795,-3.5795,-3.5795,-3.5795,-3.5795,-3.5795,-3.5795,-3.5795,-3.5795,-3.5795,-3.5834,-3.5898,-3.5901,-3.5908,-3.5905,-3.5892,-3.5901,-3.5901,-3.5901,-3.5901,-3.5901,-3.5901,-3.5901,-3.5901,-3.5901,-3.5898,0.0,0.0,-2.9783,-2.9199,0.0,0.0,0.0,0.0,0.0,0.0,0.0,0.0,0.0,0.0,-2.1366,-2.1362,0.0,0.0,0.0,0.0,0.0,0.0,0.0,0.0,0.0,0.0,0.0,-2.4525,-2.4892,-2.5913,0.0,-2.9108,-3.0632,-3.2575,-3.3719,-3.4706,-3.5552,-3.5509,-3.5502,-3.5509,-3.5509,-3.5534,-3.5598,-3.5601,-3.564,-3.5697,-3.5693,-3.5698,-3.5698,-3.5698,-3.5737,-3.5757,-3.5747,-3.5747,-3.5862,-3.6632,-3.692,-3.7135,-3.862,-3.9499,-3.9898,-3.9373,-3.8624,-3.7828,-3.7296,-3.6533,-3.5875,-3.5864,-3.5862,-3.5862,-3.5872,-3.5882,-3.5897,-3.59,-3.5903,-3.5903,-3.5908,-3.5908,-3.5908,-3.5903,-3.5903,-3.5897,-3.5901,-3.5872,-3.5856,-3.5803,-3.5803,-3.5795,-3.5795,-3.5795,-3.5795,-3.5795,-3.5795,-3.5795,-3.5795,-3.5842,-3.5887,-3.5901,-3.5901,-3.5897,-3.5903,-3.5897,-3.5894,-3.5894,-3.5894,-3.5894,-3.5894,-3.5894,-3.5894,-3.5894,-3.5894,-3.5901,-3.1342,-3.1264,0.0,-3.0179,-2.9734,0.0,-2.8788,0.0,0.0,0.0,0.0,0.0,0.0,0.0,0.0,-2.1909,-2.1331,0.0,0.0,-2.0503,0.0,0.0,0.0,0.0,0.0,0.0,-2.2143,-2.3232,-2.3867,-2.4815,0.0,0.0,-2.9302,-3.1308,-3.242,-3.368,-3.5123,-3.5083,-3.5232,-3.5547,-3.554,-3.5559,-3.5595,-3.5612,-3.5669,-3.5737,-3.5742,-3.5732,-3.5732,-3.5732,-3.5754,-3.5799,-3.5799,-3.5819,-3.5931,-3.6735,-3.7424,-3.8175,-3.9606,-4.025,-4.0396,-3.9905,-3.8935,-3.7877,-3.7358,-3.661,-3.5947,-3.5939,-3.595,-3.5921,-3.5906,-3.5892,-3.5897,-3.5892,-3.5908,-3.5908,-3.5908,-3.5908,-3.5908,-3.5908,-3.5908,-3.5906,-3.5897,-3.5891,-3.5895,-3.5845,-3.585,-3.5838,-3.5838,-3.5811,-3.5807,-3.5807,-3.5799,-3.5795,-3.5795,-3.585,-3.5872,-3.5901,-3.5908,-3.5906,-3.5897,-3.5897,-3.5919,-3.5943,-3.5943,-3.5943,-3.5943,-3.5943,-3.5943,-3.5943,-3.5943,-3.5933]},{"header":{"parameterUnit":"m.s-1","parameterCategory":1,"la1":30.6,"la2":29.2853,"lo1":-89.7004,"lo2":-87.6739,"dy":0.0162,"dx":0.0183,"nx":112,"ny":82,"refTime":"2023-07-19T06:00:00:Z","depth":0,"parameterNumber":3,"parameterNumberName":"V-component_of_WINDS"},"data":[0.0,0.0,0.0,0.0,0.0,0.0,0.0,0.0,0.0,0.0,0.0,0.0,0.0,0.0,0.0,0.0,0.0,0.0,0.0,0.0,0.0,0.0,0.0,0.0,0.0,0.0,0.0,0.0,0.0,0.0,0.0,0.0,0.0,0.0,0.0,0.0,0.0,0.0,0.0,0.0,0.0,0.0,0.0,0.0,0.0,0.0,0.0,0.0,0.0,0.0,0.0,0.0,0.0,0.0,0.0,0.0,0.0,0.0,0.0,0.0,0.0,0.0,0.0,0.0,0.0,0.0,0.0,0.0,0.0,0.0,0.0,0.0,0.0,0.0,0.0,0.0,0.0,0.0,0.0,0.0,0.0,0.0,0.0,0.0,0.0,0.0,0.0,0.0,0.0,0.0,0.0,-1.1442,-1.2782,-1.3572,-1.3601,-1.2864,-1.2149,-1.1652,0.0,0.0,0.0,0.0,0.0,0.0,0.0,0.0,0.0,0.0,0.0,0.0,0.0,0.0,0.0,0.0,0.0,0.0,0.0,0.0,0.0,0.0,0.0,0.0,0.0,0.0,0.0,0.0,0.0,0.0,0.0,0.0,0.0,0.0,0.0,0.0,0.0,0.0,0.0,0.0,0.0,0.0,0.0,0.0,0.0,0.0,0.0,0.0,0.0,0.0,0.0,0.0,0.0,0.0,0.0,0.0,0.0,0.0,0.0,0.0,0.0,0.0,0.0,0.0,0.0,0.0,0.0,0.0,0.0,0.0,0.0,0.0,0.0,0.0,0.0,0.0,0.0,0.0,0.0,0.0,0.0,0.0,0.0,0.0,0.0,0.0,0.0,0.0,0.0,0.0,0.0,0.0,0.0,0.0,0.0,0.0,0.0,0.0,0.0,0.0,0.0,0.0,0.0,0.0,-1.0226,-1.2354,-1.3299,-1.3826,-1.3992,-1.3204,-1.2578,-1.2189,0.0,0.0,0.0,0.0,0.0,0.0,0.0,0.0,0.0,0.0,0.0,0.0,0.0,0.0,0.0,0.0,0.0,0.0,0.0,0.0,0.0,0.0,0.0,0.0,0.0,0.0,0.0,0.0,0.0,0.0,0.0,0.0,0.0,0.0,0.0,0.0,0.0,0.0,0.0,0.0,0.0,0.0,0.0,0.0,0.0,0.0,0.0,0.0,0.0,0.0,0.0,0.0,0.0,0.0,0.0,0.0,0.0,0.0,0.0,0.0,0.0,0.0,0.0,0.0,0.0,0.0,0.0,0.0,0.0,0.0,0.0,0.0,0.0,0.0,0.0,0.0,0.0,0.0,0.0,0.0,0.0,0.0,0.0,0.0,0.0,0.0,0.0,0.0,0.0,0.0,0.0,0.0,0.0,0.0,0.0,0.0,0.0,0.0,0.0,0.0,0.0,0.0,0.0,-1.0087,-1.1368,-1.2802,-1.3676,-1.4145,-1.4245,-1.3558,-1.2889,-1.2321,-1.1095,0.0,0.0,0.0,0.0,0.0,0.0,0.0,0.0,0.0,0.0,0.0,0.0,0.0,0.0,0.0,0.0,0.0,0.0,0.0,0.0,0.0,0.0,0.0,0.0,0.0,0.0,0.0,0.0,0.0,0.0,0.0,0.0,0.0,0.0,0.0,0.0,0.0,0.0,0.0,0.0,0.0,0.0,0.0,0.0,0.0,0.0,0.0,0.0,0.0,0.0,0.0,0.0,0.0,0.0,0.0,0.0,0.0,0.0,0.0,0.0,0.0,0.0,0.0,0.0,0.0,0.0,0.0,0.0,0.0,0.0,0.0,0.0,0.0,0.0,0.0,0.0,0.0,0.0,0.0,0.0,0.0,0.0,0.0,0.0,0.0,0.0,0.0,0.0,0.0,0.0,0.0,0.0,0.0,0.0,0.0,0.0,0.0,0.0,0.0,0.0,0.0,0.0,-1.1093,-1.2311,-1.3126,-1.3933,-1.4425,-1.4425,-1.3815,-1.3118,-1.2445,-1.1351,0.0,0.0,0.0,0.0,0.0,0.0,0.0,0.0,0.0,0.0,0.0,0.0,0.0,0.0,0.0,0.0,0.0,0.0,0.0,0.0,0.0,0.0,0.0,0.0,0.0,0.0,0.0,0.0,0.0,0.0,0.0,0.0,0.0,0.0,0.0,0.0,0.0,0.0,0.0,0.0,0.0,0.0,0.0,0.0,0.0,0.0,0.0,0.0,0.0,0.0,0.0,0.0,0.0,0.0,0.0,0.0,0.0,0.0,0.0,0.0,0.0,0.0,0.0,0.0,0.0,0.0,0.0,0.0,0.0,0.0,0.0,0.0,0.0,0.0,0.0,0.0,0.0,0.0,0.0,0.0,0.0,0.0,0.0,0.0,0.0,0.0,0.0,0.0,0.0,0.0,0.0,0.0,0.0,0.0,0.0,0.0,0.0,0.0,0.0,0.0,0.0,0.0,-1.1545,-1.2593,-1.3477,-1.408,-1.4461,-1.4569,-1.3841,-1.3224,-1.2784,-1.1461,0.0,0.0,0.0,0.0,0.0,0.0,0.0,0.0,0.0,0.0,0.0,0.0,0.0,0.0,0.0,0.0,0.0,0.0,0.0,0.0,0.0,0.0,0.0,0.0,0.0,0.0,0.0,0.0,0.0,0.0,0.0,0.0,0.0,0.0,0.0,0.0,0.0,0.0,0.0,0.0,0.0,0.0,0.0,0.0,0.0,0.0,0.0,0.0,0.0,0.0,0.0,0.0,0.0,0.0,0.0,0.0,0.0,0.0,0.0,0.0,0.0,0.0,0.0,0.0,0.0,0.0,0.0,0.0,0.0,0.0,0.0,0.0,0.0,0.0,0.0,0.0,0.0,0.0,0.0,0.0,0.0,0.0,0.0,0.0,0.0,0.0,0.0,0.0,0.0,0.0,0.0,0.0,0.0,0.0,0.0,0.0,0.0,0.0,0.0,0.0,0.0,0.0,-1.1751,-1.2763,0.0,-1.4159,-1.4533,-1.4605,-1.4032,-1.3429,-1.2969,0.0,0.0,0.0,0.0,0.0,0.0,0.0,0.0,0.0,0.0,0.0,0.0,0.0,0.0,0.0,0.0,0.0,0.0,0.0,0.0,0.0,0.0,0.0,0.0,0.0,0.0,0.0,0.0,0.0,0.0,0.0,0.0,0.0,0.0,0.0,0.0,0.0,0.0,0.0,0.0,0.0,0.0,0.0,0.0,0.0,0.0,0.0,0.0,0.0,0.0,0.0,0.0,0.0,0.0,0.0,0.0,0.0,0.0,0.0,0.0,0.0,0.0,0.0,0.0,0.0,0.0,0.0,0.0,0.0,0.0,0.0,0.0,0.0,0.0,0.0,0.0,0.0,0.0,0.0,0.0,0.0,0.0,0.0,0.0,0.0,0.0,0.0,0.0,0.0,0.0,0.0,0.0,0.0,0.0,0.0,0.0,0.0,0.0,0.0,0.0,0.0,0.0,-1.1161,-1.2196,-1.313,0.0,-1.4292,-1.4605,-1.4605,-1.4058,-1.3518,-1.303,0.0,0.0,0.0,0.0,0.0,0.0,0.0,0.0,0.0,0.0,0.0,0.0,0.0,0.0,0.0,0.0,0.0,0.0,0.0,0.0,0.0,0.0,0.0,0.0,0.0,0.0,0.0,0.0,0.0,0.0,0.0,0.0,0.0,0.0,0.0,0.0,0.0,0.0,0.0,0.0,0.0,0.0,0.0,0.0,0.0,0.0,0.0,0.0,0.0,0.0,0.0,0.0,0.0,0.0,0.0,0.0,0.0,0.0,0.0,0.0,0.0,0.0,0.0,0.0,0.0,0.0,0.0,0.0,0.0,0.0,0.0,0.0,0.0,0.0,0.0,0.0,0.0,0.0,0.0,0.0,0.0,0.0,0.0,0.0,0.0,0.0,0.0,0.0,0.0,0.0,0.0,0.0,0.0,0.0,0.0,0.0,0.0,0.0,0.0,0.0,0.0,0.0,-1.2126,-1.2953,-1.3648,-1.4327,-1.4533,-1.4605,-1.4605,-1.3989,-1.3429,0.0,0.0,0.0,0.0,0.0,0.0,0.0,0.0,0.0,0.0,0.0,0.0,0.0,0.0,0.0,0.0,0.0,0.0,0.0,0.0,0.0,0.0,0.0,0.0,0.0,0.0,0.0,0.0,0.0,0.0,0.0,0.0,0.0,0.0,0.0,0.0,0.0,0.0,0.0,0.0,0.0,0.0,0.0,0.0,0.0,0.0,0.0,0.0,0.0,0.0,0.0,0.0,0.0,0.0,0.0,0.0,0.0,0.0,0.0,0.0,0.0,0.0,0.0,0.0,0.0,0.0,0.0,0.0,0.0,0.0,0.0,0.0,0.0,0.0,0.0,0.0,0.0,0.0,0.0,0.0,0.0,0.0,0.0,0.0,0.0,0.0,0.0,0.0,0.0,0.0,0.0,0.0,0.0,0.0,0.0,0.0,0.0,0.0,0.0,0.0,0.0,0.0,0.0,-1.2278,-1.2985,-1.3648,-1.4327,-1.4533,-1.4605,-1.4605,-1.4471,-1.4072,-1.3385,0.0,0.0,0.0,0.0,0.0,0.0,0.0,0.0,0.0,0.0,0.0,0.0,0.0,0.0,0.0,0.0,0.0,0.0,0.0,0.0,0.0,0.0,0.0,0.0,0.0,0.0,0.0,0.0,0.0,0.0,0.0,0.0,0.0,0.0,0.0,0.0,0.0,0.0,0.0,0.0,0.0,0.0,0.0,0.0,0.0,0.0,0.0,0.0,0.0,0.0,0.0,0.0,0.0,0.0,0.0,0.0,0.0,0.0,0.0,0.0,0.0,0.0,0.0,0.0,0.0,0.0,0.0,0.0,0.0,0.0,0.0,0.0,0.0,0.0,0.0,0.0,0.0,0.0,0.0,0.0,0.0,0.0,0.0,0.0,0.0,0.0,0.0,0.0,0.0,0.0,0.0,0.0,0.0,0.0,0.0,0.0,0.0,0.0,0.0,0.0,0.0,0.0,-1.2737,-1.3291,-1.3802,-1.4426,-1.4605,-1.4721,-1.4721,-1.4646,-1.4369,-1.3883,0.0,0.0,0.0,0.0,0.0,0.0,0.0,0.0,0.0,0.0,0.0,0.0,0.0,0.0,0.0,0.0,0.0,0.0,0.0,0.0,0.0,0.0,0.0,0.0,0.0,0.0,0.0,0.0,0.0,0.0,0.0,0.0,0.0,0.0,0.0,0.0,0.0,0.0,0.0,0.0,0.0,0.0,0.0,0.0,0.0,0.0,0.0,0.0,0.0,0.0,0.0,0.0,0.0,0.0,0.0,0.0,0.0,0.0,0.0,0.0,0.0,0.0,0.0,0.0,0.0,0.0,0.0,0.0,0.0,0.0,0.0,0.0,0.0,0.0,0.0,0.0,0.0,0.0,0.0,0.0,0.0,0.0,0.0,0.0,0.0,0.0,0.0,0.0,0.0,0.0,0.0,0.0,0.0,0.0,0.0,0.0,0.0,0.0,0.0,0.0,0.0,0.0,-1.3342,-1.3705,-1.4024,-1.4561,-1.4792,-1.4935,-1.4935,-1.4671,-1.4501,-1.4446,0.0,0.0,0.0,0.0,0.0,0.0,0.0,0.0,0.0,0.0,0.0,0.0,0.0,0.0,0.0,0.0,0.0,0.0,0.0,0.0,0.0,0.0,0.0,0.0,0.0,0.0,0.0,0.0,0.0,0.0,0.0,0.0,0.0,0.0,0.0,0.0,0.0,0.0,0.0,0.0,0.0,0.0,0.0,0.0,0.0,0.0,0.0,0.0,0.0,0.0,0.0,0.0,0.0,0.0,0.0,0.0,0.0,0.0,0.0,0.0,-1.049,0.0,0.0,0.0,0.0,0.0,0.0,0.0,0.0,0.0,0.0,0.0,0.0,0.0,0.0,0.0,0.0,0.0,0.0,0.0,0.0,0.0,0.0,0.0,0.0,0.0,0.0,0.0,0.0,0.0,0.0,0.0,0.0,0.0,0.0,0.0,0.0,0.0,0.0,0.0,0.0,0.0,-1.3342,-1.3803,-1.4235,-1.4791,-1.5034,-1.5133,-1.5133,-1.5217,-1.5115,-1.4807,0.0,0.0,0.0,0.0,0.0,0.0,0.0,0.0,0.0,0.0,0.0,0.0,0.0,0.0,0.0,0.0,0.0,0.0,0.0,0.0,0.0,0.0,0.0,0.0,0.0,0.0,0.0,0.0,0.0,0.0,0.0,0.0,0.0,0.0,0.0,0.0,0.0,0.0,0.0,0.0,0.0,0.0,0.0,0.0,0.0,0.0,0.0,0.0,0.0,0.0,0.0,0.0,0.0,0.0,0.0,0.0,0.0,0.0,0.0,0.0,0.0,-1.1062,0.0,0.0,0.0,0.0,0.0,0.0,0.0,0.0,0.0,0.0,0.0,0.0,0.0,0.0,0.0,0.0,0.0,0.0,0.0,0.0,0.0,0.0,0.0,0.0,0.0,0.0,0.0,0.0,0.0,0.0,0.0,0.0,0.0,0.0,0.0,0.0,0.0,0.0,0.0,0.0,-1.3918,-1.4288,-1.4662,-1.5128,-1.5355,-1.5532,-1.563,-1.5744,-1.5729,-1.5592,-1.5239,0.0,0.0,0.0,0.0,0.0,0.0,0.0,0.0,0.0,0.0,0.0,0.0,0.0,0.0,0.0,0.0,0.0,0.0,0.0,0.0,0.0,0.0,0.0,0.0,0.0,0.0,0.0,0.0,0.0,0.0,0.0,0.0,0.0,0.0,0.0,0.0,0.0,0.0,0.0,0.0,0.0,0.0,0.0,0.0,0.0,0.0,0.0,0.0,0.0,0.0,0.0,0.0,0.0,0.0,-1.314,-1.3742,-1.3554,-1.3728,-1.4083,-1.3178,-1.2515,-1.2012,0.0,0.0,0.0,0.0,0.0,0.0,0.0,0.0,0.0,0.0,0.0,0.0,0.0,0.0,0.0,0.0,0.0,0.0,0.0,0.0,0.0,0.0,0.0,0.0,0.0,-1.4064,-1.4213,0.0,0.0,0.0,0.0,0.0,0.0,0.0,0.0,0.0,0.0,0.0,0.0,-1.4656,-1.4917,-1.5214,-1.5569,-1.5753,-1.5929,-1.6132,-1.6132,-1.6167,-1.6307,-1.5731,-1.5315,0.0,0.0,0.0,0.0,0.0,0.0,0.0,0.0,0.0,0.0,0.0,0.0,0.0,0.0,0.0,0.0,0.0,0.0,0.0,0.0,0.0,0.0,0.0,0.0,0.0,0.0,0.0,0.0,0.0,0.0,0.0,0.0,-0.4022,-0.4385,0.0,0.0,0.0,0.0,0.0,0.0,0.0,0.0,0.0,0.0,0.0,0.0,0.0,0.0,-1.1736,-1.2413,-1.3121,-1.3939,-1.4153,-1.4394,-1.4699,-1.4706,-1.4768,-1.4919,-1.4572,0.0,-1.2897,-1.2402,0.0,0.0,0.0,0.0,0.0,0.0,0.0,0.0,0.0,0.0,0.0,0.0,0.0,0.0,0.0,0.0,0.0,0.0,0.0,0.0,0.0,0.0,-1.4164,-1.5221,-1.5518,-1.5718,0.0,-1.5764,-1.5035,-1.4497,0.0,0.0,0.0,0.0,0.0,0.0,0.0,0.0,-1.5277,-1.5561,-1.5771,-1.5991,-1.6132,-1.6237,-1.6272,-1.6272,-1.6272,-1.6307,-1.6193,-1.5956,-1.5476,-1.4652,0.0,0.0,0.0,0.0,0.0,0.0,0.0,0.0,0.0,0.0,0.0,0.0,0.0,0.0,0.0,0.0,0.0,0.0,0.0,0.0,0.0,0.0,0.0,0.0,0.0,0.0,0.0,0.0,0.0,-0.4046,-0.4595,-0.4807,-0.5047,-0.5196,0.0,0.0,0.0,0.0,0.0,0.0,0.0,0.0,0.0,-1.0458,-1.163,-1.2505,-1.2999,-1.3581,-1.4161,-1.4637,-1.4725,-1.4902,-1.513,-1.4998,-1.5046,-1.5134,-1.4921,-1.4511,-1.395,-1.3442,-1.2965,-1.2551,0.0,0.0,0.0,0.0,0.0,-1.2211,-1.2533,-1.2684,0.0,0.0,0.0,0.0,0.0,0.0,0.0,0.0,0.0,0.0,0.0,0.0,0.0,-1.6306,-1.674,-1.7173,-1.7482,-1.7438,-1.6998,0.0,-1.5765,-1.5344,-1.425,0.0,0.0,0.0,0.0,0.0,-1.6021,-1.651,-1.6777,-1.6714,-1.6786,-1.6758,-1.6648,-1.6621,-1.6621,-1.6621,-1.6421,-1.6201,-1.5964,-1.511,-1.4571,0.0,0.0,0.0,0.0,0.0,0.0,0.0,0.0,0.0,0.0,0.0,0.0,0.0,0.0,0.0,0.0,0.0,0.0,0.0,0.0,0.0,0.0,0.0,0.0,0.0,0.0,0.0,0.0,-0.4749,-0.5205,-0.538,-0.5691,-0.5864,0.0,0.0,0.0,0.0,0.0,0.0,-0.9938,-1.0954,-1.1599,-1.1764,-1.2856,-1.3635,-1.4021,-1.4546,-1.4922,-1.5184,-1.5184,-1.5241,-1.5303,-1.5167,-1.5133,-1.5234,-1.5074,-1.4988,-1.4867,-1.4316,-1.3846,-1.347,-1.3285,-1.3088,-1.2961,-1.3313,-1.3359,-1.3339,-1.366,-1.374,-1.374,-1.374,0.0,-1.4168,-1.3774,0.0,0.0,0.0,0.0,-1.5172,-1.5484,0.0,-1.6963,-1.7128,-1.767,-1.82,-1.8248,-1.8518,-1.8447,0.0,-1.6889,-1.6475,-1.558,0.0,0.0,0.0,0.0,-1.6537,-1.6935,-1.7423,-1.7647,-1.7451,-1.7415,-1.7361,-1.7203,-1.7119,-1.7055,-1.7055,-1.6675,-1.6421,-1.6307,-1.5446,-1.49,-1.4642,0.0,0.0,0.0,0.0,0.0,0.0,0.0,0.0,0.0,0.0,0.0,0.0,0.0,0.0,0.0,0.0,0.0,0.0,0.0,0.0,0.0,0.0,0.0,0.0,0.0,0.0,0.0,0.0,0.0,-0.6205,-0.6756,0.0,0.0,0.0,0.0,-0.8662,-0.9585,-1.048,-1.1278,-1.2209,-1.2715,-1.2709,-1.3645,-1.4326,-1.464,-1.5127,-1.5511,-1.5738,-1.5738,-1.5645,-1.5371,-1.5378,-1.5354,-1.5301,-1.5256,-1.5344,-1.5397,-1.4613,-1.4177,-1.3959,-1.3829,-1.3657,-1.3512,-1.3924,-1.4041,-1.4066,-1.4375,-1.446,-1.446,-1.446,-1.4508,-1.468,-1.5205,-1.5258,0.0,0.0,-1.6071,-1.6385,-1.7158,-1.742,-1.7548,-1.7846,-1.8158,-1.8456,-1.8625,-1.8834,-1.8797,0.0,-1.8018,-1.7752,-1.7017,0.0,-1.7108,-1.7153,-1.7314,-1.7587,-1.7972,-1.8063,-1.8081,-1.8054,-1.8054,-1.8045,-1.8027,-1.7697,-1.7468,-1.7468,-1.7075,-1.67,-1.6307,-1.5635,-1.4951,-1.4247,-1.3436,0.0,0.0,0.0,0.0,0.0,0.0,0.0,0.0,0.0,0.0,0.0,0.0,0.0,0.0,0.0,0.0,0.0,0.0,0.0,0.0,0.0,0.0,0.0,0.0,0.0,0.0,0.0,0.0,-0.6936,-0.7297,0.0,0.0,-0.8132,-0.8827,-0.9682,-1.0491,-1.1325,-1.2266,-1.2888,-1.3347,-1.3491,-1.4161,-1.4581,-1.4681,-1.5018,-1.5354,-1.5588,-1.5588,-1.563,-1.5671,-1.5671,-1.5564,-1.5381,-1.5518,-1.5573,-1.5614,-1.5439,-1.5113,-1.4655,-1.433,-1.42,-1.4282,-1.4453,-1.4616,-1.4787,-1.5005,-1.5087,-1.5127,-1.5453,-1.5579,-1.5677,-1.6034,-1.6127,-1.6154,-1.6363,-1.6724,-1.7124,-1.7437,-1.7804,-1.8108,-1.8247,-1.8442,-1.8652,-1.8851,-1.8962,-1.8957,-1.8882,-1.8569,-1.8183,-1.7763,-1.7655,-1.7595,-1.7604,-1.7998,-1.833,-1.8485,-1.8724,-1.8779,-1.8493,-1.8504,-1.8365,-1.8109,-1.7734,-1.7495,-1.7495,-1.7014,-1.6586,-1.6307,-1.5627,-1.5053,-1.4672,-1.3824,-1.3208,0.0,0.0,0.0,0.0,0.0,0.0,0.0,0.0,0.0,0.0,0.0,0.0,0.0,0.0,0.0,0.0,0.0,0.0,0.0,0.0,0.0,0.0,0.0,0.0,0.0,0.0,-0.7139,-0.7609,-0.7982,-0.8207,-0.836,-0.8869,-0.9575,-1.0447,-1.1151,-1.1941,-1.2834,-1.3285,-1.3566,-1.3761,-1.4309,-1.4592,-1.4592,-1.4933,-1.5178,-1.5356,-1.5445,-1.5588,-1.5683,-1.5784,-1.5678,-1.5545,-1.5684,-1.5785,-1.5863,-1.596,-1.5826,-1.5475,-1.4979,-1.4747,-1.4692,-1.4783,-1.4957,-1.5131,-1.534,-1.5389,-1.5472,-1.5971,-1.6139,-1.6268,-1.6669,-1.6824,-1.6899,-1.7015,-1.7349,-1.7655,-1.7655,-1.7963,-1.8282,-1.8282,-1.8442,-1.8652,-1.8763,-1.8882,-1.9033,-1.9183,-1.8925,-1.8665,-1.8518,-1.8371,-1.8314,-1.8314,-1.8665,-1.8907,-1.8907,-1.9146,-1.9201,-1.8935,-1.8907,-1.8806,-1.854,-1.8018,-1.7706,-1.7706,-1.7087,-1.6586,-1.6307,-1.5661,-1.5121,-1.4748,-1.3835,-1.3369,-1.3321,0.0,0.0,0.0,0.0,0.0,0.0,0.0,0.0,0.0,0.0,0.0,0.0,0.0,0.0,0.0,0.0,0.0,0.0,0.0,0.0,0.0,0.0,0.0,-0.654,-0.7373,-0.8072,-0.8201,-0.8752,-0.9011,-0.8773,-0.938,-1.0113,-1.082,-1.1647,-1.2411,-1.3039,-1.3346,-1.3491,-1.3491,-1.401,-1.4298,-1.4298,-1.479,-1.5083,-1.5083,-1.5356,-1.5493,-1.5493,-1.5683,-1.5778,-1.5784,-1.5784,-1.5899,-1.6088,-1.6088,-1.6223,-1.6352,-1.5814,-1.5241,-1.4748,-1.5006,-1.509,-1.5131,-1.534,-1.5389,-1.5472,-1.5963,-1.6095,-1.6294,-1.7147,-1.7392,-1.7473,-1.7878,-1.8,-1.8,-1.8,-1.8,-1.8,-1.8,-1.8201,-1.8402,-1.8402,-1.8723,-1.8962,-1.9002,-1.9152,-1.9301,-1.9301,-1.9301,-1.9301,-1.9301,-1.9301,0.0,-1.9301,-1.9301,-1.9301,-1.9301,-1.9301,-1.9301,-1.9301,-1.8577,-1.8091,-1.8091,-1.7358,-1.6735,-1.6307,-1.5807,-1.5153,-1.4445,-1.3501,-1.3307,-1.3844,0.0,0.0,0.0,0.0,0.0,0.0,0.0,0.0,0.0,0.0,0.0,0.0,0.0,0.0,0.0,0.0,0.0,0.0,0.0,0.0,0.0,0.0,-0.7573,-0.7573,-0.7889,-0.8379,-0.8987,-0.9222,-0.9336,-0.9368,-0.9862,-1.0418,-1.0812,-1.1594,-1.2302,-1.2856,-1.3104,-1.3298,-1.3491,-1.3636,-1.3823,-1.4027,-1.4172,-1.4412,-1.479,-1.4879,-1.5118,-1.5493,-1.554,-1.5642,-1.5784,-1.5784,-1.5927,-1.6188,-1.6369,-1.6465,-1.6404,-1.582,-1.5512,-1.5312,-1.5168,-1.5173,-1.534,-1.5389,-1.5506,-1.5658,-1.6004,-1.6294,-1.6656,-1.7229,-1.7505,-1.7659,-1.791,-1.8,-1.8,-1.8,-1.8,-1.8,-1.8,-1.808,-1.8161,-1.8362,-1.8482,-1.8603,-1.8772,-1.8812,-1.8962,-1.9262,-1.9301,-1.9301,-1.9301,-1.9301,0.0,-1.9301,-1.9301,-1.9301,-1.9301,-1.9301,-1.9301,-1.9301,-1.8577,-1.8091,0.0,-1.7358,-1.6735,-1.6307,-1.6081,-1.5622,-1.4994,-1.429,-1.421,0.0,0.0,0.0,0.0,0.0,0.0,0.0,0.0,0.0,0.0,0.0,0.0,0.0,0.0,0.0,0.0,0.0,0.0,0.0,0.0,0.0,0.0,-0.7873,-0.8344,-0.8564,-0.8639,-0.8864,-0.9367,-0.9469,-0.951,-0.9567,-1.0068,-1.0507,-1.0806,-1.1536,-1.2175,-1.2619,-1.2861,-1.305,-1.3201,-1.3298,-1.3443,-1.3738,-1.3835,-1.4118,-1.4544,-1.464,-1.4879,-1.5159,-1.5397,-1.554,0.0,-1.5778,-1.5927,-1.6224,-1.6359,-1.6537,0.0,0.0,0.0,0.0,0.0,-1.5581,-1.5804,-1.5679,-1.5712,-1.5831,-1.6175,-1.6368,-1.6533,-1.7106,-1.7424,-1.7627,-1.7829,-1.7951,-1.8,-1.8,-1.8,-1.8,-1.8,-1.8,-1.804,-1.8201,-1.8322,-1.8442,-1.8571,0.0,0.0,-1.9002,-1.9042,-1.9042,-1.9042,-1.9042,-1.9042,0.0,-1.9112,-1.9183,-1.9183,-1.9262,-1.9301,-1.9301,-1.8733,0.0,0.0,0.0,-1.686,-1.6258,-1.6017,0.0,0.0,0.0,-1.4965,0.0,0.0,0.0,0.0,-1.4912,-1.5251,0.0,0.0,0.0,0.0,0.0,0.0,0.0,0.0,0.0,0.0,0.0,0.0,0.0,0.0,0.0,0.0,-0.8599,-0.8865,-0.9335,-0.942,-0.9433,-0.9433,-0.9531,-0.9579,-0.9579,-1.0068,-1.0511,-1.0757,-1.1541,-1.2127,-1.2322,0.0,0.0,0.0,0.0,-1.3195,-1.3443,-1.369,-1.3973,-1.425,-1.4496,-1.464,-1.4736,-1.5213,-1.5493,-1.5493,-1.573,-1.5933,-1.6177,-1.6177,-1.6508,-1.6998,-1.6943,-1.6705,-1.6382,-1.6067,-1.614,0.0,0.0,0.0,0.0,-1.6485,-1.6392,-1.6299,-1.6902,-1.7221,-1.7432,-1.7619,-1.7829,-1.7951,-1.7951,-1.8,-1.8,-1.8,-1.8,-1.8,-1.8,-1.8201,-1.8353,-1.8353,-1.8482,-1.8612,-1.8612,-1.866,-1.87,-1.87,-1.87,-1.87,-1.87,-1.8851,-1.8962,-1.9002,0.0,0.0,-1.9301,-1.8935,-1.855,-1.8118,-1.7651,-1.7005,-1.6177,-1.5876,-1.5697,-1.5664,-1.553,-1.5562,-1.5794,-1.5426,-1.5394,-1.5669,-1.5917,-1.6088,0.0,0.0,0.0,0.0,0.0,0.0,0.0,0.0,0.0,0.0,0.0,0.0,0.0,0.0,0.0,-0.8766,-0.9034,-0.9286,-0.9388,-0.9482,-0.9575,-0.9575,-0.9608,-0.9579,-0.9579,-1.0068,-1.0408,-1.0462,-1.1438,-1.2024,-1.2078,-1.2521,0.0,-1.2813,-1.2861,-1.2958,-1.3195,-1.3249,-1.3491,-1.3979,0.0,0.0,-1.4694,-1.5029,-1.5315,-1.5493,-1.573,-1.5832,-1.5879,-1.6123,-1.6508,-1.6998,-1.6943,-1.6705,-1.6404,-1.6345,-1.6316,-1.6404,-1.6345,-1.6418,-1.6608,-1.6597,-1.6672,-1.6802,-1.7023,-1.7139,0.0,-1.7383,-1.7587,-1.774,-1.774,-1.787,-1.8,-1.8,-1.8,-1.8,-1.8,-1.804,-1.808,-1.808,-1.8121,-1.8121,-1.8121,-1.8451,-1.87,-1.87,-1.87,-1.87,-1.87,-1.874,-1.8812,-1.8962,-1.9042,-1.9112,-1.9301,-1.8935,-1.855,-1.8118,-1.7099,-1.6517,-1.6504,-1.5975,-1.599,-1.6636,-1.6147,-1.6071,-1.6412,-1.618,-1.612,-1.6171,-1.6048,-1.6262,0.0,0.0,0.0,0.0,0.0,0.0,0.0,0.0,0.0,0.0,0.0,-0.8199,0.0,0.0,-0.9052,-0.9306,-0.9372,-0.9426,-0.9514,-0.9571,-0.9579,-0.9579,-0.9579,-0.9677,-0.9772,-1.0167,-1.0462,-1.0605,-1.1487,-1.198,-1.198,-1.2516,-1.2813,-1.2813,-1.2813,-1.291,-1.3098,-1.3098,-1.3298,-1.369,-1.3835,-1.4027,-1.431,-1.4742,-1.5029,-1.5309,-1.5547,-1.573,-1.5825,-1.6076,-1.6366,-1.6629,-1.6847,-1.6904,-1.6828,-1.6719,-1.6763,-1.6828,-1.6712,-1.6795,-1.6974,-1.6819,-1.6849,-1.6888,-1.6916,-1.6976,-1.7139,-1.7221,-1.7383,-1.7578,-1.7659,-1.7781,-1.787,-1.8,-1.8,-1.8,-1.8,-1.8,-1.8,-1.8,-1.8,-1.8,-1.8,-1.8201,-1.8371,-1.8371,-1.8371,-1.8371,-1.8371,-1.8491,-1.8652,-1.8812,-1.8922,-1.9073,-1.9262,-1.8827,-1.8441,-1.825,-1.7114,-1.6528,-1.6723,-1.6279,-1.6207,-1.6586,-1.6285,-1.6181,-1.6202,-1.6105,-1.6,-1.5885,-1.5904,-1.6195,0.0,0.0,0.0,0.0,0.0,0.0,0.0,0.0,-0.7476,-0.7551,-0.8329,-0.8989,-0.916,-0.9307,-0.951,-0.9754,-0.9584,-0.9492,-0.9583,-0.9579,-0.9579,-0.9579,-0.9579,-0.9723,-0.9969,-1.0216,-1.0511,-1.0855,-1.159,-1.2024,-1.2078,-1.2521,-1.2813,-1.2813,-1.2813,-1.2856,-1.305,-1.305,-1.3152,-1.3443,-1.3636,-1.3786,-1.3931,-1.4406,-1.479,-1.5035,-1.5309,-1.554,-1.5784,-1.5981,-1.6123,-1.6224,-1.6697,-1.6972,-1.7163,-1.704,-1.7106,-1.7296,-1.7033,-1.7135,-1.7258,-1.7039,-1.6983,-1.6981,-1.6775,-1.6853,-1.7017,-1.7017,-1.718,-1.7383,-1.7538,-1.7659,-1.774,-1.791,-1.7951,-1.8,-1.8,-1.8,-1.8,-1.8,-1.8,-1.8,-1.8,-1.8,-1.8,-1.8,-1.8,-1.8,-1.8,-1.8201,-1.8402,-1.8612,-1.8812,-1.9033,-1.9262,-1.8758,-1.8386,-1.8309,-1.7254,-1.6713,-1.6806,-1.6482,-1.6316,-1.6316,-1.6246,-1.6035,-1.5726,-1.5691,-1.5611,-1.5505,-1.5691,-1.6035,-0.4421,-0.4867,-0.5337,-0.5659,-0.6036,-0.6424,0.0,0.0,-0.8093,-0.8465,-0.9041,-0.9498,-0.9522,-0.9719,-0.9836,-0.9798,-0.9738,-0.9629,-0.96,-0.9579,-0.9579,-0.9579,-0.9579,-0.9723,-0.9969,-1.0216,-1.0609,-1.1096,-1.1683,-1.2127,-1.2322,-1.2613,-1.2813,-1.2813,-1.2813,-1.2813,-1.2813,-1.2813,-1.2958,-1.3147,-1.3195,-1.3443,-1.3931,-1.4208,-1.449,-1.4736,-1.5029,-1.5267,-1.554,-1.5588,-1.5832,-1.6224,-1.6272,-1.6454,-1.6723,-1.7102,-1.725,-1.7279,-1.7289,-1.7421,-1.7565,-1.7122,-1.7152,-1.7251,-1.6812,-1.673,-1.673,-1.673,-1.6935,-1.7139,-1.7172,-1.7416,-1.77,-1.774,-1.787,-1.8,-1.8,-1.8,-1.8,-1.8,-1.8,-1.8,-1.8,-1.8,-1.8,-1.8,-1.8,-1.8,-1.8,-1.804,-1.8161,-1.8402,-1.8612,-1.8891,-1.9262,-1.8758,-1.827,-1.7882,-1.7242,-1.6766,-1.656,-1.6391,-1.6304,-1.6304,-1.5995,-1.5761,-1.5541,-1.5355,-1.5355,-1.5505,-1.5541,-1.5744,-0.4769,-0.5403,-0.6,0.0,-0.6754,-0.7208,-0.7429,-0.7947,-0.8495,-0.8827,-0.9253,-0.9651,-0.9823,-0.9795,-0.9745,0.0,-0.9665,-0.9538,-0.9587,-0.9579,-0.9529,-0.9381,-0.9529,-0.9776,-1.0167,-1.0314,-1.0708,-1.1389,-1.178,-1.2127,-1.237,-1.2667,-1.2813,-1.2813,-1.2813,-1.2813,-1.2813,-1.2813,-1.2861,-1.291,-1.305,-1.3195,-1.3443,-1.3877,-1.431,-1.4694,-1.4987,-1.5178,-1.5267,-1.5452,-1.5642,-1.5832,-1.6076,-1.6272,-1.6407,-1.677,-1.7012,-1.7113,-1.7113,-1.7394,-1.7617,-1.713,-1.7175,-1.7305,-1.682,-1.6689,-1.6689,-1.6689,-1.6771,-1.6894,-1.7057,-1.7212,-1.7416,-1.7659,-1.774,-1.787,-1.7951,-1.8,-1.8,-1.8,-1.8,-1.8,-1.8,-1.8,-1.8,-1.8,-1.8,-1.7951,-1.7821,-1.791,-1.8161,-1.8531,-1.8772,-1.8922,-1.9112,-1.8779,-1.8373,-1.7928,-1.738,-1.6935,-1.6677,-1.651,-1.6253,-1.597,-1.5937,-1.5652,-1.515,-1.5169,-1.5177,-1.515,-1.539,-1.5603,-0.523,-0.5959,0.0,-0.6944,-0.7518,-0.7985,-0.7985,-0.8384,-0.8806,-0.8927,-0.9243,-0.9545,-0.9702,-0.9609,-0.9526,-0.954,-0.949,-0.9434,-0.951,-0.9596,-0.9509,-0.9268,-0.9448,-0.9735,-1.0118,-1.0302,-1.0703,-1.1438,-1.1834,-1.2127,-1.237,-1.2667,-1.2813,-1.2813,-1.2813,-1.2813,-1.2813,-1.2813,-1.2813,-1.2813,-1.2953,-1.305,-1.3098,-1.3642,-1.4166,-1.4592,-1.479,-1.4933,-1.4981,-1.5213,-1.535,-1.554,-1.5879,-1.6028,-1.6123,-1.6305,-1.6588,-1.6878,-1.6979,-1.7214,-1.7431,-1.7041,-1.7087,-1.7218,-1.6737,-1.6648,-1.6689,-1.6689,-1.6689,-1.673,-1.6935,-1.7057,-1.7172,-1.7456,-1.7578,-1.7659,-1.787,-1.791,-1.791,-1.7991,-1.8,-1.8,-1.8,-1.8,-1.8,-1.791,-1.791,-1.787,-1.774,-1.7829,-1.8072,-1.8451,-1.8683,-1.8843,-1.8922,-1.8732,-1.8402,-1.7951,-1.7464,-1.7035,-1.67,-1.6417,-1.601,-1.5533,-1.5598,-1.534,-1.4756,-1.4927,-1.4963,-1.4908,-1.5185,-1.539,-0.5939,0.0,-0.7344,-0.8002,-0.848,-0.875,-0.875,-0.8976,-0.9114,-0.8941,-0.9126,-0.9244,-0.9049,-0.9173,-0.9222,-0.8968,-0.9183,-0.9388,-0.9384,-0.9514,-0.9563,-0.9433,-0.9518,-0.9587,0.0,-1.0049,-1.0605,-1.1145,-1.1683,-1.2127,-1.237,-1.2667,-1.2813,-1.2813,-1.2813,-1.2813,-1.2813,-1.2813,-1.2813,-1.2813,-1.2813,-1.2905,-1.3098,-1.3642,-1.407,-1.4298,-1.4346,-1.4496,-1.4694,-1.4736,-1.5022,-1.5493,-1.5547,-1.5635,-1.5832,-1.5825,-1.6163,-1.6636,-1.6925,-1.7026,-1.6965,-1.6766,-1.6867,-1.6921,-1.6521,-1.6566,-1.6689,-1.6689,-1.6689,-1.6689,-1.6689,-1.6894,-1.7098,-1.7139,-1.7261,-1.7473,-1.7659,-1.77,-1.7781,-1.7951,-1.8,-1.8,-1.8,-1.8,-1.791,-1.774,-1.77,-1.77,-1.77,-1.77,-1.7781,-1.8,-1.8282,-1.8482,-1.87,-1.8523,-1.8193,-1.774,-1.7326,-1.6919,-1.6419,-1.5897,-1.5459,-1.5134,-1.4785,-1.4585,-1.4425,-1.4425,-1.4577,-1.4908,-1.49,-1.5114,-0.6194,0.0,-0.7901,-0.8158,-0.8599,-0.9003,-0.9003,-0.8864,-0.8763,-0.8837,-0.8719,-0.8661,-0.8721,-0.8802,-0.8849,-0.889,-0.9088,-0.9251,-0.9375,-0.951,-0.9505,-0.9302,-0.9444,0.0,0.0,0.0,0.0,-1.0956,-1.1463,-1.1932,-1.237,-1.2467,-1.2619,-1.2813,-1.2813,-1.2813,-1.2813,-1.2813,-1.2813,-1.2813,-1.2813,-1.3007,-1.3394,-1.3539,-1.3877,-1.4298,-1.4298,-1.4346,-1.4442,-1.464,-1.4927,-1.5267,-1.5445,-1.5635,-1.5784,-1.5784,-1.5927,-1.6116,-1.6359,-1.6563,-1.6639,-1.6506,-1.6439,-1.6445,-1.641,-1.6435,-1.6525,-1.6648,-1.6689,-1.6689,-1.6689,-1.6779,-1.6894,-1.7057,-1.7139,-1.7261,-1.7465,-1.7619,-1.774,-1.7781,-1.791,-1.8,-1.8,-1.8,-1.7829,-1.7375,-1.7131,-1.7139,-1.7465,-1.7221,-1.7221,-1.774,-1.7991,-1.8161,-1.8241,-1.8161,-1.7951,-1.7546,-1.7098,-1.6689,-1.6394,-1.5885,-1.5427,-1.5118,-1.478,-1.4543,-1.4389,-1.4389,-1.4497,-1.4721,-1.4828,-1.5043,-0.6784,-0.7563,-0.8366,-0.8582,-0.8971,-0.9254,-0.9129,-0.8818,-0.8546,-0.854,-0.832,-0.8167,-0.8159,-0.8267,-0.8434,-0.8559,-0.8759,-0.8991,-0.9277,-0.9417,-0.9482,-0.9286,-0.9538,0.0,0.0,0.0,0.0,-1.0869,-1.1317,-1.1731,-1.2078,-1.2322,-1.2467,-1.2667,-1.2764,-1.2813,-1.2813,-1.2813,-1.2813,-1.2813,-1.2813,-1.3007,-1.3346,-1.3443,-1.3732,-1.416,-1.425,-1.4298,-1.4298,-1.449,-1.4742,-1.4981,-1.5261,-1.5499,-1.5683,-1.5784,-1.5784,-1.5832,-1.6123,-1.6253,-1.6351,-1.6254,-1.6191,-1.6167,-1.6163,-1.627,-1.6435,-1.6566,-1.6648,-1.6689,-1.6689,-1.6689,-1.673,-1.6935,-1.6976,-1.7017,-1.7229,-1.7383,-1.7497,-1.7587,-1.7749,-1.787,-1.787,-1.7838,-1.7635,-1.7261,-1.682,-1.6574,-1.6902,-1.6738,-1.6812,-1.7294,-1.7546,-1.7708,-1.7797,-1.7797,-1.7595,-1.7188,-1.6812,-1.6429,-1.6019,-1.5536,-1.5091,-1.4712,-1.4448,-1.4249,-1.4181,-1.4245,-1.4353,-1.4533,-1.4721,-1.49,-0.7628,-0.8178,-0.8651,-0.9271,-0.9486,-0.9527,-0.919,-0.8847,-0.8547,-0.8068,-0.7897,-0.7731,0.0,0.0,-0.7992,-0.8012,-0.8325,-0.8735,-0.9035,-0.9286,-0.9404,0.0,0.0,0.0,0.0,0.0,0.0,-1.0806,0.0,-1.1585,-1.1585,-1.2078,-1.237,-1.2419,-1.2667,-1.2813,-1.2813,-1.2813,-1.2813,-1.2813,-1.2813,-1.2905,-1.3098,-1.3394,-1.3636,-1.3931,-1.416,-1.4298,-1.4298,-1.4298,-1.4442,-1.4736,-1.4987,-1.5267,-1.554,-1.573,-1.5784,-1.5832,-1.6062,-1.6132,-1.605,-1.5986,-1.606,-1.6109,-1.5789,-1.6023,-1.6353,-1.6394,-1.6517,-1.6689,-1.6689,-1.6689,-1.6689,-1.6689,-1.6689,-1.6779,-1.7017,-1.709,-1.718,-1.7351,-1.7546,-1.77,-1.77,-1.7505,-1.7392,-1.7351,-1.6615,-1.6087,-1.6128,-1.6237,-1.6435,-1.6648,-1.6894,-1.7139,-1.731,-1.7351,-1.7147,-1.6689,-1.6468,-1.6019,-1.5343,-1.4887,-1.4443,-1.4027,-1.3852,-1.379,-1.3797,-1.3992,-1.4201,-1.4389,-1.4533,-1.4721,-0.7979,-0.8491,-0.9033,-0.9299,-0.9437,-0.9352,-0.9072,-0.8567,-0.8031,-0.7691,-0.7326,-0.7113,0.0,0.0,0.0,-0.7971,-0.8325,0.0,-0.8861,-0.9157,0.0,-0.9688,0.0,-1.0128,-1.0418,-1.0644,0.0,0.0,-1.1243,-1.1389,-1.1585,-1.1736,-1.198,-1.237,-1.2467,-1.2613,-1.2813,-1.2813,-1.2813,-1.2813,-1.2813,-1.2905,-1.3098,-1.3394,-1.3636,-1.3931,-1.416,-1.4298,-1.4298,-1.4298,-1.4442,-1.4736,-1.4987,-1.5267,-1.554,-1.573,-1.5784,-1.5798,-1.5631,-1.5677,-1.5718,-1.573,-1.5648,-1.5617,-1.568,-1.5775,-1.594,-1.6312,-1.6435,-1.6517,-1.6648,-1.6689,-1.6689,-1.6689,-1.6689,-1.673,-1.6771,-1.6976,-1.7139,-1.718,-1.7351,-1.7473,-1.7473,-1.7302,-1.7057,-1.673,-1.6147,-1.5948,-1.6278,-1.6064,-1.5989,-1.6252,-1.6443,-1.6599,-1.664,-1.664,-1.6599,-1.6476,-1.5917,-1.5499,-1.5295,-1.4593,-1.41,-1.3982,-1.3734,-1.3645,-1.3797,-1.3863,-1.4072,-1.4389,-1.4425,-1.4613,-0.8309,-0.8729,-0.912,-0.9218,-0.9251,-0.9104,-0.8734,-0.8132,-0.7555,-0.7175,-0.6914,0.0,0.0,0.0,0.0,0.0,0.0,0.0,-0.8932,-0.9334,-0.9647,0.0,-1.0197,0.0,-1.0757,-1.09,-1.1047,0.0,-1.1194,-1.1292,-1.1443,-1.1541,-1.178,-1.2224,-1.2322,-1.2516,-1.2813,-1.2813,-1.2813,-1.2813,-1.2813,-1.2861,-1.3001,-1.3195,-1.3491,-1.3738,0.0,-1.4202,-1.4298,-1.4298,-1.4394,-1.4544,-1.4939,-1.5172,-1.5356,-1.5689,-1.5752,-1.5618,-1.5451,-1.5343,-1.5293,-1.5411,-1.5397,-1.5431,-1.5541,-1.5616,-1.5733,-1.6023,-1.6229,-1.6435,-1.6517,-1.6648,-1.6689,-1.6689,-1.6689,-1.6689,-1.6689,-1.6771,-1.6804,-1.6804,-1.6976,-1.7147,-1.7261,-1.7098,-1.6853,-1.6566,-1.5982,-1.5643,-1.5933,-1.5658,-1.5533,-1.5782,-1.5982,-1.6093,-1.6069,-1.6054,-1.5952,-1.5717,-1.5295,-1.4971,-1.4758,-1.4249,-1.3916,-1.377,-1.3587,-1.3572,-1.3681,-1.3754,-1.3935,-1.4145,-1.4325,-1.4505,-0.8508,-0.8824,-0.9068,-0.9041,-0.9005,-0.8781,-0.822,-0.7645,-0.7083,-0.6652,0.0,-0.6485,-0.6399,-0.6864,-0.7331,-0.7732,0.0,-0.8601,-0.9078,-0.9506,-0.9872,-1.007,-1.0501,-1.0774,-1.085,-1.1047,-1.1194,-1.1194,-1.1194,-1.1194,-1.1194,-1.1438,-1.1736,-1.2029,-1.2322,-1.2565,-1.2813,-1.2813,-1.2813,-1.2813,-1.2813,-1.2813,-1.2813,-1.3001,-1.3249,-1.3443,0.0,0.0,-1.425,-1.4298,-1.4298,-1.4346,-1.4838,-1.5083,-1.5131,-1.5594,-1.5598,-1.5391,-1.5351,-1.5163,-1.492,-1.5116,-1.5255,-1.5389,-1.5389,-1.5499,-1.565,-1.5692,-1.5982,-1.6312,-1.6353,-1.6525,-1.6648,-1.6648,-1.6697,-1.6689,-1.6689,-1.6517,-1.6394,-1.6353,-1.6484,-1.6689,-1.6935,-1.6771,-1.6607,-1.6566,-1.5899,-1.536,-1.5311,-1.5159,-1.5124,-1.5269,-1.544,-1.5479,-1.5438,-1.5378,-1.5187,-1.4738,-1.4678,-1.4452,-1.4027,-1.3945,-1.3784,-1.3499,-1.3492,-1.3492,-1.3492,-1.3681,-1.3754,-1.3797,-1.4181,-1.4353,-0.8731,-0.882,-0.8856,-0.8769,-0.8675,-0.8401,-0.7775,-0.7137,0.0,0.0,-0.6122,-0.6039,-0.6358,-0.6901,-0.7398,-0.7744,0.0,0.0,0.0,0.0,-0.972,0.0,0.0,0.0,0.0,0.0,0.0,0.0,0.0,0.0,-1.1194,-1.1438,-1.1829,-1.2322,-1.2565,-1.2764,-1.2813,-1.2813,-1.2813,-1.2813,-1.2813,-1.2813,-1.2813,-1.3001,-1.3147,-1.3201,0.0,0.0,-1.3979,-1.4208,-1.4298,-1.4346,-1.464,-1.4885,-1.5131,-1.5452,-1.5504,-1.5357,-1.5169,-1.4994,-1.492,-1.5116,-1.517,-1.5173,-1.5347,-1.5423,-1.5506,-1.5658,-1.5775,-1.5865,-1.6079,-1.6278,-1.6435,-1.6435,-1.6566,-1.6689,-1.6689,-1.6517,-1.6353,-1.6162,-1.617,-1.6211,-1.6252,-1.6252,-1.6121,-1.5899,-1.545,-1.5082,-1.4859,-1.4776,-1.4776,-1.4817,-1.4633,-1.4545,-1.4529,-1.4327,-1.4241,-1.4308,-1.4048,-1.3919,-1.3989,-1.3718,-1.355,-1.3492,-1.3492,-1.3492,-1.3492,-1.3535,-1.3645,-1.3797,-1.4029,-1.4245,-0.8641,-0.8665,-0.8594,-0.8491,-0.8207,-0.7864,-0.7397,0.0,0.0,0.0,-0.5728,-0.5691,-0.6074,0.0,0.0,0.0,0.0,0.0,0.0,0.0,0.0,0.0,0.0,0.0,0.0,0.0,0.0,0.0,0.0,0.0,-1.1194,-1.1585,-1.1932,-1.2175,-1.2565,-1.2813,-1.2813,-1.2813,-1.2813,-1.2813,-1.2813,-1.2813,-1.2813,-1.291,-1.3001,-1.3098,-1.3539,0.0,-1.3931,-1.4208,-1.4298,-1.4346,-1.4592,-1.479,-1.4933,-1.5356,-1.5265,-1.5007,-1.501,-1.4764,-1.4516,-1.4709,-1.4817,-1.4957,-1.5173,-1.5257,-1.5298,-1.5499,-1.5616,-1.5733,-1.5865,-1.6079,-1.6237,-1.6237,-1.6327,-1.6376,-1.6376,-1.6196,-1.5989,-1.5756,-1.5831,-1.5906,-1.5906,-1.5906,-1.5865,-1.5741,-1.5242,-1.4866,-1.4741,-1.4351,-1.4234,-1.4503,-1.4378,-1.4216,-1.4055,-1.38,-1.3593,-1.3544,-1.3358,-1.3384,-1.3577,-1.3433,-1.3382,-1.3492,-1.3492,-1.3492,-1.3492,-1.3492,-1.3608,-1.3797,-1.3992,-1.4201,-0.8293,-0.8371,-0.8331,-0.8103,-0.7738,-0.7371,-0.7009,-0.6286,0.0,0.0,-0.5408,-0.5495,-0.5789,0.0,-0.7048,0.0,0.0,0.0,0.0,0.0,0.0,0.0,0.0,0.0,0.0,0.0,0.0,0.0,0.0,0.0,-1.1296,-1.1688,-1.198,-1.2078,-1.2467,-1.2759,-1.2813,-1.2813,-1.2813,-1.2813,-1.2813,-1.2813,-1.2813,-1.2813,-1.291,-1.305,-1.3298,0.0,0.0,-1.4112,-1.425,-1.4346,-1.4544,-1.464,-1.4736,-1.5159,-1.504,-1.4636,-1.4822,-1.4576,-1.4124,-1.4279,-1.4482,-1.4692,-1.4957,-1.5041,-1.5131,-1.5305,-1.5458,-1.5658,-1.5658,-1.5831,-1.6046,-1.6087,-1.6087,-1.6087,-1.6046,-1.5824,-1.5575,-1.5382,-1.5416,-1.5484,-1.5484,-1.5484,-1.5484,-1.5484,-1.4985,-1.465,-1.465,-1.4021,-1.3728,-1.4115,-1.4062,-1.3865,-1.3623,-1.3324,-1.3084,-1.284,-1.2826,-1.2936,-1.3119,-1.3119,-1.32,-1.3382,-1.3419,-1.3455,-1.3455,-1.3499,-1.3608,-1.3797,-1.3992,-1.4201,-0.7664,-0.7835,-0.7875,-0.7643,-0.744,-0.7119,-0.6447,0.0,0.0,-0.5202,-0.5267,-0.5458,-0.5583,-0.652,-0.7328,0.0,0.0,-0.8807,0.0,0.0,0.0,0.0,0.0,0.0,0.0,0.0,0.0,0.0,0.0,0.0,0.0,-1.159,-1.1878,-1.237,-1.2419,-1.2565,-1.2813,-1.2813,-1.2813,-1.2813,-1.2813,-1.2813,-1.2813,-1.2813,-1.2813,-1.2861,0.0,0.0,0.0,-1.3835,-1.407,-1.4298,-1.4346,-1.449,-1.4694,-1.4736,-1.4714,-1.4591,-1.4636,-1.4394,-1.4088,-1.413,-1.4243,-1.4482,-1.465,-1.4915,-1.509,-1.5131,-1.5257,-1.5423,-1.5423,-1.5582,-1.5782,-1.6046,-1.6087,-1.6046,-1.5782,-1.556,-1.536,-1.5166,-1.495,-1.4776,-1.4776,-1.4776,-1.4776,-1.4776,-1.4566,-1.444,-1.444,-1.3939,-1.3531,-1.3428,-1.3127,-1.2934,-1.2901,-1.2587,-1.2479,-1.2599,-1.2636,-1.2709,-1.2936,-1.2936,-1.2936,-1.2936,-1.3119,-1.3236,-1.3236,-1.3419,-1.3608,-1.3797,-1.3992,-1.4201,-0.7363,-0.7495,-0.7534,-0.7404,-0.7069,-0.6622,-0.605,0.0,-0.5113,-0.4818,-0.4885,-0.516,-0.5517,-0.6236,-0.6958,-0.7615,0.0,0.0,0.0,0.0,0.0,0.0,0.0,0.0,0.0,0.0,0.0,0.0,0.0,0.0,0.0,-1.1585,-1.1688,-1.1927,-1.2224,-1.2467,-1.2565,-1.2716,-1.2813,-1.2813,-1.2813,-1.2813,-1.2813,-1.2813,-1.2813,-1.2813,0.0,0.0,0.0,-1.3738,-1.3979,-1.407,-1.425,-1.4394,-1.4472,-1.4461,-1.4349,-1.4218,-1.4313,-1.4163,-1.3913,-1.4039,-1.4166,-1.4243,-1.444,-1.4608,-1.4699,-1.4824,-1.4908,-1.4999,-1.4999,-1.5033,-1.5151,-1.5416,-1.5374,-1.5284,-1.5333,-1.5151,-1.4943,-1.4866,-1.4783,-1.4692,-1.4692,-1.4692,-1.4692,-1.4692,-1.4454,-1.4201,-1.4201,-1.3655,-1.3166,-1.2917,-1.2726,-1.2554,-1.2453,-1.2254,-1.215,-1.2224,-1.2342,-1.2526,-1.2709,-1.2709,-1.2783,-1.29,-1.3083,-1.32,-1.32,-1.3382,-1.3608,-1.3797,-1.3992,-1.4129,-0.6729,-0.6884,-0.6884,-0.6932,-0.6584,-0.6056,0.0,0.0,-0.476,-0.439,-0.4567,-0.4966,-0.5386,-0.5982,-0.6685,-0.7516,0.0,-0.8206,0.0,0.0,0.0,0.0,0.0,0.0,0.0,0.0,0.0,0.0,0.0,0.0,0.0,-1.1634,-1.1585,-1.1585,-1.198,-1.2224,-1.2273,-1.2565,-1.2667,-1.2667,-1.2764,-1.2813,-1.2813,-1.2813,-1.2813,-1.2807,0.0,0.0,0.0,-1.3465,-1.3717,-1.3931,-1.4118,-1.425,-1.4268,-1.4196,-1.4072,-1.389,-1.3957,-1.3849,-1.3737,-1.3913,-1.4046,-1.4124,-1.4286,-1.4356,-1.444,-1.4566,-1.4608,-1.4608,-1.4608,-1.4566,-1.4566,-1.4741,-1.465,-1.4608,-1.4824,-1.4657,-1.4447,-1.4489,-1.4405,-1.4321,-1.4321,-1.4321,-1.4321,-1.4321,-1.4075,-1.387,-1.387,-1.3364,-1.2836,-1.2477,-1.2311,-1.2145,-1.2069,-1.1983,-1.1892,-1.1892,-1.204,-1.2194,-1.2342,-1.2342,-1.2415,-1.2636,-1.282,-1.2973,-1.3119,-1.3309,-1.3564,-1.3797,-1.3964,-1.4029,-0.5605,-0.5817,-0.5947,-0.6086,-0.5919,-0.5568,0.0,-0.4735,-0.4461,-0.3915,-0.4374,-0.4951,-0.5167,-0.5841,-0.661,-0.7201,-0.7569,0.0,0.0,0.0,0.0,0.0,0.0,0.0,0.0,0.0,0.0,0.0,0.0,0.0,0.0,0.0,-1.1585,-1.1585,-1.159,-1.1736,-1.198,-1.2273,-1.2419,-1.2419,-1.2662,-1.2813,-1.2813,-1.2813,-1.2813,0.0,0.0,0.0,0.0,-1.2897,-1.3227,-1.3883,-1.3883,-1.407,-1.4262,-1.4002,-1.3881,-1.3845,-1.3598,-1.3584,-1.3695,-1.3695,-1.3864,-1.4088,-1.4088,-1.4243,-1.4398,-1.4398,-1.4398,-1.4398,-1.4398,-1.4265,-1.4097,-1.4097,-1.4097,-1.4139,-1.4349,-1.4019,-1.3779,-1.4039,-1.3737,-1.3392,-1.3392,-1.3392,-1.3392,-1.3392,-1.3398,-1.3398,-1.3398,-1.3156,-1.2754,-1.2083,-1.1691,-1.1572,-1.1701,-1.1706,-1.1706,-1.1706,-1.1706,-1.1706,-1.1706,-1.1706,-1.1781,-1.2003,-1.2224,-1.2526,-1.29,-1.3119,-1.3419,-1.3797,-1.3797,-1.3891,-0.4852,-0.5124,-0.5292,-0.5333,-0.5106,-0.4747,-0.4264,-0.4144,-0.4041,-0.3797,-0.4244,-0.4817,-0.5265,-0.5841,-0.6506,-0.7197,-0.7569,0.0,0.0,0.0,0.0,0.0,0.0,0.0,0.0,0.0,0.0,0.0,0.0,0.0,0.0,0.0,-1.1585,-1.1585,-1.1585,-1.1634,-1.1736,-1.198,-1.2127,-1.2122,-1.2069,-1.205,-1.204,-1.2068,0.0,0.0,0.0,0.0,0.0,-1.2731,-1.3031,-1.3394,-1.3738,-1.3861,-1.3761,-1.3638,-1.3522,-1.3345,-1.3281,-1.3254,-1.3355,-1.361,-1.3737,-1.3828,-1.3828,-1.3864,-1.3857,-1.3603,-1.3512,-1.347,-1.33,-1.3173,-1.3173,-1.3385,-1.3428,-1.3476,-1.3688,-1.3603,-1.3525,-1.361,-1.3483,-1.3398,-1.3398,-1.3398,-1.3398,-1.3398,-1.3264,-1.3179,-1.3179,-1.2977,-1.254,-1.1813,-1.1609,-1.1378,-1.0923,-1.0999,-1.1149,-1.1298,-1.1409,-1.1558,-1.1706,-1.1706,-1.1744,-1.1781,-1.212,-1.2378,-1.2489,-1.282,-1.3119,-1.3382,-1.3382,-1.3564,0.0,-0.4373,-0.4531,-0.4577,-0.4393,0.0,0.0,-0.3685,-0.3743,-0.3698,-0.4206,-0.48,-0.5303,-0.5832,-0.6415,-0.7037,-0.7489,0.0,0.0,0.0,0.0,0.0,0.0,0.0,0.0,0.0,0.0,0.0,0.0,0.0,0.0,0.0,-1.1683,-1.1585,-1.1487,-1.1438,-1.1438,-1.1657,-1.1758,-1.1709,-1.1632,-1.1577,-1.1572,-1.161,0.0,0.0,0.0,0.0,0.0,-1.2467,-1.2703,-1.3025,-1.3457,-1.357,-1.3496,-1.3381,-1.3255,-1.3085,-1.2973,-1.3009,-1.3143,-1.3392,-1.3525,-1.3568,-1.3392,-1.3392,-1.3434,-1.3185,-1.2966,-1.2796,-1.2619,-1.2497,-1.2497,-1.2631,-1.2674,-1.2759,-1.2966,-1.2924,-1.2887,-1.3009,-1.2924,-1.2887,-1.2887,-1.2973,-1.3009,-1.3009,-1.2966,-1.293,-1.2825,-1.2644,-1.223,-1.1438,-1.134,-1.1054,-1.0327,-1.0513,-1.0738,-1.085,-1.0999,-1.1111,-1.1223,-1.1335,-1.1409,-1.1484,-1.1781,-1.204,-1.2194,-1.2599,-1.29,-1.3083,-1.3083,-1.3229,0.0,-0.3641,0.0,0.0,0.0,0.0,-0.3423,-0.3428,0.0,-0.3653,-0.4231,-0.4854,-0.5313,-0.5859,-0.6379,-0.6815,0.0,0.0,0.0,0.0,0.0,0.0,0.0,0.0,0.0,0.0,0.0,0.0,0.0,0.0,0.0,0.0,0.0,-1.159,-1.1297,-1.1156,-1.1175,-1.1216,-1.1252,-1.1248,-1.1306,-1.1339,-1.1339,-1.1319,0.0,0.0,0.0,0.0,0.0,-1.2067,-1.2352,-1.2792,-1.296,-1.318,-1.3345,-1.3157,-1.3091,-1.3017,-1.2795,-1.2833,-1.3052,-1.3052,-1.3179,-1.3222,-1.279,-1.2839,-1.3052,-1.3009,-1.2668,-1.232,-1.232,-1.2118,-1.1957,-1.1957,-1.2,-1.2037,-1.2326,-1.216,-1.208,-1.2326,-1.216,-1.2,-1.2,-1.2203,-1.2363,-1.2363,-1.2534,-1.2566,-1.2307,-1.233,-1.1968,-1.1003,-1.093,-1.0634,-0.9943,-1.0255,-1.0481,-1.0513,-1.0519,-1.0513,-1.0556,-1.07,-1.0925,-1.1111,-1.1298,-1.1595,-1.1966,-1.2342,-1.2636,-1.2826,-1.282,-1.2826,-0.3005,0.0,-0.3334,-0.3357,-0.3256,-0.3152,0.0,-0.3145,-0.3283,-0.3567,-0.42,-0.4854,-0.5313,-0.5923,-0.6482,0.0,0.0,0.0,0.0,0.0,0.0,0.0,0.0,0.0,0.0,0.0,0.0,0.0,0.0,0.0,0.0,0.0,-1.1371,-1.1143,-1.0857,-1.0801,-1.0967,-1.0848,-1.0743,-1.0739,-1.0625,-1.0574,-1.0564,-1.0568,0.0,0.0,0.0,0.0,-1.1779,-1.1779,-1.197,-1.2278,-1.2472,-1.2483,-1.2395,-1.2746,-1.2736,-1.258,-1.2686,-1.2619,-1.2577,-1.2577,-1.2619,-1.2577,-1.2272,-1.2363,-1.2448,-1.1886,-1.1542,-1.1332,-1.1343,-1.1267,-1.1311,-1.1699,-1.1785,-1.1828,-1.2037,-1.2037,-1.2043,-1.208,-1.2037,-1.2,-1.2,-1.2037,-1.208,-1.208,-1.2326,-1.2354,-1.21,-1.2362,-1.2171,-1.1026,-1.1084,-1.0858,-0.996,-1.0143,-1.0331,-1.0475,-1.0625,-1.0812,-1.0962,-1.0999,-1.1037,-1.1111,-1.1298,-1.1521,-1.1781,-1.1855,-1.1929,-1.2003,-1.215,-1.2224,-0.2968,-0.3075,-0.3155,-0.3155,-0.3114,-0.3042,-0.3042,-0.3201,-0.3413,-0.3719,-0.4384,-0.5063,-0.5461,0.0,0.0,0.0,0.0,0.0,0.0,0.0,0.0,0.0,0.0,0.0,0.0,0.0,0.0,0.0,0.0,0.0,0.0,0.0,-1.117,-1.0852,-1.0577,-1.0583,-1.0745,-1.0542,-1.0483,-1.0478,-1.027,-1.017,-1.0165,-1.0178,0.0,0.0,0.0,0.0,-1.1372,-1.1522,-1.1684,-1.1943,-1.2188,-1.2129,-1.2054,-1.232,-1.2336,-1.2246,-1.2332,-1.224,-1.2063,-1.1929,-1.1886,-1.1843,-1.1628,-1.1542,-1.1499,-1.1241,-1.1025,-1.0857,-1.0868,-1.0916,-1.1051,-1.1311,-1.144,-1.157,-1.1656,-1.1693,-1.1693,-1.1693,-1.1693,-1.1693,-1.1693,-1.1785,-1.1832,-1.1708,-1.2,-1.2113,-1.1858,-1.2153,-1.207,-1.1294,-1.1284,-1.1005,-1.0264,-1.0313,-1.0384,-1.0374,-1.055,-1.07,-1.0812,-1.0925,-1.0999,-1.1111,-1.1223,-1.1372,-1.1558,-1.1558,-1.1595,-1.1706,-1.1818,-1.1855,-0.3102,-0.3186,-0.3218,-0.3207,-0.321,-0.3215,-0.3288,-0.3521,-0.3806,0.0,0.0,0.0,0.0,-0.634,0.0,0.0,0.0,0.0,0.0,0.0,0.0,0.0,0.0,0.0,0.0,0.0,0.0,0.0,0.0,0.0,0.0,0.0,0.0,-1.0521,-1.036,-1.035,-1.0521,-1.0355,-1.027,-1.0265,-1.008,-0.9994,-0.9994,-0.9994,0.0,0.0,0.0,0.0,-1.0937,-1.1217,-1.1428,-1.1622,-1.182,-1.1907,-1.191,-1.1905,-1.1909,-1.1909,-1.1866,-1.1725,-1.1542,-1.1284,-1.1198,-1.1154,-1.0939,-1.0722,-1.0593,-1.0809,-1.0727,-1.0598,-1.0641,-1.0781,-1.0916,-1.0965,-1.1138,-1.1262,-1.1305,-1.1305,-1.1305,-1.1305,-1.1305,-1.1295,-1.1257,-1.1423,-1.1512,-1.1216,-1.1604,-1.1815,-1.1543,-1.1817,-1.1928,-1.1594,-1.1439,-1.1192,-1.0735,-1.0656,-1.0512,-1.0328,-1.0428,-1.0513,-1.0513,-1.0663,-1.0812,-1.0999,-1.0999,-1.1074,-1.126,-1.1298,-1.1409,-1.1558,-1.1595,-1.1595,-0.3357,-0.3522,-0.3683,-0.3699,-0.3698,-0.3809,-0.4183,-0.433,-0.445,0.0,0.0,0.0,0.0,-0.6728,0.0,0.0,0.0,0.0,0.0,0.0,0.0,0.0,0.0,0.0,0.0,0.0,0.0,0.0,0.0,0.0,0.0,0.0,0.0,-1.0089,-1.0061,-1.0061,-1.0089,-1.0061,-1.0047,-1.0047,-1.0009,-0.9994,-0.9994,-0.9994,-1.0038,0.0,0.0,-1.0337,-1.0429,-1.0865,-1.106,-1.1109,-1.114,-1.1266,-1.1402,-1.1386,-1.1402,-1.137,-1.1203,-1.1117,-1.1068,-1.0857,-1.0771,-1.0727,-1.0511,-1.0381,-1.0337,-1.0207,-1.0125,-1.0168,-1.0337,-1.0381,-1.0516,-1.0916,-1.1008,-1.1094,-1.1262,-1.1305,-1.1305,-1.1305,-1.1305,-1.1241,-1.1079,-1.1084,-1.1003,-1.0765,-1.1098,-1.1313,-1.1029,-1.1803,-1.208,-1.1416,-1.1513,-1.1536,-1.1204,-1.0835,-1.0668,-1.0778,-1.06,-1.0513,-1.0513,-1.0513,-1.055,-1.0588,-1.0588,-1.0625,-1.0625,-1.0812,-1.0925,-1.0925,-1.1111,-1.1186,-0.3719,-0.3771,-0.3899,-0.4333,-0.4301,-0.4315,-0.4817,-0.5064,-0.5278,0.0,0.0,0.0,0.0,0.0,0.0,0.0,0.0,0.0,0.0,0.0,0.0,0.0,0.0,0.0,0.0,0.0,0.0,0.0,0.0,0.0,0.0,0.0,0.0,0.0,-0.9994,-0.9994,-0.9994,-0.9994,-0.9994,-0.9994,-0.9994,-0.9994,-0.9994,-0.9864,-0.9777,-0.9777,0.0,-0.9907,-1.0164,-1.0391,-1.0608,-1.0824,-1.0824,-1.0911,-1.0992,-1.0987,-1.0987,-1.0939,-1.0679,-1.0641,-1.0598,-1.0386,-1.0342,-1.0294,-1.0164,-1.012,-1.0125,-1.0038,-0.9994,-1.0038,-1.012,-1.0207,-1.0337,-1.0559,-1.0738,-1.0868,-1.1089,-1.1138,-1.1181,-1.1267,-1.1198,-1.1117,-1.1004,-1.088,-1.0719,-1.0487,-1.073,-1.092,-1.0932,-1.1432,-1.1786,-1.1701,-1.1708,-1.1595,-1.1336,-1.0853,-1.06,-1.068,-1.0581,-1.0513,-1.0513,-1.0513,-1.0513,-1.0513,-1.0513,-1.0513,-1.0513,-1.0588,-1.0625,-1.0625,-1.0738,-1.0812,-0.3965,-0.3938,-0.4029,-0.4833,-0.4819,-0.4796,-0.5481,-0.5823,-0.6088,-0.6387,0.0,0.0,0.0,0.0,0.0,0.0,0.0,0.0,0.0,0.0,0.0,0.0,0.0,0.0,0.0,0.0,0.0,0.0,0.0,0.0,0.0,0.0,0.0,0.0,-0.9994,-0.9994,-0.9994,-0.9994,-0.9994,-0.9994,-0.9994,-0.9951,-0.9907,-0.9689,-0.9559,-0.9432,-0.9345,-0.9476,-0.9733,-0.9864,-1.0125,-1.0424,-1.0424,-1.0424,-1.0467,-1.0511,-1.0559,-1.0511,-1.0294,-1.025,-1.0197,-0.9981,-0.9923,-0.9914,-0.9862,-0.9885,-0.9923,-0.9923,-0.9956,-0.9994,-0.9994,-1.012,-1.025,-1.0294,-1.0467,-1.0631,-1.0806,-1.0881,-1.0952,-1.1065,-1.0989,-1.0885,-1.0832,-1.0676,-1.0476,-1.0245,-1.0406,-1.0597,-1.0798,-1.1092,-1.143,-1.1801,-1.1752,-1.1551,-1.1255,-1.089,-1.0614,-1.0448,-1.0402,-1.0368,-1.0368,-1.0368,-1.0368,-1.0368,-1.0368,-1.0368,-1.0368,-1.0406,-1.0438,-1.0438,-1.0481,-1.0588,-0.3965,-0.3993,-0.4173,-0.4986,-0.5083,-0.525,-0.6334,-0.6627,-0.6791,-0.739,0.0,0.0,0.0,0.0,0.0,0.0,0.0,0.0,0.0,0.0,0.0,0.0,0.0,0.0,0.0,0.0,0.0,0.0,0.0,0.0,0.0,0.0,0.0,0.0,0.0,-0.9994,-0.9994,-0.9994,-0.9994,-0.9994,-0.9994,-0.9864,-0.9646,-0.9602,-0.9345,-0.8955,-0.9213,-0.9174,-0.8999,-0.9428,-0.9646,-0.9689,-0.9689,-0.9689,-0.9689,-0.9951,-1.0038,-1.0038,-1.0038,-1.0038,-0.9961,-0.9729,-0.9625,-0.9587,-0.939,-0.9465,-0.9625,-0.9625,-0.9804,-0.9994,-0.9994,-0.9994,-1.0081,-1.025,-1.0294,-1.0326,-1.0341,-1.0506,-1.0569,-1.0408,-1.0513,-1.0554,-1.0379,-1.0331,-1.0234,-0.9981,-1.0159,-1.032,-1.0359,-1.0911,-1.1322,-1.1338,-1.1555,-1.1508,-1.1046,-1.0977,-1.077,-1.0322,-1.0084,-0.996,-0.996,-0.996,-0.996,-0.996,-0.996,-0.996,-0.996,-1.0143,-1.0218,-1.0218,-1.0406,-1.0519,-0.427,-0.4298,-0.4478,-0.5169,-0.543,-0.5837,-0.6827,-0.725,-0.7531,-0.7988,-0.8203,0.0,0.0,0.0,0.0,0.0,0.0,0.0,0.0,0.0,0.0,0.0,0.0,0.0,0.0,0.0,0.0,0.0,0.0,0.0,0.0,0.0,0.0,0.0,0.0,-0.9994,-0.9994,-0.9994,-0.9907,-0.9733,-0.9733,-0.9689,-0.9602,-0.9301,-0.9082,-0.8911,-0.8872,-0.8872,-0.8911,-0.9087,-0.9257,-0.9432,-0.9432,-0.9432,-0.9432,-0.9519,-0.9563,-0.9563,-0.9563,-0.9568,-0.9539,-0.9465,-0.9433,-0.939,-0.9305,-0.9338,-0.9404,-0.9404,-0.9597,-0.979,-0.9961,-0.9994,-1.0038,-1.0081,-0.9981,-0.9909,-1.0085,-1.0081,-1.0039,-1.009,-1.0073,-1.0029,-0.9946,-0.9888,-0.9839,-0.9749,-0.9888,-1.0169,-1.0466,-1.07,-1.0921,-1.1096,-1.1214,-1.1123,-1.0794,-1.0767,-1.0621,-1.0309,-1.0056,-0.9884,-0.9884,-0.9884,-0.9884,-0.9884,-0.9884,-0.9884,-0.9884,-0.9992,-0.9992,-1.003,-1.0105,-1.018,-0.4436,-0.4525,-0.4709,-0.5329,-0.5807,-0.6331,-0.7256,-0.7631,-0.795,-0.8402,-0.8604,-0.877,-0.8943,0.0,0.0,0.0,0.0,0.0,0.0,0.0,0.0,0.0,0.0,0.0,0.0,0.0,0.0,0.0,0.0,0.0,0.0,0.0,0.0,0.0,0.0,0.0,-0.9994,-0.9907,-0.9777,-0.9602,-0.9384,-0.9292,-0.9253,-0.8951,-0.8732,-0.856,-0.8516,-0.856,-0.8688,-0.878,-0.8911,-0.9087,-0.9087,-0.9087,-0.9087,-0.913,-0.9174,-0.9165,-0.9187,-0.921,-0.9203,-0.9123,-0.911,-0.9097,-0.9108,-0.9176,-0.9188,-0.9188,-0.9338,-0.9536,-0.9719,-0.9895,-0.9994,-0.9994,-0.9795,-0.9625,-0.9768,-0.9666,-0.9616,-0.9677,-0.9616,-0.9583,-0.9583,-0.9538,-0.957,-0.9719,-0.9839,-1.0103,-1.0544,-1.0656,-1.0819,-1.0966,-1.0959,-1.0849,-1.0731,-1.061,-1.0487,-1.0412,-1.01,-0.9884,-0.9884,-0.9884,-0.9884,-0.9884,-0.9884,-0.9884,-0.9884,-0.9884,-0.9884,-0.9884,-0.9884,-0.996,-0.4439,-0.4604,-0.4874,-0.5539,0.0,0.0,-0.7599,-0.7801,-0.7987,-0.8581,-0.8703,-0.877,-0.8948,0.0,0.0,0.0,0.0,0.0,0.0,0.0,0.0,0.0,0.0,0.0,0.0,0.0,0.0,0.0,0.0,0.0,0.0,0.0,0.0,0.0,0.0,0.0,-0.9994,-0.9733,-0.9602,-0.9602,-0.8899,-0.8592,-0.8592,-0.8592,-0.8332,-0.79,-0.8113,-0.8201,-0.8201,-0.8476,-0.8612,-0.8608,-0.8608,-0.8608,-0.8608,-0.8819,-0.8907,-0.8921,-0.8982,-0.8996,-0.8977,-0.876,-0.8713,-0.8712,-0.8688,-0.885,-0.8981,-0.8981,-0.9126,-0.9282,-0.9282,-0.9634,-0.999,-0.999,-0.979,-0.954,-0.9324,-0.9277,-0.9228,-0.9023,-0.9175,-0.9284,-0.9289,-0.9289,-0.9474,-0.9927,-1.0003,-1.0166,-1.0565,-1.0842,-1.0995,-1.0982,-1.0824,-1.0776,-1.0965,-1.0585,-1.04,-1.0597,-1.0152,-0.9884,-0.9884,-0.9884,-0.9884,-0.9884,-0.9884,-0.9884,-0.9884,-0.9884,-0.9884,-0.9884,-0.9884,-0.9884,-0.4759,-0.4941,0.0,-0.5897,0.0,0.0,0.0,-0.7908,0.0,0.0,-0.8822,-0.8952,-0.9155,0.0,0.0,0.0,0.0,0.0,0.0,0.0,0.0,0.0,0.0,0.0,0.0,0.0,0.0,0.0,0.0,0.0,0.0,0.0,0.0,0.0,0.0,0.0,-0.9733,-0.9519,-0.9209,-0.8899,-0.8679,-0.8592,-0.8592,-0.8245,-0.8028,-0.79,-0.794,-0.8069,-0.8201,-0.8476,-0.8535,-0.8373,-0.8373,-0.8292,-0.8178,-0.8258,-0.8258,-0.825,-0.8276,-0.8341,-0.8339,-0.8307,-0.8373,-0.8481,-0.8493,-0.8636,-0.8798,-0.8798,-0.8949,-0.9075,-0.9075,-0.9308,-0.9511,-0.9511,-0.9356,-0.915,-0.9084,-0.8984,-0.8856,-0.8794,-0.8818,-0.8909,-0.9062,-0.9204,-0.9394,-0.9697,-1.0008,-1.0374,-1.0812,-1.0969,-1.0967,-1.0814,-1.0733,-1.0641,-1.0516,-1.0383,-1.0316,-1.0405,-1.0066,-0.9897,-0.9889,-0.9884,-0.9884,-0.9884,-0.9884,-0.9884,-0.9884,-0.9884,-0.9884,-0.9884,-0.9884,-0.9884,-0.493,-0.5228,0.0,-0.6173,-0.6674,-0.7182,-0.7877,0.0,0.0,0.0,0.0,0.0,0.0,0.0,0.0,0.0,0.0,0.0,0.0,0.0,0.0,0.0,0.0,0.0,0.0,0.0,0.0,0.0,0.0,0.0,0.0,0.0,0.0,0.0,0.0,0.0,-0.9476,-0.917,-0.8859,-0.8592,-0.8288,-0.8113,-0.8021,-0.7808,-0.768,-0.7588,-0.768,-0.7852,-0.8109,-0.8178,-0.8127,-0.8025,-0.8042,-0.7988,-0.7892,-0.7971,-0.8012,-0.8004,-0.7935,-0.7966,-0.7982,-0.799,-0.8082,-0.8178,-0.8365,-0.8475,-0.8589,-0.8665,-0.8798,-0.8858,-0.878,-0.8895,-0.9085,-0.9252,-0.9152,-0.9004,-0.9009,-0.8833,-0.8703,-0.8703,-0.877,-0.8869,-0.8962,-0.9166,-0.9415,-0.972,-1.0161,-1.0579,-1.0966,-1.0905,-1.0776,-1.068,-1.059,-1.0511,-1.0467,-1.0269,-1.0173,-1.029,-0.9977,-0.9774,-0.9799,-0.9856,-0.9884,-0.9884,-0.9884,-0.9846,-0.9771,-0.9771,-0.9733,-0.9657,-0.9657,-0.9657,-0.5027,-0.5462,-0.5998,-0.6415,-0.7043,0.0,-0.8275,-0.8557,-0.8765,-0.8938,0.0,0.0,0.0,0.0,0.0,0.0,0.0,0.0,0.0,0.0,0.0,0.0,0.0,0.0,0.0,0.0,0.0,0.0,0.0,0.0,0.0,0.0,0.0,0.0,0.0,0.0,-0.9213,-0.8771,-0.8548,0.0,-0.7808,-0.7323,-0.7098,-0.7326,-0.7326,-0.7098,-0.737,-0.7628,-0.7819,-0.7666,-0.7584,-0.7539,-0.7601,-0.7655,-0.7644,-0.7845,-0.7922,-0.7902,-0.7829,-0.7775,-0.7786,-0.7781,-0.7804,-0.788,-0.8217,-0.8365,-0.8403,-0.8589,-0.8627,-0.8594,-0.846,-0.8533,-0.8773,-0.9135,-0.9087,-0.8958,-0.8977,-0.883,-0.8665,-0.8703,-0.8874,-0.899,-0.9009,-0.9178,-0.9458,-0.9952,-1.0312,-1.0637,-1.0914,-1.0742,-1.058,-1.0601,-1.0404,-1.0404,-1.0641,-1.0203,-1.0001,-1.0233,-0.9852,-0.9617,-0.9636,-0.975,-0.9846,-0.9846,-0.9846,-0.9771,-0.9587,-0.9587,-0.9473,-0.9284,-0.9284,-0.9284,-0.5375,-0.5735,0.0,0.0,-0.7407,-0.8049,-0.8344,-0.8557,-0.8765,0.0,0.0,0.0,0.0,0.0,0.0,0.0,0.0,0.0,0.0,0.0,0.0,0.0,0.0,0.0,0.0,0.0,0.0,0.0,0.0,0.0,0.0,0.0,0.0,0.0,0.0,-0.8907,-0.8767,-0.846,-0.8113,0.0,-0.7367,-0.7054,-0.6881,-0.6928,-0.6928,-0.6881,-0.7326,-0.7476,-0.7443,-0.7532,-0.745,-0.7215,-0.7222,-0.7164,-0.709,-0.7289,-0.7368,-0.7403,-0.7518,-0.758,-0.7575,-0.7573,-0.7684,-0.7804,-0.7919,-0.803,-0.8178,-0.8217,-0.8217,-0.8252,-0.836,-0.8431,-0.8524,-0.8703,-0.8628,-0.8555,-0.8728,-0.862,-0.8513,-0.8665,-0.8874,-0.9032,-0.9192,-0.9395,-0.9634,-0.9934,-1.0191,-1.0377,-1.0449,-1.0545,-1.0614,-1.0585,-1.0442,-1.0326,-1.0366,-1.0125,-0.9986,-0.9986,-0.9888,-0.9843,-0.9842,-0.9573,-0.9435,-0.9435,-0.9435,-0.9397,-0.9359,-0.9359,-0.9279,-0.9079,-0.9241,-0.9203,-0.5328,0.0,0.0,-0.6898,0.0,-0.7856,-0.8057,-0.8257,0.0,0.0,0.0,0.0,0.0,0.0,0.0,0.0,0.0,0.0,0.0,0.0,0.0,0.0,0.0,0.0,0.0,0.0,0.0,0.0,0.0,0.0,0.0,0.0,0.0,0.0,-0.8516,-0.838,-0.8245,-0.7984,-0.7676,-0.7323,-0.7054,-0.6792,-0.6482,-0.6567,-0.6612,-0.6612,-0.6877,-0.693,-0.6833,-0.6932,-0.6847,-0.6668,-0.6792,-0.6826,-0.6788,-0.6984,-0.7103,-0.7223,-0.7334,-0.7407,-0.7484,-0.7484,-0.7561,-0.7684,-0.7765,-0.788,-0.7991,-0.8068,-0.8102,-0.8107,-0.8216,-0.8298,-0.8354,-0.8434,-0.8491,-0.8524,-0.8608,-0.8576,-0.856,-0.8684,-0.8874,-0.9018,-0.9122,-0.931,-0.9534,-0.9824,-0.9819,-0.9877,-1.0002,-1.0102,-1.0148,-1.0187,-1.0144,-1.0152,-1.018,-1.0067,-0.9947,-0.9752,-0.9738,-0.9722,-0.9617,-0.9417,-0.935,-0.944,-0.9339,-0.9251,-0.9175,-0.9056,-0.8894,-0.8703,-0.8708,-0.867,-0.5191,0.0,-0.6325,-0.7091,-0.7416,0.0,-0.7763,-0.7957,0.0,0.0,0.0,0.0,0.0,0.0,0.0,0.0,0.0,0.0,0.0,0.0,0.0,0.0,0.0,0.0,0.0,0.0,0.0,0.0,0.0,0.0,0.0,0.0,-0.7856,-0.79,-0.79,-0.7856,-0.7764,-0.7547,-0.7279,-0.6962,-0.6792,-0.6438,-0.6041,-0.6213,-0.6299,-0.634,-0.6363,-0.6325,-0.6239,-0.6229,-0.621,-0.6188,-0.6379,-0.6525,-0.6563,-0.6788,-0.6984,-0.7142,-0.718,-0.7334,-0.7484,-0.7484,-0.7484,-0.7522,-0.7684,-0.7761,-0.7799,-0.7949,-0.8013,-0.8043,-0.807,-0.8179,-0.8326,-0.8339,-0.8476,-0.8595,-0.8608,-0.8608,-0.8649,-0.8703,-0.8874,-0.8995,-0.9028,-0.9173,-0.9354,-0.9559,-0.9408,-0.936,-0.956,-0.9594,-0.9649,-0.9684,-0.9821,-0.9903,-0.9976,-0.9928,-0.9783,-0.9602,-0.9576,-0.9488,-0.9365,-0.9331,-0.9361,-0.9548,-0.9334,-0.9133,-0.8946,-0.8746,-0.8551,-0.8327,-0.8178,-0.8068,-0.5445,0.0,-0.6527,0.0,-0.7416,-0.7539,0.0,0.0,0.0,0.0,0.0,0.0,0.0,0.0,0.0,0.0,0.0,0.0,0.0,0.0,0.0,0.0,0.0,0.0,0.0,0.0,0.0,0.0,0.0,0.0,0.0,-0.7551,-0.768,-0.79,-0.79,-0.7676,-0.7231,-0.7187,-0.6918,-0.6476,-0.6302,-0.6041,-0.5733,-0.5777,-0.5908,-0.6163,-0.6272,-0.6187,-0.6053,-0.5997,-0.5937,-0.5928,-0.5986,-0.6138,-0.6377,-0.6563,-0.6753,-0.698,-0.7142,-0.7334,-0.7484,-0.7484,-0.7484,-0.7522,-0.7522,-0.7522,-0.7561,-0.7561,-0.7715,-0.7884,-0.7975,-0.8155,-0.8343,-0.8531,-0.8599,-0.8578,-0.8586,-0.8524,-0.8483,-0.8665,-0.8874,-0.9037,-0.9211,-0.9263,-0.9266,-0.9131,-0.9197,-0.9267,-0.9129,-0.9253,-0.9438,-0.9669,-0.9503,-0.9575,-0.9952,-0.963,-0.9467,-0.9593,-0.9453,-0.9392,-0.9566,-0.9374,-0.9299,-0.9325,-0.9126,-0.8931,-0.8742,-0.8556,-0.8327,-0.814,-0.8106,-0.7991,-0.5551,-0.5862,-0.6222,0.0,-0.6869,-0.7101,-0.7318,0.0,0.0,0.0,0.0,0.0,0.0,0.0,0.0,0.0,0.0,0.0,0.0,0.0,0.0,0.0,0.0,0.0,0.0,0.0,0.0,0.0,0.0,0.0,-0.7279,-0.7149,-0.7149,-0.7279,-0.7279,-0.7102,-0.6697,-0.6877,-0.67,-0.6213,-0.5994,-0.5786,-0.5586,-0.5586,-0.5711,-0.5858,-0.5863,-0.578,-0.5651,-0.5688,-0.5634,-0.5589,-0.5822,-0.598,-0.6099,-0.6335,-0.6563,-0.6753,-0.6834,-0.6984,-0.7173,-0.7173,-0.7253,-0.7334,-0.7334,-0.7407,-0.7484,-0.7484,-0.754,-0.76,-0.7767,-0.7857,-0.799,-0.8297,-0.838,-0.84,-0.856,-0.8559,-0.8538,-0.8688,-0.8779,-0.8869,-0.8959,-0.8973,-0.8944,-0.8855,-0.8918,-0.8923,-0.8837,-0.8899,-0.9009,-0.914,-0.9145,-0.9263,-0.9564,-0.9536,-0.944,-0.9419,-0.9476,-0.9388,-0.9213,-0.9249,-0.9173,-0.8969,-0.8969,-0.8843,-0.8513,-0.8327,-0.814,-0.7915,-0.7834,-0.7718,0.0,0.0,-0.586,-0.6065,-0.6388,-0.666,0.0,0.0,0.0,0.0,0.0,0.0,0.0,0.0,0.0,0.0,0.0,0.0,0.0,0.0,0.0,0.0,0.0,0.0,0.0,0.0,0.0,0.0,0.0,0.0,-0.6937,-0.677,-0.6686,-0.6642,-0.6642,-0.6508,-0.6243,-0.6377,-0.625,-0.59,-0.5728,-0.5551,-0.5462,-0.5462,-0.551,-0.5635,-0.547,-0.5407,-0.5355,-0.5359,-0.5331,-0.5321,-0.5628,-0.5786,-0.5867,-0.6064,-0.6296,-0.6528,-0.6528,-0.6676,-0.6903,-0.6903,-0.6984,-0.7142,-0.7142,-0.7257,-0.7407,-0.7407,-0.7454,-0.7494,-0.7659,-0.7682,-0.7739,-0.8038,-0.8157,-0.8281,-0.8619,-0.865,-0.864,-0.8768,-0.8737,-0.8703,-0.8703,-0.8703,-0.8703,-0.8703,-0.8703,-0.8722,-0.8774,-0.8784,-0.8803,-0.8855,-0.9041,-0.9226,-0.9348,-0.9512,-0.952,-0.9379,-0.9476,-0.9388,-0.9087,-0.9206,-0.9131,-0.8764,-0.8894,-0.8726,-0.8327,-0.814,-0.7953,-0.7804,-0.7603,-0.7484,0.0,-0.5616,0.0,-0.5856,-0.6172,0.0,0.0,0.0,0.0,0.0,0.0,0.0,0.0,0.0,0.0,0.0,0.0,0.0,0.0,0.0,0.0,0.0,0.0,0.0,0.0,0.0,0.0,0.0,0.0,0.0,-0.6466,-0.6424,-0.6344,-0.6139,-0.6139,-0.6017,-0.5728,-0.5558,-0.5471,-0.5429,-0.5429,-0.5427,-0.5421,-0.5421,-0.5424,-0.5424,-0.5257,-0.5203,-0.5186,-0.5075,-0.5137,-0.5321,-0.5321,-0.5437,-0.5637,-0.5637,-0.5909,-0.63,-0.63,-0.6563,-0.6903,-0.6903,-0.6903,-0.6903,-0.6903,-0.7061,-0.7219,-0.7219,-0.7462,-0.7679,-0.769,-0.7812,-0.7889,-0.7896,-0.8072,-0.8325,-0.8785,-0.8791,-0.8762,-0.8932,-0.8841,-0.8703,-0.8703,-0.8703,-0.8703,-0.8703,-0.8703,-0.8774,-0.8943,-0.8966,-0.9037,-0.923,-0.9502,-0.964,-0.9569,-0.9597,-0.9606,-0.9589,-0.9432,-0.9388,-0.9559,-0.9373,-0.9215,-0.9005,-0.8813,-0.8535,-0.8102,-0.7915,-0.7804,-0.7804,-0.7603,-0.7484,0.0,0.0,0.0,-0.5693,-0.5896,0.0,0.0,0.0,0.0,0.0,0.0,0.0,0.0,0.0,0.0,0.0,0.0,0.0,0.0,0.0,0.0,0.0,0.0,0.0,0.0,0.0,0.0,0.0,0.0,0.0,-0.6402,-0.6239,-0.6034,-0.5832,-0.5832,-0.5791,-0.571,-0.5496,-0.541,-0.541,-0.541,-0.5369,-0.5252,-0.5252,-0.5211,-0.514,-0.5097,-0.5118,-0.5178,-0.5064,-0.5054,-0.5132,-0.5243,-0.5359,-0.544,-0.5559,-0.5715,-0.5831,-0.5831,-0.5944,-0.6057,-0.6057,-0.6173,-0.6286,-0.6447,-0.6641,-0.6834,-0.6984,-0.7143,-0.7233,-0.7233,-0.7304,-0.7452,-0.7808,-0.8072,-0.8313,-0.8818,-0.8765,-0.8662,-0.8776,-0.8734,-0.8703,-0.8703,-0.8703,-0.8703,-0.8703,-0.8703,-0.8779,-0.8957,-0.8985,-0.9061,-0.9258,-0.9526,-0.9659,-0.9587,-0.977,-0.9776,-0.9589,-0.9515,-0.9369,-0.9154,-0.901,-0.8777,-0.8412,-0.823,-0.806,-0.7915,-0.7842,-0.7723,-0.7603,-0.7522,-0.7484,-0.5363,0.0,0.0,0.0,0.0,0.0,0.0,0.0,0.0,0.0,0.0,0.0,0.0,0.0,0.0,0.0,0.0,0.0,0.0,0.0,0.0,0.0,0.0,0.0,0.0,0.0,0.0,0.0,0.0,0.0,-0.6056,-0.5856,-0.5656,-0.5458,-0.5458,-0.5458,-0.5458,-0.5333,-0.5252,-0.5252,-0.5252,-0.5208,-0.5129,-0.5129,-0.5089,-0.5018,-0.5018,-0.5059,-0.5124,-0.5048,-0.5018,-0.5018,-0.5129,-0.5207,-0.5207,-0.5365,-0.5443,-0.5518,-0.5559,-0.5637,-0.5712,-0.5712,-0.5789,-0.5941,-0.6099,-0.6335,-0.6535,-0.678,-0.6944,-0.6995,-0.7048,-0.7082,-0.7228,-0.7764,-0.7984,-0.8248,-0.8692,-0.8658,-0.856,-0.8756,-0.8702,-0.8627,-0.8699,-0.8703,-0.8703,-0.8703,-0.8703,-0.8803,-0.9051,-0.9084,-0.9228,-0.9502,-0.9744,-0.9843,-0.9738,-0.9961,-0.9976,-0.9767,-0.9668,-0.9443,-0.9052,-0.8804,-0.8524,-0.8114,-0.7897,-0.7727,-0.7607,-0.7684,-0.7642,-0.7484,-0.7484,-0.7484,0.0,0.0,0.0,0.0,0.0,0.0,0.0,0.0,0.0,0.0,0.0,0.0,0.0,0.0,0.0,0.0,0.0,0.0,0.0,0.0,0.0,0.0,0.0,0.0,0.0,0.0,0.0,0.0,0.0,-0.5709,-0.5321,-0.5282,-0.5207,-0.5018,-0.5018,-0.5018,-0.5018,-0.5018,-0.5018,-0.5018,-0.5018,-0.5018,-0.5018,-0.5018,-0.5018,-0.5018,-0.5018,-0.5018,-0.5018,-0.5018,-0.5018,-0.5018,-0.5018,-0.5018,-0.5018,-0.5018,-0.5132,-0.5321,-0.5521,-0.5712,-0.5899,-0.5899,-0.5899,-0.5899,-0.5902,-0.6099,-0.6369,-0.6676,-0.6868,-0.702,-0.7144,-0.7165,-0.7228,-0.7764,-0.79,-0.8032,-0.8472,-0.8446,-0.8435,-0.8882,-0.8677,-0.8441,-0.8665,-0.8699,-0.8699,-0.8699,-0.8699,-0.8855,-0.923,-0.9282,-0.9442,-0.9952,-1.0168,-1.0207,-0.9994,-1.0164,-1.0207,-0.9994,-0.9714,-0.9475,-0.9264,-0.8882,-0.8471,-0.8066,-0.7892,-0.7573,-0.718,-0.7373,-0.7484,-0.7484,-0.7484,-0.7484,-0.5307,0.0,0.0,0.0,0.0,0.0,0.0,0.0,0.0,0.0,0.0,0.0,0.0,0.0,0.0,0.0,0.0,0.0,0.0,0.0,0.0,0.0,0.0,0.0,0.0,0.0,0.0,0.0,-0.5637,-0.5556,-0.5321,-0.5168,-0.5054,-0.5018,-0.5018,-0.5018,-0.5018,-0.5018,-0.5018,-0.5018,-0.5018,-0.5018,-0.5018,-0.5018,-0.5018,-0.5018,-0.5018,-0.5018,-0.5018,-0.5018,-0.5018,-0.5018,-0.5018,-0.5018,-0.5018,-0.5018,-0.5015,-0.5093,-0.5323,-0.5437,-0.5476,-0.5634,-0.5673,-0.5712,-0.5864,-0.5941,-0.609,-0.647,-0.6664,-0.684,-0.7057,-0.7109,-0.7187,-0.7547,-0.7768,-0.7954,-0.8053,-0.8098,-0.818,-0.8435,-0.8326,-0.8217,-0.8255,-0.8403,-0.8475,-0.8475,-0.8475,-0.8622,-0.9032,-0.8959,-0.9035,-0.9435,-0.9689,-0.9733,-0.9519,-0.9689,-0.9689,-0.9519,-0.9287,-0.9023,-0.8678,-0.8282,-0.7857,-0.7449,-0.7242,-0.7022,-0.6756,-0.7103,-0.7215,-0.7057,-0.7057,-0.7057,0.0,0.0,0.0,0.0,0.0,0.0,0.0,-0.4729,0.0,0.0,0.0,0.0,0.0,0.0,0.0,0.0,0.0,0.0,0.0,0.0,0.0,0.0,0.0,0.0,0.0,0.0,0.0,0.0,-0.5443,-0.5401,-0.5168,-0.5129,-0.5132,-0.5132,-0.521,-0.5249,-0.5249,-0.5249,-0.521,-0.5132,-0.5132,-0.5093,-0.5018,-0.5018,-0.5018,-0.5018,-0.5018,-0.5018,-0.5018,-0.5093,-0.5132,-0.5132,-0.5132,-0.5171,-0.5249,-0.5171,-0.5171,-0.5249,-0.5401,-0.5476,-0.5553,-0.5673,-0.5712,-0.575,-0.5864,-0.5944,-0.61,-0.6485,-0.6719,-0.6922,-0.7051,-0.7051,-0.7095,-0.736,-0.7483,-0.7578,-0.7658,-0.7665,-0.774,-0.8154,-0.8081,-0.7991,-0.8102,-0.8178,-0.8289,-0.8289,-0.836,-0.8527,-0.8842,-0.8748,-0.8792,-0.9096,-0.917,-0.9122,-0.9034,-0.9122,-0.9122,-0.9034,-0.8653,-0.833,-0.8012,-0.7537,-0.7125,-0.6791,-0.6668,-0.6475,-0.617,-0.6714,-0.683,-0.6591,-0.6591,-0.6591,0.0,0.0,0.0,0.0,0.0,0.0,-0.466,-0.4512,-0.44,0.0,0.0,0.0,0.0,0.0,0.0,0.0,0.0,0.0,0.0,0.0,0.0,0.0,0.0,0.0,0.0,0.0,-0.5318,-0.4988,-0.516,-0.5207,-0.5018,-0.5207,-0.5282,-0.5282,-0.5479,-0.5598,-0.5598,-0.5598,-0.5518,-0.5321,-0.5321,-0.5207,-0.5015,-0.5018,-0.5018,-0.5015,-0.5015,-0.5015,-0.5054,-0.5243,-0.5321,-0.5321,-0.5321,-0.544,-0.5559,-0.5401,-0.544,-0.5598,-0.5637,-0.575,-0.5902,-0.5941,-0.5941,-0.5944,-0.596,-0.6093,-0.6314,-0.6637,-0.6915,-0.7071,-0.7071,-0.6967,-0.6945,-0.7154,-0.7129,-0.7109,-0.7222,-0.7138,-0.7187,-0.7763,-0.7793,-0.7761,-0.7949,-0.7987,-0.7987,-0.7987,-0.8164,-0.8352,-0.8528,-0.8493,-0.8495,-0.8686,-0.8524,-0.842,-0.8404,-0.8404,-0.8412,-0.8384,-0.785,-0.7461,-0.7267,-0.6763,-0.6363,-0.6086,-0.6047,-0.5854,-0.5506,-0.6131,-0.6286,-0.6086,-0.6086,-0.6086,0.0,0.0,0.0,0.0,0.0,0.0,-0.4218,-0.3962,-0.3786,0.0,0.0,0.0,0.0,0.0,0.0,0.0,0.0,0.0,0.0,0.0,0.0,0.0,0.0,0.0,0.0,0.0,-0.4961,-0.486,-0.4961,-0.5054,-0.5018,-0.5207,-0.5282,-0.5282,-0.5479,-0.5598,-0.5598,-0.5598,-0.5598,-0.5559,-0.5359,-0.5282,-0.5243,-0.5054,-0.5093,-0.5243,-0.5243,-0.5243,-0.5243,-0.5443,-0.544,-0.5321,-0.5479,-0.5559,-0.5598,-0.5559,-0.5559,-0.5637,-0.5789,-0.5864,-0.5941,-0.6141,-0.6219,-0.6242,-0.6354,-0.6407,-0.6488,-0.6765,-0.6883,-0.6927,-0.6927,-0.6858,-0.6701,-0.6614,-0.6674,-0.6709,-0.6468,-0.6538,-0.6596,-0.6585,-0.6845,-0.7096,-0.7134,-0.7253,-0.7373,-0.7373,-0.7401,-0.7458,-0.7573,-0.7428,-0.7339,-0.7372,-0.7347,-0.7254,-0.7175,-0.7164,-0.7091,-0.6996,-0.6847,-0.661,-0.6277,-0.5967,-0.5702,-0.5473,-0.5162,-0.4971,-0.4893,-0.516,-0.5276,-0.5234,-0.5234,-0.5234,0.0,0.0,0.0,-0.4781,0.0,0.0,0.0,-0.3643,-0.3382,0.0,0.0,0.0,0.0,0.0,0.0,0.0,0.0,0.0,0.0,0.0,0.0,0.0,0.0,0.0,0.0,0.0,-0.4659,-0.473,-0.493,-0.4999,-0.4887,-0.525,-0.544,-0.544,-0.5792,-0.5948,-0.5948,-0.5948,-0.587,-0.575,-0.5631,-0.5476,-0.5282,-0.5207,-0.5207,-0.5282,-0.5282,-0.5282,-0.5321,-0.5631,-0.5634,-0.5479,-0.5673,-0.5828,-0.5948,-0.5789,-0.5831,-0.5948,-0.5902,-0.598,-0.6138,-0.6261,-0.63,-0.6313,-0.6385,-0.6457,-0.6559,-0.6749,-0.6729,-0.6642,-0.6642,-0.6491,-0.626,-0.6012,-0.5963,-0.5934,-0.5668,-0.5689,-0.5704,-0.5634,-0.5777,-0.6089,-0.6475,-0.6633,-0.671,-0.671,-0.6783,-0.6813,-0.6766,-0.6647,-0.6517,-0.6415,-0.6301,-0.6234,-0.6168,-0.6162,-0.6107,-0.6048,-0.5823,-0.5621,-0.5443,-0.5181,-0.4965,-0.4851,-0.4545,-0.4389,-0.4389,-0.4387,-0.4499,-0.4693,-0.4693,-0.4693,0.0,0.0,0.0,0.0,0.0,-0.3793,0.0,0.0,0.0,-0.2746,0.0,0.0,0.0,0.0,0.0,0.0,0.0,0.0,0.0,0.0,0.0,0.0,0.0,0.0,0.0,0.0,-0.4321,-0.4605,-0.4837,-0.4927,-0.4793,-0.5231,-0.5532,-0.5598,-0.5986,-0.6261,-0.63,-0.63,-0.618,-0.598,-0.5941,-0.5709,-0.5359,-0.5321,-0.5282,-0.5282,-0.5282,-0.5282,-0.5321,-0.5709,-0.5712,-0.5556,-0.5867,-0.6099,-0.6261,-0.606,-0.6099,-0.6261,-0.606,-0.6099,-0.63,-0.63,-0.6278,-0.6263,-0.6263,-0.6364,-0.6461,-0.6541,-0.643,-0.6239,-0.6239,-0.5972,-0.5673,-0.5354,-0.5199,-0.5046,-0.481,-0.4771,-0.4771,-0.481,-0.481,-0.5082,-0.5854,-0.597,-0.597,-0.597,-0.6113,-0.6158,-0.5981,-0.5887,-0.5791,-0.5579,-0.5416,-0.5325,-0.5303,-0.5301,-0.527,-0.5212,-0.49,-0.4728,-0.4708,-0.4483,-0.4307,-0.4268,-0.4116,-0.404,-0.404,-0.3882,-0.3958,-0.4268,-0.4268,-0.4268,0.0,0.0,0.0,0.0,-0.3547,0.0,0.0,0.0,-0.2611,-0.2394,0.0,0.0,0.0,0.0,0.0,0.0,0.0,0.0,0.0,0.0,0.0,0.0,0.0,0.0,0.0,0.0,0.0,-0.433,-0.4482,-0.464,-0.4785,-0.5032,-0.5278,-0.5595,-0.5825,-0.606,-0.63,-0.63,-0.63,-0.6261,-0.6018,-0.5789,-0.5559,-0.5398,-0.5282,-0.5282,-0.5282,-0.5282,-0.5321,-0.5556,-0.5518,-0.5398,-0.6025,-0.6261,-0.63,-0.6261,-0.6261,-0.63,-0.6261,-0.6261,-0.63,-0.63,-0.627,-0.6214,-0.6214,-0.6194,-0.614,-0.6156,-0.5911,-0.5615,-0.5615,-0.5357,-0.5023,-0.4636,-0.4509,-0.4384,-0.4034,-0.3919,-0.3997,-0.4155,-0.4196,-0.4387,-0.5043,-0.5121,-0.5121,-0.5121,-0.5171,-0.5143,-0.5058,-0.5044,-0.4968,-0.4763,-0.4723,-0.4643,-0.4545,-0.4538,-0.4381,-0.4112,-0.4148,-0.4135,-0.4019,-0.4091,-0.4038,-0.388,-0.3843,-0.3841,-0.3841,-0.3802,-0.3841,-0.388,-0.388,-0.388,0.0,0.0,0.0,0.0,0.0,0.0,0.0,0.0,-0.2325,0.0,0.0,0.0,0.0,0.0,0.0,0.0,0.0,0.0,0.0,0.0,0.0,0.0,0.0,0.0,0.0,0.0,0.0,0.0,0.0,-0.4473,-0.4515,-0.4834,-0.5118,-0.5319,-0.5704,-0.5941,-0.606,-0.6219,-0.63,-0.63,-0.618,-0.5948,-0.5598,-0.5518,-0.5401,-0.5282,-0.5282,-0.5282,-0.5321,-0.5518,-0.5479,-0.5321,-0.5754,-0.5912,-0.5909,-0.6022,-0.5983,-0.5922,-0.5998,-0.6024,-0.6,-0.5925,-0.5854,-0.5755,-0.5592,-0.5534,-0.5476,-0.5476,-0.5161,-0.4846,-0.4846,-0.4575,-0.4229,-0.3956,-0.3837,-0.3761,-0.3452,-0.3413,-0.3413,-0.3493,-0.3532,-0.3647,-0.407,-0.4421,-0.4654,-0.4654,-0.4654,-0.4597,-0.4451,-0.4416,-0.4377,-0.4176,-0.4137,-0.4119,-0.4038,-0.4036,-0.3936,-0.3697,-0.3589,-0.3508,-0.3423,-0.3471,-0.3493,-0.3413,-0.3413,-0.3413,-0.3413,-0.3413,-0.3413,-0.3413,-0.3686,-0.3802,-0.1937,0.0,0.0,0.0,0.0,0.0,0.0,0.0,0.0,0.0,0.0,0.0,0.0,0.0,0.0,0.0,0.0,0.0,0.0,0.0,0.0,0.0,0.0,0.0,0.0,0.0,0.0,0.0,-0.4069,0.0,-0.4292,-0.4639,-0.4895,-0.5081,-0.5483,-0.5745,-0.5902,-0.6099,-0.6219,-0.63,-0.63,-0.6067,-0.5598,-0.5598,-0.5443,-0.5207,-0.5207,-0.5207,-0.5246,-0.5365,-0.5323,-0.5165,-0.5362,-0.5362,-0.5326,-0.571,-0.5764,-0.5668,-0.5718,-0.5722,-0.5615,-0.5466,-0.5328,-0.5189,-0.4945,-0.4783,-0.4654,-0.4654,-0.4421,-0.4151,-0.4151,-0.388,-0.3569,-0.3372,-0.3253,-0.3175,-0.2982,-0.2943,-0.2943,-0.3023,-0.3023,-0.31,-0.3333,-0.38,-0.419,-0.4229,-0.4229,-0.419,-0.4038,-0.3999,-0.396,-0.3802,-0.3802,-0.3802,-0.3802,-0.3802,-0.3684,-0.3411,-0.3217,-0.3062,-0.3023,-0.3062,-0.3102,-0.3102,-0.3102,-0.3102,-0.3102,-0.3102,-0.3102,-0.3102,-0.3452,-0.3608,0.0,0.0,0.0,-0.0768,0.0,0.0,0.0,0.0,-0.1475,0.0,0.0,0.0,0.0,0.0,0.0,-0.1591,0.0,0.0,0.0,0.0,0.0,0.0,0.0,0.0,0.0,0.0,0.0,0.0,-0.3731,0.0,-0.4281,-0.4308,-0.4573,-0.5075,-0.513,-0.538,-0.5899,-0.5902,-0.606,-0.63,-0.63,-0.6067,-0.5598,-0.5598,-0.5365,-0.5018,-0.5018,-0.5018,-0.5018,-0.5018,-0.4898,-0.4737,-0.4929,-0.4771,-0.4553,-0.5456,-0.578,-0.5761,-0.5653,-0.5491,-0.5277,-0.5027,-0.4748,-0.4501,-0.4297,-0.4031,-0.3841,-0.3841,-0.3684,-0.3526,-0.3446,-0.3294,-0.3062,-0.2865,-0.2826,-0.2747,-0.255,-0.2511,-0.2589,-0.2787,-0.2826,-0.2865,-0.3062,-0.3333,-0.3604,-0.3802,-0.3802,-0.3802,-0.3802,-0.3802,-0.3802,-0.3802,-0.3802,-0.3802,-0.3802,-0.3802,-0.3608,-0.3141,-0.3102,-0.3023,-0.2826,-0.2982,-0.3102,-0.3102,-0.3102,-0.3102,-0.3102,-0.3102,-0.3102,-0.3102,-0.3102,-0.3141,0.0,0.0,0.0357,0.0064,0.0,0.0,0.0,0.0,0.0,0.0,0.0,0.0,0.0,0.0,-0.1307,-0.1377,0.0,0.0,0.0,0.0,0.0,0.0,0.0,0.0,0.0,0.0,0.0,-0.3447,-0.3498,-0.3671,0.0,-0.4091,-0.4339,-0.4687,-0.4964,-0.5226,-0.5512,-0.5783,-0.5941,-0.6022,-0.6022,-0.5867,-0.5598,-0.5321,-0.5049,-0.4779,-0.4659,-0.4621,-0.4621,-0.4621,-0.4467,-0.4311,-0.4389,-0.4231,-0.4086,-0.4863,-0.5066,-0.493,-0.487,-0.4762,-0.4546,-0.4138,-0.3974,-0.3892,-0.3509,-0.3277,-0.3178,-0.3295,-0.3098,-0.2862,-0.2981,-0.2863,-0.2668,-0.2628,-0.2589,-0.2589,-0.2511,-0.2511,-0.2511,-0.2589,-0.2589,-0.2668,-0.2865,-0.2981,-0.3176,-0.3526,-0.3724,-0.3802,-0.3802,-0.3802,-0.3802,-0.3802,-0.3802,-0.3802,-0.3802,-0.353,-0.3258,-0.3102,-0.2865,-0.2668,-0.2589,-0.2668,-0.2707,-0.2707,-0.2707,-0.2707,-0.2707,-0.2707,-0.2707,-0.2707,-0.2707,-0.2865,0.1266,0.1263,0.0,0.0988,0.0844,0.0,0.022,0.0,0.0,0.0,0.0,0.0,0.0,0.0,0.0,-0.1028,-0.1235,0.0,0.0,-0.1614,0.0,0.0,0.0,0.0,0.0,0.0,-0.2989,-0.3239,-0.3354,-0.3487,0.0,0.0,-0.4118,-0.4435,-0.4665,-0.4958,-0.521,-0.5478,-0.5659,-0.5789,-0.5709,-0.5592,-0.5359,-0.4965,-0.4696,-0.4467,-0.427,-0.419,-0.419,-0.419,-0.3995,-0.3763,-0.3763,-0.3567,-0.342,-0.4185,-0.4347,-0.4139,-0.4163,-0.4009,-0.3712,-0.3272,-0.315,-0.3147,-0.2776,-0.256,-0.2514,-0.2631,-0.2474,-0.2315,-0.255,-0.247,-0.2392,-0.247,-0.2511,-0.2511,-0.2511,-0.2511,-0.2511,-0.2511,-0.2511,-0.255,-0.2668,-0.2746,-0.2943,-0.3294,-0.3452,-0.3569,-0.3569,-0.3645,-0.3684,-0.3684,-0.3763,-0.3802,-0.3802,-0.3452,-0.3217,-0.3102,-0.2787,-0.255,-0.2392,-0.2392,-0.2354,-0.2277,-0.2277,-0.2277,-0.2277,-0.2277,-0.2277,-0.2277,-0.2277,-0.2434]}]]